[[{"header":{"parameterUnit":"m.s-1","parameterCategory":1,"la1":30.6,"la2":28.766,"lo1":-90.7593,"lo2":-88.6598,"dy":0.0162,"dx":0.0183,"nx":116,"ny":114,"refTime":"2023-04-21T06:00:00:Z","depth":0,"parameterNumber":2,"parameterNumberName":"U-component_of_WINDS"},"data":[0.0,0.0,0.0,0.0,0.0,0.0,0.0,0.0,0.0,0.0,0.0,0.0,0.0,0.0,0.0,0.0,0.0,0.0,0.0,0.0,0.0,0.0,0.0,0.0,0.0,0.0,0.0,0.0,0.0,0.0,0.0,0.0,0.0,0.0,0.0,0.0,0.0,0.0,0.0,0.0,0.0,0.0,0.0,0.0,0.0,0.0,0.0,0.0,0.0,0.0,0.0,0.0,0.0,0.0,0.0,0.0,0.0,0.0,0.0,0.0,0.0,0.0,0.0,0.0,0.0,0.0,0.0,0.0,0.0,0.0,0.0,0.0,0.0,0.0,0.0,0.0,0.0,0.0,0.0,0.0,0.0,0.0,0.0,0.0,0.0,0.0,0.0,0.0,0.0,0.0,0.0,0.0,0.0,0.0,0.0,0.0,0.0,0.0,0.0,0.0,0.0,0.0,0.0,0.0,0.0,0.0,0.0,0.0,0.0,0.0,0.0,0.0,0.0,0.0,0.0,0.0,0.0,0.0,0.0,0.0,0.0,0.0,0.0,0.0,0.0,0.0,0.0,0.0,0.0,0.0,0.0,0.0,0.0,0.0,0.0,0.0,0.0,0.0,0.0,0.0,0.0,0.0,0.0,0.0,0.0,0.0,0.0,0.0,0.0,0.0,0.0,0.0,0.0,0.0,0.0,0.0,0.0,0.0,0.0,0.0,0.0,0.0,0.0,0.0,0.0,0.0,0.0,0.0,0.0,0.0,0.0,0.0,0.0,0.0,0.0,0.0,0.0,0.0,0.0,0.0,0.0,0.0,0.0,0.0,0.0,0.0,0.0,0.0,0.0,0.0,0.0,0.0,0.0,0.0,0.0,0.0,0.0,0.0,0.0,0.0,0.0,0.0,0.0,0.0,0.0,0.0,0.0,0.0,0.0,0.0,0.0,0.0,0.0,0.0,0.0,0.0,0.0,0.0,0.0,0.0,0.0,0.0,0.0,0.0,0.0,0.0,0.0,0.0,0.0,0.0,0.0,0.0,0.0,0.0,0.0,0.0,0.0,0.0,0.0,0.0,0.0,0.0,0.0,0.0,0.0,0.0,0.0,0.0,0.0,0.0,0.0,0.0,0.0,0.0,0.0,0.0,0.0,0.0,0.0,0.0,0.0,0.0,0.0,0.0,0.0,0.0,0.0,0.0,0.0,0.0,0.0,0.0,0.0,0.0,0.0,0.0,0.0,0.0,0.0,0.0,0.0,0.0,0.0,0.0,0.0,0.0,0.0,0.0,0.0,0.0,0.0,0.0,0.0,0.0,0.0,0.0,0.0,0.0,0.0,0.0,0.0,0.0,0.0,0.0,0.0,0.0,0.0,0.0,0.0,0.0,0.0,0.0,0.0,0.0,0.0,0.0,0.0,0.0,0.0,0.0,0.0,0.0,0.0,0.0,0.0,0.0,0.0,0.0,0.0,0.0,0.0,0.0,0.0,0.0,0.0,0.0,0.0,0.0,0.0,0.0,0.0,0.0,0.0,0.0,0.0,0.0,0.0,0.0,0.0,0.0,0.0,0.0,0.0,0.0,0.0,0.0,0.0,0.0,0.0,0.0,0.0,0.0,0.0,0.0,0.0,0.0,0.0,0.0,0.0,0.0,0.0,0.0,0.0,0.0,0.0,0.0,0.0,0.0,0.0,0.0,0.0,0.0,0.0,0.0,0.0,0.0,0.0,0.0,0.0,0.0,0.0,0.0,0.0,0.0,0.0,0.0,0.0,0.0,0.0,0.0,0.0,0.0,0.0,0.0,0.0,0.0,0.0,0.0,0.0,0.0,0.0,0.0,0.0,0.0,0.0,0.0,0.0,0.0,0.0,0.0,0.0,0.0,0.0,0.0,0.0,0.0,0.0,0.0,0.0,0.0,0.0,0.0,0.0,0.0,0.0,0.0,0.0,0.0,0.0,0.0,0.0,0.0,0.0,0.0,0.0,0.0,0.0,0.0,0.0,0.0,0.0,0.0,0.0,0.0,0.0,0.0,0.0,0.0,0.0,0.0,0.0,0.0,0.0,0.0,0.0,0.0,0.0,0.0,0.0,0.0,0.0,0.0,0.0,0.0,0.0,0.0,0.0,0.0,0.0,0.0,0.0,0.0,0.0,0.0,0.0,0.0,0.0,0.0,0.0,0.0,0.0,0.0,0.0,0.0,0.0,0.0,0.0,0.0,0.0,0.0,0.0,0.0,0.0,0.0,0.0,0.0,0.0,0.0,0.0,0.0,0.0,0.0,0.0,0.0,0.0,0.0,0.0,0.0,0.0,0.0,0.0,0.0,0.0,0.0,0.0,0.0,0.0,0.0,0.0,0.0,0.0,0.0,0.0,0.0,0.0,0.0,0.0,0.0,0.0,0.0,0.0,0.0,0.0,0.0,0.0,0.0,0.0,0.0,0.0,0.0,0.0,0.0,0.0,0.0,0.0,0.0,0.0,0.0,0.0,0.0,0.0,0.0,0.0,0.0,0.0,0.0,0.0,0.0,0.0,0.0,0.0,0.0,0.0,0.0,0.0,0.0,0.0,0.0,0.0,0.0,0.0,0.0,0.0,0.0,0.0,0.0,0.0,0.0,0.0,0.0,0.0,0.0,0.0,0.0,0.0,0.0,0.0,0.0,0.0,0.0,0.0,0.0,0.0,0.0,0.0,0.0,0.0,0.0,0.0,0.0,0.0,0.0,0.0,0.0,0.0,0.0,0.0,0.0,0.0,0.0,0.0,0.0,0.0,0.0,0.0,0.0,0.0,0.0,0.0,0.0,0.0,0.0,0.0,0.0,0.0,0.0,0.0,0.0,0.0,0.0,0.0,0.0,0.0,0.0,0.0,0.0,0.0,0.0,0.0,0.0,0.0,0.0,0.0,0.0,0.0,0.0,0.0,0.0,0.0,0.0,0.0,0.0,0.0,0.0,0.0,0.0,0.0,0.0,0.0,0.0,0.0,0.0,0.0,0.0,0.0,0.0,0.0,0.0,0.0,0.0,0.0,0.0,0.0,0.0,0.0,0.0,0.0,0.0,0.0,0.0,0.0,0.0,0.0,0.0,0.0,0.0,0.0,0.0,0.0,0.0,0.0,0.0,0.0,0.0,0.0,0.0,0.0,0.0,0.0,0.0,0.0,0.0,0.0,0.0,0.0,0.0,0.0,0.0,0.0,0.0,0.0,0.0,0.0,0.0,0.0,0.0,0.0,0.0,0.0,0.0,0.0,0.0,0.0,0.0,0.0,0.0,0.0,0.0,0.0,0.0,0.0,0.0,0.0,0.0,0.0,0.0,0.0,0.0,0.0,0.0,0.0,0.0,0.0,0.0,0.0,0.0,0.0,0.0,0.0,0.0,0.0,0.0,0.0,0.0,0.0,0.0,0.0,0.0,0.0,0.0,0.0,0.0,0.0,0.0,0.0,0.0,0.0,0.0,0.0,0.0,0.0,0.0,0.0,0.0,0.0,0.0,0.0,0.0,0.0,0.0,0.0,0.0,0.0,0.0,0.0,0.0,0.0,0.0,0.0,0.0,0.0,0.0,0.0,0.0,0.0,0.0,0.0,0.0,0.0,0.0,0.0,0.0,0.0,0.0,0.0,0.0,0.0,0.0,0.0,0.0,0.0,0.0,0.0,0.0,0.0,0.0,0.0,0.0,0.0,0.0,0.0,0.0,0.0,0.0,0.0,0.0,0.0,0.0,0.0,0.0,0.0,0.0,0.0,0.0,0.0,0.0,0.0,0.0,0.0,0.0,0.0,0.0,0.0,0.0,0.0,0.0,0.0,0.0,0.0,0.0,0.0,0.0,0.0,0.0,0.0,0.0,0.0,0.0,0.0,0.0,0.0,0.0,0.0,0.0,0.0,0.0,0.0,0.0,0.0,0.0,0.0,0.0,0.0,0.0,0.0,0.0,0.0,0.0,0.0,0.0,0.0,0.0,0.0,0.0,0.0,0.0,0.0,0.0,0.0,0.0,0.0,0.0,0.0,0.0,0.0,0.0,0.0,0.0,0.0,0.0,0.0,0.0,0.0,0.0,0.0,0.0,0.0,0.0,0.0,0.0,0.0,0.0,0.0,0.0,0.0,0.0,0.0,0.0,0.0,0.0,0.0,0.0,0.0,0.0,0.0,0.0,0.0,0.0,0.0,0.0,0.0,0.0,0.0,0.0,0.0,0.0,0.0,0.0,0.0,0.0,0.0,0.0,0.0,0.0,0.0,0.0,0.0,0.0,0.0,0.0,0.0,0.0,0.0,0.0,0.0,0.0,0.0,0.0,0.0,0.0,0.0,0.0,0.0,0.0,0.0,0.0,0.0,0.0,0.0,0.0,0.0,0.0,0.0,0.0,0.0,0.0,0.0,0.0,0.0,0.0,0.0,0.0,0.0,0.0,0.0,0.0,0.0,0.0,0.0,0.0,0.0,0.0,0.0,0.0,0.0,0.0,0.0,0.0,0.0,0.0,0.0,0.0,0.0,0.0,0.0,0.0,0.0,0.0,0.0,0.0,0.0,0.0,0.0,0.0,0.0,0.0,0.0,0.0,0.0,0.0,0.0,0.0,0.0,0.0,0.0,0.0,0.0,0.0,0.0,0.0,0.0,0.0,0.0,0.0,0.0,0.0,0.0,0.0,0.0,0.0,0.0,0.0,0.0,0.0,0.0,0.0,0.0,0.0,0.0,0.0,0.0,0.0,0.0,0.0,0.0,0.0,0.0,0.0,0.0,0.0,0.0,0.0,0.0,0.0,0.0,0.0,0.0,0.0,0.0,0.0,0.0,0.0,0.0,0.0,0.0,0.0,0.0,0.0,0.0,0.0,0.0,0.0,0.0,0.0,0.0,0.0,0.0,0.0,0.0,0.0,0.0,0.0,0.0,0.0,0.0,0.0,0.0,0.0,0.0,0.0,0.0,0.0,0.0,0.0,0.0,0.0,0.0,0.0,0.0,0.0,0.0,0.0,0.0,0.0,0.0,0.0,0.0,0.0,0.0,0.0,0.0,0.0,0.0,0.0,0.0,0.0,0.0,0.0,0.0,0.0,0.0,0.0,0.0,0.0,0.0,0.0,0.0,0.0,0.0,0.0,0.0,0.0,0.0,0.0,0.0,0.0,0.0,0.0,0.0,0.0,0.0,0.0,0.0,0.0,0.0,0.0,0.0,0.0,0.0,0.0,0.0,0.0,0.0,0.0,0.0,0.0,0.0,0.0,0.0,0.0,0.0,0.0,0.0,0.0,0.0,0.0,0.0,0.0,0.0,0.0,0.0,0.0,0.0,0.0,0.0,0.0,0.0,0.0,0.0,0.0,0.0,0.0,0.0,0.0,0.0,0.0,0.0,0.0,0.0,0.0,0.0,0.0,0.0,0.0,0.0,0.0,0.0,0.0,0.0,0.0,0.0,0.0,0.0,0.0,0.0,0.0,0.0,0.0,0.0,0.0,0.0,0.0,0.0,0.0,0.0,0.0,0.0,0.0,0.0,0.0,0.0,0.0,0.0,0.0,0.0,0.0,0.0,0.0,0.0,0.0,0.0,0.0,0.0,0.0,0.0,0.0,0.0,0.0,0.0,0.0,0.0,0.0,0.0,0.0,0.0,0.0,0.0,0.0,0.0,0.0,0.0,0.0,0.0,0.0,0.0,0.0,0.0,0.0,0.0,0.0,0.0,0.0,0.0,0.0,0.0,0.0,0.0,0.0,0.0,0.0,0.0,0.0,0.0,0.0,0.0,0.0,0.0,0.0,0.0,0.0,0.0,0.0,0.0,0.0,0.0,0.0,0.0,0.0,0.0,0.0,0.0,0.0,0.0,0.0,0.0,0.0,0.0,0.0,0.0,0.0,0.0,0.0,0.0,0.0,0.0,0.0,0.0,0.0,0.0,0.0,0.0,0.0,0.0,0.0,0.0,0.0,0.0,0.0,0.0,0.0,0.0,0.0,0.0,0.0,0.0,0.0,0.0,0.0,0.0,0.0,0.0,0.0,0.0,0.0,0.0,0.0,0.0,0.0,0.0,0.0,0.0,0.0,0.0,0.0,0.0,0.0,0.0,0.0,0.0,0.0,0.0,0.0,0.0,0.0,0.0,0.0,0.0,0.0,0.0,0.0,4.9591,0.0,0.0,0.0,0.0,0.0,0.0,0.0,0.0,0.0,0.0,0.0,0.0,0.0,0.0,0.0,0.0,0.0,0.0,0.0,0.0,0.0,0.0,0.0,0.0,0.0,0.0,0.0,0.0,0.0,0.0,0.0,0.0,0.0,0.0,0.0,0.0,0.0,0.0,4.4587,4.4587,4.4587,4.4587,4.4587,4.4587,4.4587,0.0,0.0,0.0,0.0,0.0,0.0,0.0,0.0,0.0,0.0,0.0,0.0,0.0,0.0,0.0,0.0,0.0,0.0,0.0,0.0,0.0,0.0,0.0,0.0,0.0,0.0,0.0,0.0,0.0,0.0,0.0,0.0,0.0,0.0,0.0,0.0,0.0,0.0,0.0,0.0,0.0,0.0,0.0,0.0,0.0,0.0,0.0,0.0,0.0,0.0,0.0,0.0,0.0,0.0,0.0,0.0,0.0,0.0,0.0,0.0,0.0,0.0,0.0,0.0,0.0,0.0,0.0,0.0,0.0,0.0,0.0,5.0398,0.0,0.0,0.0,0.0,0.0,0.0,0.0,0.0,0.0,0.0,0.0,0.0,0.0,0.0,0.0,0.0,0.0,0.0,0.0,0.0,0.0,0.0,0.0,4.4587,4.4587,4.4587,4.4587,4.4587,0.0,0.0,0.0,0.0,0.0,0.0,4.4587,4.4587,4.4587,4.4587,4.4587,4.4587,4.4587,4.4587,4.4587,4.4587,4.4587,0.0,0.0,0.0,0.0,0.0,0.0,0.0,0.0,0.0,0.0,0.0,0.0,0.0,0.0,0.0,0.0,0.0,0.0,0.0,0.0,0.0,0.0,0.0,0.0,0.0,0.0,0.0,0.0,0.0,0.0,0.0,0.0,0.0,0.0,0.0,0.0,0.0,0.0,0.0,0.0,0.0,0.0,0.0,0.0,0.0,0.0,0.0,0.0,0.0,0.0,0.0,0.0,0.0,0.0,0.0,0.0,0.0,0.0,0.0,0.0,0.0,0.0,0.0,5.1151,5.1224,5.1224,5.1224,5.1573,5.216,5.1518,5.1224,5.1224,0.0,0.0,0.0,0.0,0.0,0.0,0.0,0.0,0.0,0.0,0.0,0.0,0.0,0.0,0.0,0.0,0.0,0.0,0.0,0.0,0.0,0.0,4.4587,4.4587,4.4587,4.4587,4.4587,4.4587,0.0,0.0,0.0,0.0,0.0,4.4587,4.4587,4.4587,4.4587,4.4587,4.4587,4.4587,4.4587,4.4587,4.4587,4.4587,4.4587,4.4587,0.0,0.0,0.0,0.0,0.0,0.0,0.0,0.0,0.0,0.0,0.0,0.0,0.0,0.0,0.0,0.0,0.0,0.0,0.0,0.0,0.0,0.0,0.0,0.0,0.0,0.0,0.0,0.0,0.0,0.0,0.0,0.0,0.0,0.0,0.0,0.0,0.0,0.0,0.0,0.0,0.0,4.8306,4.8306,0.0,0.0,0.0,0.0,0.0,0.0,0.0,0.0,0.0,0.0,0.0,0.0,0.0,0.0,5.0802,5.1481,5.183,5.1848,5.2546,5.2894,5.2894,5.2894,5.2949,5.3041,5.2949,0.0,5.2894,5.2894,0.0,0.0,0.0,0.0,0.0,0.0,0.0,0.0,0.0,0.0,0.0,0.0,0.0,0.0,0.0,0.0,0.0,0.0,0.0,0.0,0.0,4.4587,4.4587,4.4587,4.4587,4.4587,4.4587,4.4587,0.0,0.0,0.0,4.4587,4.4587,4.4587,4.4587,4.4587,4.4587,4.4587,4.4587,4.4587,4.4587,4.4587,4.4587,4.4587,4.4587,4.4587,0.0,0.0,0.0,0.0,0.0,0.0,0.0,0.0,0.0,0.0,0.0,0.0,0.0,0.0,0.0,0.0,0.0,0.0,0.0,0.0,0.0,0.0,0.0,0.0,0.0,0.0,0.0,0.0,0.0,0.0,0.0,0.0,0.0,0.0,0.0,0.0,0.0,0.0,0.0,4.8306,4.8306,4.8306,4.8728,4.9022,0.0,0.0,0.0,0.0,0.0,0.0,0.0,0.0,0.0,5.1463,5.1463,5.1683,5.2142,5.2509,5.2674,5.2674,5.3041,5.3206,5.3206,5.3206,5.3206,5.3243,5.3683,5.3867,5.3849,5.339,5.3206,5.3206,0.0,0.0,0.0,0.0,0.0,5.3867,0.0,0.0,0.0,0.0,0.0,0.0,0.0,0.0,0.0,0.0,0.0,0.0,4.4587,4.4587,4.4587,4.4587,4.4587,4.4587,4.4587,4.4587,4.4587,4.4587,4.4587,4.4587,4.4587,4.4587,4.4587,4.4587,4.4587,4.4587,4.4587,4.4587,4.4587,4.4587,4.4587,4.4587,4.4587,4.4587,4.4587,4.4587,0.0,0.0,0.0,0.0,0.0,0.0,0.0,0.0,0.0,0.0,0.0,0.0,0.0,0.0,0.0,0.0,0.0,0.0,0.0,0.0,0.0,0.0,0.0,0.0,0.0,0.0,0.0,0.0,0.0,0.0,0.0,0.0,0.0,0.0,0.0,0.0,0.0,4.8489,4.8636,4.8636,4.9215,4.9687,0.0,0.0,0.0,0.0,0.0,0.0,5.1408,5.1408,5.1683,5.2289,5.2307,5.2601,5.3206,5.3206,5.3316,5.3518,5.3518,5.361,5.3812,5.3812,5.3812,5.3849,5.4454,5.4711,5.4656,5.4069,5.3812,5.3812,5.3812,5.3812,5.3812,5.3812,5.4197,5.4711,0.0,0.0,0.0,0.0,0.0,0.0,0.0,0.0,0.0,0.0,0.0,4.4587,4.4587,4.4587,4.4587,4.4587,4.4587,4.4587,4.4587,4.4587,4.4587,4.4587,4.4587,4.4587,4.4587,4.4587,4.4587,4.4587,4.4587,4.4587,4.4587,4.4587,4.4587,4.4587,4.4587,4.4587,4.4587,4.4587,4.4587,4.4587,4.4587,0.0,0.0,0.0,0.0,0.0,0.0,0.0,0.0,0.0,0.0,0.0,0.0,0.0,0.0,0.0,0.0,0.0,0.0,0.0,0.0,0.0,0.0,0.0,0.0,0.0,0.0,0.0,0.0,0.0,0.0,0.0,0.0,0.0,0.0,0.0,0.0,0.0,0.0,4.9517,4.961,0.0,0.0,0.0,0.0,5.1825,5.194,5.227,5.3059,5.3096,5.3115,5.3151,5.3151,5.317,5.3206,5.3206,5.3592,5.4344,5.4344,5.473,5.5464,5.5464,5.5464,5.5464,5.55,5.5537,5.5537,5.5482,5.5464,5.5464,5.5464,5.5464,5.5464,5.5464,5.5482,5.5537,0.0,0.0,0.0,0.0,0.0,0.0,0.0,0.0,4.4587,4.4587,4.4587,4.4587,4.4587,4.4587,4.4587,4.4587,4.4587,4.4587,4.4587,4.4587,4.4587,4.4587,4.4587,4.4587,4.4587,4.4587,4.4587,4.4587,4.4587,4.4587,4.4587,4.4587,4.4587,4.4587,4.4587,4.4587,4.4587,4.4587,4.4587,4.4587,4.4587,4.4587,0.0,0.0,0.0,0.0,0.0,0.0,0.0,0.0,0.0,0.0,0.0,0.0,0.0,0.0,0.0,0.0,0.0,0.0,0.0,0.0,0.0,0.0,0.0,0.0,0.0,0.0,0.0,0.0,0.0,0.0,0.0,0.0,0.0,0.0,0.0,0.0,0.0,4.9633,4.9744,0.0,5.1472,5.1391,5.1483,5.2037,5.2498,5.2688,5.249,5.2937,5.3445,5.3959,5.3977,5.4216,5.473,5.473,5.4876,5.517,5.517,5.5317,5.5592,5.5592,5.5592,5.5611,5.6143,5.6363,5.6418,5.6932,5.6528,5.5592,5.5592,5.5592,5.5592,5.5592,5.5923,5.6363,0.0,0.0,0.0,0.0,0.0,0.0,0.0,0.0,4.4587,4.4587,4.4587,4.4587,4.4587,4.4587,4.4587,4.4587,4.4587,4.4587,4.4587,4.4587,4.4587,4.4587,4.4587,4.4587,4.4587,4.4587,4.4587,4.4587,4.4587,4.4587,4.4587,4.4587,4.4587,4.4587,4.4587,4.4587,4.4587,4.4587,4.4587,4.4587,4.4587,4.4587,4.4587,0.0,0.0,0.0,0.0,0.0,0.0,0.0,0.0,0.0,0.0,0.0,0.0,0.0,0.0,0.0,0.0,0.0,0.0,0.0,0.0,0.0,0.0,0.0,0.0,0.0,0.0,0.0,0.0,0.0,0.0,0.0,0.0,0.0,0.0,0.0,4.9274,4.971,4.9847,5.0376,5.1574,5.1712,5.1856,5.2065,5.279,5.3107,5.289,5.3335,5.3997,5.4785,5.4803,5.506,5.5574,5.5592,5.5739,5.5996,5.5996,5.6143,5.64,5.64,5.64,5.6436,5.6969,5.7207,5.7262,5.7776,5.7354,5.64,5.64,5.64,5.64,5.64,5.6748,5.7207,0.0,0.0,0.0,0.0,0.0,0.0,0.0,4.4587,4.4587,4.4587,4.4587,4.4587,4.4587,4.4587,4.4587,4.4587,4.4587,4.4587,4.4587,4.4587,4.4587,4.4587,4.4587,4.4587,4.4587,4.4587,4.4587,4.4587,4.4587,4.4587,4.4587,4.4587,4.4587,4.4587,4.4587,4.4587,4.4587,4.4587,4.4587,4.4587,4.4587,4.4587,4.4587,0.0,0.0,0.0,0.0,0.0,0.0,0.0,0.0,0.0,0.0,0.0,0.0,0.0,0.0,0.0,0.0,0.0,0.0,0.0,0.0,0.0,0.0,0.0,0.0,0.0,0.0,0.0,0.0,0.0,0.0,0.0,0.0,0.0,4.8743,4.9392,4.9886,4.9886,4.9953,5.0297,5.1034,5.1104,5.1378,5.2054,5.2804,5.3595,5.4331,5.444,5.481,5.5566,5.5566,5.5629,5.5666,5.5666,5.6069,5.684,5.684,5.7262,5.7997,5.7997,5.7997,5.7997,5.7997,5.7997,5.7997,5.7997,5.7997,5.7997,5.7997,5.7997,5.7997,5.7997,5.7997,5.7997,0.0,0.0,0.0,0.0,0.0,0.0,4.4587,4.4587,4.4587,4.4587,4.4587,4.4587,4.4587,4.4587,4.4587,4.4587,4.4587,4.4587,4.4587,4.4587,4.4587,4.4587,4.4587,4.4587,4.4587,4.4587,4.4587,4.4587,4.4587,4.4587,4.4587,4.4587,4.4587,4.4587,4.4587,4.4587,4.4587,4.4587,4.4587,4.4587,4.4587,4.4587,4.4587,0.0,0.0,0.0,0.0,0.0,0.0,0.0,0.0,0.0,0.0,0.0,0.0,0.0,0.0,0.0,0.0,0.0,0.0,0.0,0.0,0.0,0.0,0.0,0.0,0.0,0.0,0.0,0.0,0.0,0.0,0.0,0.0,4.9145,4.9594,4.939,4.943,4.9928,4.9543,4.9739,5.0981,5.1134,5.1468,5.2197,5.3423,5.4022,5.3683,5.4187,5.4565,5.481,5.536,5.5934,5.6532,5.7068,5.7446,5.7666,5.7666,5.7795,5.7997,5.7997,5.7997,5.7997,5.7997,5.7997,5.7997,5.7997,5.7997,5.7997,5.7997,5.7997,5.7997,5.7997,5.7997,5.7997,0.0,0.0,0.0,0.0,0.0,0.0,4.4587,4.4587,4.4587,4.4587,4.4587,4.4587,4.4587,4.4587,4.4587,4.4587,4.4587,4.4587,4.4587,4.4587,4.4587,4.4587,4.4587,4.4587,4.4587,4.4587,4.4587,4.4587,4.4587,4.4587,4.4587,4.4908,4.5043,4.506,4.5365,4.55,4.55,4.55,4.55,4.55,4.55,4.5128,4.4587,4.4587,4.4587,4.4587,4.4587,4.4587,4.4587,4.4587,0.0,0.0,0.0,0.0,0.0,0.0,0.0,0.0,0.0,0.0,0.0,0.0,0.0,0.0,0.0,0.0,0.0,0.0,0.0,0.0,0.0,0.0,0.0,0.0,4.9256,4.927,4.9932,4.946,4.927,4.9932,4.9716,4.9896,5.1009,5.1477,5.1836,5.2274,5.3366,5.4135,5.4331,5.4776,5.5309,5.5965,5.641,5.6879,5.7351,5.7792,5.7997,5.7997,5.7997,5.7997,5.7997,5.7997,5.818,0.0,5.851,5.8694,5.9006,5.9006,5.9006,0.0,0.0,0.0,0.0,0.0,5.9006,5.9006,0.0,0.0,0.0,0.0,0.0,0.0,4.4587,4.4587,4.4587,4.4587,4.4587,4.4587,4.4587,4.4587,4.4587,4.4587,4.4587,4.4587,4.4587,4.4587,4.4587,4.4587,4.4587,4.4587,4.4587,4.4587,4.4587,4.4587,4.4654,4.4705,4.4722,4.5483,4.5821,4.5855,4.6498,4.6786,4.6786,4.6786,4.6786,4.6786,4.6786,4.6007,4.4823,4.4823,4.4823,4.4823,4.4823,4.4823,4.4823,4.4823,0.0,0.0,0.0,0.0,0.0,0.0,0.0,0.0,0.0,0.0,0.0,0.0,0.0,0.0,0.0,0.0,0.0,0.0,0.0,0.0,0.0,0.0,0.0,0.0,4.912,4.9373,5.0118,4.9661,4.9492,5.0152,5.0219,5.0473,5.115,5.185,5.2339,5.2399,5.3108,5.4104,5.5504,0.0,0.0,0.0,0.0,5.7594,5.7594,5.7774,5.7922,5.8014,5.8079,5.818,5.8272,5.8272,5.8657,5.9355,5.9355,5.9758,6.0401,6.0401,6.0456,6.0456,5.9667,5.9355,5.9428,6.0144,6.0401,6.0401,0.0,0.0,0.0,0.0,0.0,0.0,4.4587,4.4587,4.4587,4.4587,4.4587,4.4587,4.4587,4.4587,4.4587,4.4587,4.4587,4.4587,4.4587,4.4587,4.4587,4.4587,4.4587,4.4587,4.4587,4.4587,4.4587,4.4587,4.5196,4.5483,4.55,4.6244,4.6583,4.6583,4.6735,4.6786,4.6786,4.6786,4.6786,4.6786,4.6786,4.6616,4.6363,4.6363,4.6363,4.6363,4.6363,4.6363,4.6363,4.6363,4.6363,4.6363,4.6363,4.6363,0.0,0.0,0.0,0.0,0.0,0.0,0.0,0.0,0.0,0.0,0.0,0.0,0.0,0.0,0.0,0.0,0.0,0.0,0.0,4.9842,4.9881,5.0135,5.0896,5.0879,5.0845,5.098,5.0997,5.1048,5.12,5.1854,5.2545,5.3195,5.3948,5.4487,5.4772,5.4791,0.0,5.4408,5.4939,5.5279,5.5279,5.6492,5.7442,5.8076,0.0,0.0,5.9942,5.9942,6.0015,6.0181,6.0181,6.0272,6.0401,6.0401,6.0786,6.1282,6.0493,6.0181,6.0199,6.0346,6.0401,6.0401,0.0,0.0,0.0,0.0,0.0,0.0,4.4587,4.4587,4.4587,4.4587,4.4587,4.4587,4.4587,4.4587,4.4587,4.4587,4.4587,4.4587,4.4587,4.4587,4.4587,4.4587,4.4587,4.4587,4.4587,4.4587,4.4773,4.5145,4.5517,4.5889,4.6261,4.7005,4.7361,4.7378,4.7733,4.7902,4.7902,4.7902,4.7902,4.7902,4.7902,4.7902,4.7817,4.7073,4.6786,4.6786,4.6786,4.6786,4.6786,4.6786,4.6786,4.6786,4.6786,4.6786,4.687,0.0,0.0,0.0,0.0,0.0,0.0,0.0,0.0,0.0,0.0,0.0,0.0,0.0,0.0,4.9543,0.0,0.0,5.0236,5.0591,5.0659,5.0913,5.1657,5.1758,5.1758,5.1758,5.1758,5.1911,5.2317,5.2689,5.309,5.3494,5.3836,5.4218,5.4589,5.4589,5.4774,5.5214,5.5958,5.6553,5.6885,5.8042,5.8851,5.9233,5.9633,6.0015,6.0401,6.0401,6.0621,6.1006,6.1006,6.1227,6.1612,6.1612,6.1851,6.2163,6.1759,6.1612,6.1612,6.1612,6.1612,6.1612,0.0,0.0,0.0,0.0,0.0,0.0,0.0,4.4587,4.4587,4.4587,4.4587,4.4587,4.4587,4.4587,4.4587,4.4587,4.4587,4.4587,4.4587,4.4587,4.4587,4.4587,4.4587,4.4587,4.4587,4.4587,4.4942,4.5703,4.5838,4.6295,4.7022,4.7784,4.8122,4.8156,4.8748,4.8923,4.8719,4.8719,4.8639,4.8497,4.8639,4.8719,4.8584,4.7406,4.7089,4.7225,4.7225,4.7225,4.7225,4.7225,4.7225,4.7225,4.7225,4.7225,4.7344,4.7953,4.8122,0.0,0.0,0.0,0.0,0.0,0.0,0.0,0.0,0.0,4.9221,4.9221,4.9796,5.0304,5.0304,5.0811,5.1268,5.1403,5.142,5.1691,5.2435,5.2536,5.2536,5.2536,5.2536,5.279,5.345,5.3501,5.3501,5.3501,5.3501,5.3783,5.4374,5.4512,5.5166,5.6399,5.7204,5.789,5.8528,5.9317,5.9768,5.9932,6.0222,6.0481,6.0646,6.0811,6.1227,6.1832,6.1832,6.2199,6.2805,6.2805,6.2805,6.2805,6.2805,6.2805,6.2805,6.2805,6.2805,6.2805,0.0,0.0,0.0,0.0,0.0,0.0,0.0,0.0,4.4587,4.4587,4.4587,4.4587,4.4587,4.4587,4.4587,4.4587,4.4587,4.4587,4.4587,4.4587,4.4587,4.4587,4.4587,4.4587,4.4587,4.4587,4.4942,4.5703,4.6363,4.7056,4.78,4.8545,4.8883,4.8883,4.8968,4.8513,4.7737,4.7737,4.7306,4.6609,4.744,4.7737,4.7721,4.7556,4.8055,4.8748,4.8748,4.8748,4.8748,4.8748,4.8748,4.8748,4.8748,4.8748,4.8765,4.8849,4.8883,4.89,4.8984,4.9001,4.9001,4.9001,4.9001,4.9001,0.0,0.0,4.9965,4.9965,5.0557,5.1099,5.1099,5.115,5.142,5.208,5.2181,5.2469,5.3264,5.3365,5.3365,5.3365,5.3365,5.3399,5.3501,5.3501,5.3501,5.3501,5.3501,5.3568,5.3618,5.4228,5.4703,5.4887,5.5553,5.6013,5.6064,5.6824,5.7555,5.8299,5.9692,6.0775,6.1516,6.219,6.2585,6.2677,6.2677,6.2732,6.2805,6.2805,6.2805,6.2805,6.2805,6.2805,6.2805,6.2805,6.2805,6.2805,0.0,0.0,0.0,0.0,0.0,0.0,0.0,0.0,0.0,4.4587,4.4587,4.4587,4.4587,4.4587,4.4587,4.4587,4.4587,4.4587,4.4587,4.4587,4.4587,4.4587,4.4587,4.4587,4.4587,4.4587,4.5145,4.6346,4.665,4.7394,4.8562,4.8866,4.9001,4.9001,4.9001,4.8781,4.8433,4.8433,4.7868,4.702,4.744,4.7306,4.6815,4.7373,4.7523,4.744,4.8015,4.8161,0.0,4.8798,4.9001,4.9001,4.9001,4.9001,4.9001,4.9001,4.9001,4.9001,4.9001,4.9001,4.9103,4.9526,4.9644,4.9746,5.0185,5.0524,5.0744,5.0744,5.1336,5.1843,5.1843,5.2232,5.2655,0.0,5.301,5.3129,5.345,5.3501,5.3501,5.3501,5.3501,5.3501,5.3501,5.3501,5.3687,5.411,5.4143,5.4329,5.4769,5.5074,5.5416,5.5872,5.6592,5.7239,5.7729,5.8994,5.9745,6.0125,6.1227,6.1943,6.2324,6.2636,6.2805,6.2805,6.2805,6.2805,6.2805,6.2805,6.2805,6.2805,6.2805,6.2805,6.2805,6.2805,6.2805,6.2805,0.0,0.0,0.0,0.0,0.0,0.0,0.0,0.0,0.0,0.0,4.4587,4.4587,4.4587,4.4179,4.4064,4.457,4.4384,4.4253,4.4253,4.4457,4.4514,4.4253,4.4457,4.4587,4.4587,4.4587,4.5139,4.6152,4.6549,4.7308,4.8354,4.8759,4.9001,4.9001,4.8719,4.845,4.8225,4.795,4.7306,4.6454,4.6747,4.64,4.5905,4.6539,4.6539,4.64,4.7589,4.7803,4.7737,4.8656,4.9001,4.9001,4.9001,4.9001,4.9001,4.9001,4.9137,4.9357,4.956,4.961,4.9746,5.027,5.0388,5.0541,5.1099,5.1369,5.1522,5.1522,5.2114,5.2638,5.2638,5.3112,5.3501,5.3501,5.3501,5.3501,5.3501,5.3501,5.3501,5.3501,5.3687,5.3805,5.3805,5.3805,5.4025,5.4549,5.4786,5.5141,5.5683,5.5902,5.625,5.6744,5.7801,5.8559,5.9179,6.0594,6.1304,6.1304,6.2076,6.2446,6.2464,6.2705,6.2805,6.2805,6.2805,6.2805,6.2805,6.2805,6.2805,6.2805,6.2805,6.2805,6.2805,6.2805,6.2805,6.2805,0.0,0.0,0.0,0.0,0.0,0.0,0.0,0.0,0.0,0.0,0.0,0.0,0.0,4.3092,4.2769,4.444,4.3814,4.3366,4.3366,4.4138,4.4196,4.3366,4.4138,4.4587,4.4587,4.4587,4.4565,4.4455,4.6042,4.678,4.6697,4.8241,4.9001,4.894,4.808,4.7172,4.626,4.5285,4.4358,4.3551,4.451,4.4887,4.4887,4.4871,4.5431,4.6454,4.8289,4.837,4.7737,4.8656,4.9001,4.9001,4.9001,4.9001,4.9001,4.9001,4.9509,5.0219,5.0947,5.115,5.115,5.1183,5.1183,5.1183,5.1217,5.1758,5.2266,5.2266,5.2909,5.3467,5.3467,5.3484,5.3501,5.3501,5.3501,5.3501,5.3501,5.3501,5.3501,5.3501,5.4126,5.4566,0.0,5.4566,5.4566,5.4583,5.526,5.57,5.5716,5.6393,5.6765,5.6836,5.8256,5.9076,5.9076,6.0005,6.0414,6.0476,6.1247,6.1659,6.1659,6.2446,6.2805,6.2805,6.2805,6.2805,6.2805,6.2805,6.2805,6.2805,6.2805,6.2805,6.2805,6.2805,6.2805,6.2805,0.0,0.0,0.0,0.0,0.0,0.0,0.0,0.0,0.0,0.0,0.0,0.0,0.0,0.0,0.0,0.0,4.3169,4.3306,4.3306,4.3562,4.3873,4.4138,4.3873,4.4006,4.4587,4.4587,4.4811,4.5244,4.5807,4.6566,4.744,4.7408,4.7631,4.808,4.7737,4.744,4.7172,4.7456,4.6678,4.5327,4.626,4.5488,4.3927,4.5269,4.5122,4.454,0.0,4.7306,4.7655,4.7933,4.8497,4.9001,4.9001,4.934,4.983,5.0321,5.0642,5.0896,5.115,5.1217,5.1336,5.1809,5.1944,5.208,5.2604,5.2926,5.3095,5.3095,5.3315,5.3501,5.3501,5.3501,5.3501,5.3501,5.3501,5.3501,5.3501,5.3923,5.4228,5.4228,5.4888,0.0,0.0,0.0,0.0,5.6021,5.6292,5.6647,5.712,5.7391,5.7526,5.7526,5.8001,5.8317,5.8317,5.9128,5.9509,5.9556,6.092,6.1897,6.2394,6.2686,6.2805,6.2805,6.2805,6.2805,6.2805,6.2805,6.2805,6.2805,6.2805,6.2805,6.2805,6.2805,6.2805,6.2805,0.0,0.0,0.0,0.0,0.0,0.0,0.0,0.0,0.0,0.0,0.0,0.0,0.0,0.0,0.0,0.0,0.0,4.2395,4.2395,4.2645,4.297,4.3213,4.329,4.3426,4.368,4.4006,4.4164,4.4253,4.4913,4.5651,4.657,4.6836,4.7265,4.7714,4.7622,4.7589,4.7589,4.7539,4.6831,4.5706,4.5961,4.4958,4.3394,4.469,4.4615,0.0,4.5269,4.6539,4.7589,4.7589,4.8015,4.8627,4.9227,4.9898,5.0642,5.1386,5.1606,5.1674,5.1961,5.2029,5.2147,5.2621,5.2739,5.2858,5.3382,5.3501,5.3501,5.3501,5.3501,5.3501,5.3501,5.3501,5.3602,5.3856,5.389,5.3991,5.4262,5.4702,5.4989,5.4989,5.5649,5.6105,0.0,0.0,0.0,5.6782,5.7036,5.7391,5.7865,5.7881,5.7881,5.7881,5.8209,5.8317,5.8317,5.9128,5.9686,5.9988,6.1095,6.2023,6.2805,6.2805,6.2805,6.2805,6.2805,6.2805,6.2805,6.2805,6.2805,6.2805,6.2805,6.2805,6.2805,6.2805,6.2805,6.2805,0.0,0.0,0.0,0.0,0.0,0.0,0.0,0.0,0.0,0.0,0.0,0.0,0.0,0.0,0.0,0.0,0.0,0.0,4.069,4.1478,4.1609,4.0811,4.2316,4.2785,4.1997,4.2785,4.2734,4.1697,4.346,4.4217,4.4061,4.6441,4.7636,4.7676,4.752,4.7407,4.7306,4.5577,4.4796,4.4737,4.3849,4.3394,4.3329,4.3329,4.3927,4.4737,4.4737,4.585,4.7373,4.7523,4.7655,4.7935,4.9577,5.0608,5.1352,5.208,5.2334,5.2536,5.3298,5.3501,5.3501,5.3501,5.3501,5.3501,5.3501,5.3501,5.3501,5.3501,5.3501,5.3501,0.0,0.0,5.3737,5.4431,5.4566,5.4837,5.5564,5.5733,5.5784,0.0,0.0,0.0,0.0,0.0,0.0,5.6917,0.0,5.7881,5.7881,5.7881,5.7881,5.7881,5.8616,5.9061,5.9061,5.9832,6.07,6.1474,6.1474,6.1897,6.2686,6.2686,6.2705,6.2755,6.2755,6.2755,6.2805,6.2805,6.2805,6.2805,6.2805,6.2805,6.2805,6.2805,6.2805,6.2805,0.0,0.0,0.0,0.0,0.0,0.0,0.0,0.0,0.0,0.0,0.0,0.0,0.0,0.0,0.0,0.0,0.0,0.0,4.0743,4.0878,4.1213,4.1658,4.1478,4.1543,4.1997,4.2189,4.2222,4.1944,4.2398,4.288,4.3359,4.3301,4.3802,4.4872,4.4764,4.5072,4.5504,4.5778,4.5431,4.4812,4.5269,4.4615,4.3409,4.4143,4.4143,4.3708,4.3708,4.3974,4.475,4.6884,4.808,4.8837,4.9784,5.0608,5.1352,5.208,5.2723,5.3247,5.345,5.3501,5.3501,5.3501,5.3501,5.3501,5.3501,5.3501,5.3501,5.3501,5.3501,5.3501,5.3501,0.0,0.0,5.3754,5.4228,0.0,5.4854,5.5835,0.0,5.6528,0.0,5.7611,5.7611,5.778,0.0,0.0,5.778,5.7881,5.7881,5.7881,5.7881,5.7881,5.8065,5.8192,5.8192,5.8458,5.8943,5.9733,5.9733,6.0176,6.1015,6.1015,6.1361,6.1897,6.1897,6.2271,6.2805,6.2805,6.2805,6.2805,6.2805,6.2805,6.2805,6.2805,6.2805,6.2805,0.0,0.0,0.0,0.0,0.0,0.0,0.0,0.0,0.0,0.0,0.0,0.0,0.0,0.0,0.0,0.0,0.0,0.0,0.0,4.0115,4.0378,4.0842,4.0758,4.0758,4.0842,4.1213,4.137,4.1277,4.137,4.1759,4.2505,4.2789,4.3336,4.4086,4.4812,4.5098,4.5154,4.6011,4.5811,0.0,0.0,4.4915,4.3989,4.4066,4.3771,4.3329,4.3771,4.4479,4.553,4.7506,4.8795,4.961,5.0355,5.1099,5.1843,5.2604,5.3145,5.3501,5.3501,5.3501,5.3501,5.3501,5.3501,5.3501,5.3501,5.3501,5.3501,5.3501,5.3501,5.3602,5.3923,5.3721,5.3822,0.0,0.0,0.0,5.5953,5.6748,5.7273,0.0,5.7645,0.0,5.7881,5.7881,5.7881,0.0,5.7881,5.7881,5.7881,5.7881,5.7881,5.7881,5.7881,5.7881,5.7881,5.7881,5.8317,5.9111,5.9111,5.9574,6.0414,6.0414,6.082,6.1586,0.0,6.2076,6.2805,6.2805,6.2805,6.2805,6.2805,6.2805,6.2805,6.2805,6.2805,6.2805,0.0,0.0,0.0,0.0,0.0,0.0,0.0,0.0,0.0,0.0,4.3756,0.0,0.0,0.0,0.0,0.0,0.0,0.0,0.0,0.0,3.9424,3.9424,4.0115,4.0185,3.9424,4.0115,4.046,4.0277,4.046,4.0809,4.141,4.2975,4.3872,4.4128,4.5346,4.5616,4.5193,4.5636,4.5478,4.4833,4.4705,4.4659,4.451,0.0,4.3409,4.3394,4.4434,4.5921,4.7589,4.8513,4.9345,5.0067,5.0828,5.1572,5.2317,5.3112,5.3416,5.3501,5.3501,5.3501,5.3501,5.3501,5.3501,5.3501,5.3501,5.3501,5.3501,5.3501,5.3501,5.3737,5.4448,5.4076,5.4313,5.6325,0.0,5.6292,5.756,5.7831,5.7881,5.7881,5.7881,5.7881,5.7881,5.7881,5.7881,5.7881,5.7881,5.7881,5.7881,5.7881,5.7881,5.7881,5.7881,5.7881,5.7881,5.7881,5.8263,5.8925,5.8925,5.9328,6.0104,6.0104,6.058,6.1418,0.0,0.0,6.2805,6.2805,6.2805,6.2805,6.2805,6.2805,6.2805,6.2805,6.2805,6.2805,0.0,0.0,0.0,0.0,0.0,0.0,0.0,0.0,0.0,0.0,4.3366,4.3246,0.0,0.0,0.0,0.0,0.0,0.0,0.0,0.0,0.0,3.9424,3.9538,3.9538,3.9424,3.9538,3.9598,3.9589,3.9598,3.967,3.979,4.0102,4.0924,4.2144,4.1727,4.2153,4.3161,4.2529,4.2484,4.2925,4.3676,4.3776,4.363,4.4297,0.0,0.0,4.4434,4.5504,4.6609,4.7523,4.8436,4.9323,5.005,5.0811,5.1555,5.23,5.2993,5.3501,5.3501,5.3501,5.3501,5.3501,5.3501,5.3501,5.3501,5.3501,5.3501,5.3501,5.3501,5.3737,5.4448,5.4482,5.4735,5.575,5.6292,5.6697,5.6951,5.7509,5.7881,0.0,5.7881,5.7881,5.7881,5.7881,0.0,0.0,0.0,5.7881,5.7881,5.7881,5.7881,5.7881,5.7881,5.7881,5.7881,5.7881,5.7954,5.8137,5.8137,5.8209,5.8334,5.8334,5.9145,6.0598,6.0598,0.0,6.2805,6.2805,6.2805,6.2805,6.2805,6.2805,6.2805,6.2805,6.2805,6.2805,0.0,0.0,0.0,0.0,0.0,0.0,0.0,4.3621,4.3108,4.2707,4.2645,4.2645,4.2645,4.2252,4.1609,0.0,0.0,0.0,0.0,0.0,0.0,4.006,3.961,3.9424,3.9424,3.9424,3.9424,3.9424,0.0,3.9424,3.9424,3.9864,4.0493,4.1202,4.1202,4.1372,4.1713,4.2124,4.2196,4.2218,4.3333,4.3738,4.364,4.4447,0.0,0.0,4.4662,4.5431,4.6314,4.7306,4.8225,4.9204,5.0321,5.093,5.1454,5.2587,5.3196,5.3501,5.3501,5.3501,5.3501,5.3501,5.3501,5.3501,5.3501,5.3501,5.3501,5.3501,5.3805,5.4296,5.504,5.5175,5.5547,5.6664,5.6816,5.6934,5.7306,5.7679,5.7881,5.7881,5.7881,5.7881,5.7881,5.7881,0.0,0.0,0.0,5.7881,5.7881,5.7881,5.7881,5.7881,5.7881,5.7881,5.7881,5.7881,5.7881,5.7881,5.7881,5.7881,5.7881,5.8317,5.9195,6.0414,6.082,0.0,6.2805,6.2805,6.2805,6.2805,6.2805,6.2805,6.2805,6.2805,6.2805,6.2805,0.0,0.0,0.0,0.0,0.0,0.0,0.0,4.3621,4.2909,4.1869,4.1739,4.1739,4.1739,4.1739,4.1147,0.0,0.0,0.0,0.0,0.0,0.0,0.0,0.0,0.0,3.9409,0.0,0.0,3.9424,3.9424,0.0,0.0,0.0,0.0,0.0,4.1412,4.1346,4.0789,4.1846,4.1972,0.0,0.0,4.3422,0.0,0.0,0.0,0.0,0.0,4.5706,4.6592,4.7373,4.8225,4.9272,5.0744,5.1217,5.1522,5.3061,5.3501,5.3501,5.3501,5.3501,5.3501,5.3501,5.3501,5.3501,5.3501,5.3501,5.3501,5.3501,5.4093,5.482,5.5581,5.5852,5.6376,5.7679,5.7408,5.7239,5.7814,5.7881,5.7881,5.7881,5.7881,0.0,5.7881,5.7881,0.0,0.0,0.0,0.0,5.7881,5.7881,5.7881,5.7881,5.7881,5.7881,5.7881,5.7881,5.7881,5.7881,5.7881,5.7881,5.7954,5.8564,5.9328,6.0149,6.082,0.0,0.0,6.2567,6.2636,6.2805,6.2805,6.2805,6.2805,6.2805,6.2805,6.2805,0.0,0.0,0.0,0.0,0.0,0.0,0.0,4.2847,4.2707,4.1013,4.0811,4.0811,4.0811,4.0811,4.0758,0.0,0.0,0.0,0.0,0.0,0.0,0.0,0.0,0.0,0.0,0.0,0.0,3.9424,0.0,0.0,0.0,0.0,0.0,0.0,0.0,4.0743,4.069,3.9996,0.0,0.0,0.0,0.0,0.0,0.0,0.0,0.0,0.0,4.6678,4.7456,4.7589,4.8225,4.9272,5.0744,5.1217,5.1522,5.3061,5.3501,5.3501,5.3501,5.3501,5.3501,5.3501,5.3501,5.3501,5.3501,5.3501,5.3501,5.3501,5.4093,5.482,5.5581,5.6258,5.6968,5.7763,5.7831,5.7814,5.7881,5.7881,5.7881,5.7881,5.7881,5.7881,5.7881,5.7881,0.0,0.0,0.0,0.0,5.7881,5.7881,5.7881,5.7881,5.7881,5.7881,5.7881,5.7881,5.7881,5.7881,5.7881,5.7881,5.7881,5.7954,5.8441,5.9245,5.9346,0.0,0.0,6.1715,6.2148,6.2805,6.2805,6.2805,6.2805,6.2805,6.2805,6.2805,0.0,0.0,0.0,0.0,0.0,0.0,4.297,4.2645,4.2062,4.0878,4.0239,3.992,3.992,3.992,3.992,3.992,0.0,0.0,0.0,0.0,0.0,0.0,0.0,0.0,0.0,0.0,3.9424,3.9424,3.9424,0.0,0.0,0.0,0.0,0.0,0.0,0.0,4.069,4.0309,0.0,0.0,0.0,0.0,0.0,0.0,0.0,0.0,0.0,0.0,4.7506,4.6952,4.7737,4.9272,5.0744,5.1217,5.1522,5.3061,5.3501,5.3501,5.3501,5.3501,5.3501,5.3501,5.3501,5.3501,5.3501,5.3501,5.3501,5.3501,5.4448,5.5361,5.5666,5.6681,5.7543,5.7831,5.7881,5.7881,5.7881,5.7881,5.7881,5.7881,5.7881,0.0,0.0,0.0,0.0,0.0,0.0,0.0,5.7881,5.7881,5.7881,5.7881,5.7881,5.7881,5.7881,5.7881,5.7881,5.7881,5.7881,5.7881,5.7881,5.837,5.8806,5.9111,5.9656,0.0,0.0,6.1418,6.1788,6.2148,6.2636,6.2805,6.2805,6.2805,6.2805,6.2805,0.0,0.0,0.0,0.0,0.0,4.4327,4.3426,4.2583,4.1674,4.0811,3.992,3.9424,3.9424,3.9424,3.9424,3.9424,3.9424,0.0,0.0,0.0,0.0,0.0,0.0,0.0,0.0,0.0,3.9793,3.9793,3.9553,3.9424,0.0,0.0,0.0,0.0,0.0,0.0,0.0,0.0,0.0,0.0,0.0,0.0,0.0,0.0,0.0,0.0,0.0,0.0,0.0,0.0,0.0,4.9272,5.0744,5.1217,5.1522,5.3061,5.3501,5.3501,5.3501,5.3501,5.3501,5.3501,5.3501,5.3501,5.3501,5.3501,5.3501,5.3501,5.4499,5.5446,5.5683,5.6731,5.7645,5.7848,5.7881,5.7881,5.7881,5.7881,5.7881,5.7881,0.0,5.7881,0.0,0.0,0.0,0.0,0.0,0.0,0.0,5.7881,5.7881,5.7881,5.7881,5.7881,5.7881,5.7881,5.7881,5.7881,5.7881,5.7881,5.7881,5.8511,5.8755,5.8806,0.0,0.0,0.0,6.0997,6.1548,6.2023,6.2567,6.2805,6.2805,6.2805,6.2805,6.2805,0.0,0.0,0.0,0.0,0.0,0.0,4.3426,4.2583,4.1674,4.0811,3.992,3.9424,3.9424,3.9424,3.9424,3.9424,3.9424,0.0,0.0,0.0,0.0,0.0,0.0,0.0,0.0,0.0,4.069,4.069,3.9793,3.9424,3.9409,4.0309,4.0239,0.0,0.0,0.0,0.0,0.0,0.0,0.0,0.0,0.0,0.0,0.0,0.0,0.0,0.0,0.0,0.0,0.0,0.0,0.0,0.0,5.1217,5.1522,5.3061,5.3501,5.3501,5.3501,5.3501,5.3501,5.3501,5.3501,5.3501,5.3501,5.3501,5.3501,5.3501,5.4093,5.482,5.5581,5.6325,5.7053,5.7763,5.7881,5.7881,5.7881,5.7881,5.7881,5.7881,0.0,5.7881,5.7881,0.0,0.0,0.0,0.0,0.0,0.0,5.7881,5.7881,5.7881,5.7881,5.7881,5.7881,5.7881,5.7881,5.7881,5.7881,5.7881,5.7881,5.7881,5.7881,0.0,0.0,0.0,0.0,6.0414,6.1379,6.2823,6.2823,6.2805,6.2805,6.2805,6.2805,6.2805,0.0,0.0,0.0,0.0,0.0,0.0,0.0,4.2583,4.1674,4.0811,3.992,3.9424,3.9424,3.9424,3.9424,3.9424,3.992,0.0,0.0,0.0,0.0,0.0,0.0,0.0,0.0,0.0,4.069,4.069,4.0432,4.0309,4.0309,3.999,3.9666,3.9409,0.0,0.0,0.0,0.0,0.0,0.0,0.0,0.0,0.0,0.0,0.0,0.0,0.0,0.0,0.0,0.0,0.0,0.0,0.0,0.0,0.0,5.2401,5.3078,5.3501,5.3501,5.3501,5.3501,5.3501,5.3501,5.3501,5.3501,5.3501,5.3501,5.3501,5.4093,5.482,5.5581,5.6308,5.7036,5.7763,5.7881,5.7881,5.7881,5.7881,5.7881,5.7881,5.7881,5.7881,0.0,0.0,0.0,0.0,0.0,0.0,0.0,5.7881,5.7881,5.7881,5.7881,5.7881,5.7881,5.7881,5.7881,5.7881,5.7881,5.7881,5.7881,5.7881,0.0,0.0,0.0,0.0,0.0,6.0149,6.0997,6.2023,6.2585,6.2805,6.2805,6.2805,6.2805,6.2805,0.0,0.0,0.0,0.0,0.0,0.0,0.0,4.3031,4.2189,4.1264,4.0447,3.9737,3.9424,3.9424,3.9424,3.9424,4.0185,0.0,0.0,0.0,0.0,0.0,0.0,0.0,4.1997,4.1478,4.1213,4.1213,4.0878,4.069,4.069,4.0115,3.9864,3.9935,4.0115,4.0185,0.0,0.0,0.0,0.0,0.0,0.0,4.0472,0.0,0.0,0.0,0.0,0.0,0.0,0.0,0.0,0.0,0.0,0.0,0.0,0.0,5.2875,5.3501,5.3501,5.3501,5.3501,5.3501,5.3501,5.3501,5.3501,5.3501,5.3501,5.3501,5.3873,5.4499,5.553,5.6089,5.6731,5.7729,5.7881,5.7881,5.7881,5.7881,0.0,5.7881,0.0,0.0,0.0,0.0,0.0,0.0,0.0,0.0,0.0,5.7881,5.7881,5.7881,5.7881,5.7881,5.7881,5.7881,5.7881,5.7881,5.7881,5.7881,5.7881,5.7881,0.0,0.0,0.0,0.0,0.0,6.0166,6.1073,6.2076,6.2618,6.2805,6.2805,6.2805,6.2805,6.2805,0.0,0.0,0.0,0.0,0.0,0.0,0.0,4.3873,4.2986,4.2189,4.128,4.0363,3.961,3.9424,3.9424,3.9424,0.0,0.0,0.0,0.0,0.0,0.0,0.0,0.0,4.1997,4.2062,4.2062,4.1997,4.1213,4.0758,4.069,4.069,4.069,4.0554,3.9793,3.9481,0.0,0.0,0.0,0.0,0.0,0.0,0.0,0.0,0.0,0.0,0.0,0.0,0.0,0.0,0.0,0.0,0.0,0.0,0.0,0.0,0.0,0.0,0.0,5.3501,5.3501,5.3501,5.3501,5.3501,5.3501,5.3501,0.0,5.3501,5.3501,5.394,5.5378,5.5683,5.6173,5.7577,5.7865,5.7881,5.7881,5.7881,0.0,0.0,5.7881,0.0,0.0,0.0,0.0,0.0,0.0,0.0,0.0,5.7881,5.7881,5.7881,5.7881,5.7881,5.7881,5.7881,5.7881,5.7881,5.7881,5.7881,5.7881,5.7881,0.0,0.0,0.0,0.0,0.0,6.0291,6.1247,6.2686,6.2686,6.2755,6.2805,6.2805,6.2805,6.2805,0.0,0.0,0.0,0.0,0.0,0.0,0.0,0.0,0.0,0.0,4.1674,4.0622,4.0432,3.9793,3.9424,0.0,0.0,0.0,0.0,0.0,0.0,0.0,0.0,0.0,4.1997,4.2645,4.2661,4.1997,4.1788,4.1346,4.069,4.069,4.0363,3.9737,4.0185,4.0363,0.0,0.0,0.0,0.0,0.0,0.0,0.0,0.0,0.0,0.0,4.5104,4.5106,0.0,0.0,0.0,0.0,0.0,0.0,0.0,0.0,5.1995,5.2723,5.3331,0.0,5.3501,5.3501,5.3501,5.3501,0.0,5.3501,5.3501,5.3501,5.3501,5.3788,5.4685,5.5327,5.6004,5.6917,5.7526,5.7881,5.7881,5.7881,0.0,0.0,0.0,0.0,0.0,0.0,0.0,0.0,0.0,0.0,0.0,5.7881,5.7881,5.7881,5.7881,5.7881,5.7881,5.7881,5.7881,5.7881,5.7881,5.7881,5.7881,5.7881,0.0,0.0,0.0,0.0,5.9377,5.9377,6.0361,6.1897,6.1897,6.2271,6.2805,6.2805,6.2805,6.2805,0.0,0.0,0.0,0.0,0.0,0.0,0.0,0.0,0.0,0.0,0.0,4.1147,4.0743,3.992,0.0,0.0,0.0,0.0,0.0,0.0,0.0,0.0,0.0,4.0946,4.1412,4.2252,4.2458,4.1997,4.1997,4.1739,4.128,4.128,4.1013,4.0585,4.069,4.05,0.0,0.0,0.0,0.0,3.9809,0.0,0.0,0.0,0.0,0.0,4.4693,4.5003,0.0,4.7868,4.8015,4.7088,0.0,0.0,0.0,0.0,5.1725,5.2486,5.3281,5.3501,5.3501,5.3501,5.3501,5.3501,5.3501,5.3501,5.3501,5.3501,5.3501,5.3737,5.4448,5.5209,5.5953,5.6681,5.7408,5.7881,5.7881,0.0,5.7881,5.7881,0.0,0.0,0.0,0.0,0.0,0.0,0.0,0.0,0.0,5.7881,5.7881,5.7881,5.7881,5.7881,5.7881,5.7881,5.7881,5.7881,5.7881,5.7881,5.7881,5.7881,5.7881,0.0,0.0,0.0,5.9111,5.9111,6.0113,6.1586,6.1586,6.2076,6.2805,6.2805,6.2805,6.2805,0.0,0.0,0.0,0.0,0.0,0.0,0.0,0.0,0.0,0.0,0.0,0.0,0.0,0.0,0.0,0.0,0.0,0.0,0.0,0.0,0.0,0.0,4.108,4.069,4.069,4.1543,4.1933,4.1788,4.1788,4.1739,4.1609,4.1739,4.1788,4.1739,4.0894,4.0115,0.0,0.0,0.0,0.0,3.9481,0.0,0.0,0.0,0.0,0.0,0.0,0.0,0.0,4.7885,4.8225,4.7737,4.8719,0.0,0.0,0.0,0.0,0.0,5.3264,5.3501,5.3501,5.3501,5.3501,5.3501,5.3501,5.3501,5.3501,5.3501,5.3501,5.3687,5.4313,5.5141,0.0,5.6528,5.734,5.7881,5.7881,5.7881,5.7881,0.0,0.0,0.0,0.0,0.0,0.0,0.0,0.0,0.0,0.0,5.7881,5.7881,5.7881,5.7881,5.7881,5.7881,5.7881,5.7881,5.7881,5.7881,5.7881,5.7881,5.7881,5.7881,0.0,0.0,0.0,5.8943,5.9061,5.9988,6.1418,6.153,6.2076,6.2805,6.2805,6.2805,6.2805,0.0,0.0,0.0,0.0,0.0,0.0,0.0,0.0,0.0,0.0,0.0,0.0,0.0,0.0,0.0,0.0,0.0,0.0,0.0,0.0,0.0,4.0894,4.0743,4.069,4.069,4.1543,4.1674,4.0878,4.0878,4.05,3.9809,4.0569,4.0878,4.0878,3.999,3.9553,3.9424,3.9424,0.0,0.0,0.0,0.0,0.0,0.0,0.0,0.0,0.0,0.0,0.0,4.7104,4.7737,4.7737,4.8719,0.0,0.0,0.0,0.0,0.0,5.3112,5.3501,5.3501,5.3501,5.3501,5.3501,5.3501,5.3501,5.3501,5.3501,5.3501,5.3534,5.3653,5.4786,5.575,0.0,0.0,5.7881,0.0,0.0,0.0,0.0,0.0,0.0,0.0,0.0,0.0,0.0,0.0,0.0,0.0,5.7881,5.7881,5.7881,5.7881,5.7881,5.7881,5.7881,5.7881,5.7881,5.7881,5.7881,5.7881,5.7881,5.7881,0.0,0.0,5.7954,5.8137,5.8806,5.9686,6.064,6.1361,6.2076,6.2805,6.2805,6.2805,6.2805,0.0,0.0,0.0,0.0,0.0,0.0,0.0,0.0,0.0,0.0,0.0,0.0,0.0,0.0,0.0,0.0,0.0,0.0,0.0,0.0,3.961,3.999,3.999,3.999,3.999,4.128,4.1593,4.069,4.1147,4.0961,4.0115,4.0485,4.069,4.069,4.0309,3.9864,3.9424,3.9424,3.961,3.999,0.0,0.0,0.0,0.0,0.0,0.0,0.0,0.0,0.0,0.0,4.795,4.8433,4.8861,0.0,0.0,0.0,0.0,0.0,5.2553,5.3179,5.3501,5.3501,5.3501,5.3501,5.3501,5.3501,5.3501,5.3501,5.3501,5.3501,5.3501,0.0,5.5378,5.6173,0.0,0.0,0.0,0.0,0.0,0.0,0.0,0.0,0.0,0.0,0.0,0.0,0.0,0.0,0.0,0.0,5.7881,5.7881,5.7881,5.7881,5.7881,5.7881,5.7881,5.7881,5.7881,5.7881,5.7881,5.7881,5.7881,5.7954,0.0,5.8317,5.801,5.9262,6.0023,6.0476,6.1304,6.2076,6.2805,6.2805,6.2805,6.2805,0.0,0.0,0.0,0.0,0.0,0.0,0.0,0.0,0.0,0.0,0.0,0.0,0.0,0.0,0.0,0.0,0.0,0.0,0.0,3.9424,3.9424,3.9424,3.9424,3.9424,3.9424,4.0706,4.1095,4.0363,4.1095,4.1028,4.0363,4.0363,4.0363,4.0363,4.0363,4.006,3.9424,3.9424,3.9424,3.9424,0.0,0.0,0.0,0.0,0.0,0.0,0.0,0.0,0.0,0.0,0.0,0.0,0.0,0.0,0.0,4.9864,5.0625,5.1369,5.2097,5.2892,5.3501,5.3501,5.3501,5.3501,5.3501,5.3501,5.3501,5.3501,5.3501,5.3501,0.0,5.4245,0.0,0.0,0.0,0.0,0.0,0.0,0.0,0.0,0.0,0.0,0.0,0.0,0.0,0.0,0.0,0.0,0.0,0.0,5.7881,5.7881,5.7881,5.7881,5.7881,5.7881,5.7881,5.7881,5.7881,5.7881,5.7881,5.7881,5.7881,5.7954,5.8755,5.8755,5.8317,6.0023,6.07,6.076,6.1548,6.2271,6.2805,6.2805,6.2805,6.2805,0.0,0.0,0.0,0.0,0.0,0.0,0.0,0.0,0.0,0.0,0.0,0.0,0.0,0.0,0.0,0.0,0.0,0.0,0.0,3.9424,3.9424,3.9424,3.9424,3.9424,3.9424,3.9553,3.9553,3.9481,3.9553,3.9553,3.9481,3.9481,3.9481,3.9481,3.9481,3.9481,3.9424,3.9424,3.9424,3.9424,3.9424,0.0,0.0,0.0,0.0,0.0,0.0,0.0,0.0,0.0,0.0,0.0,0.0,0.0,4.9137,4.9864,5.0625,5.1369,5.2097,5.2892,5.3501,5.3501,5.3501,5.3501,5.3501,5.3501,5.3501,5.3501,0.0,0.0,0.0,5.4668,5.5886,0.0,0.0,0.0,0.0,0.0,0.0,0.0,0.0,0.0,0.0,0.0,0.0,0.0,0.0,0.0,0.0,0.0,0.0,5.7881,5.7881,5.7881,5.7881,5.7881,5.7881,5.7881,5.7881,5.7881,5.7881,5.7881,5.7881,5.7954,5.8755,5.9044,5.9111,6.0784,6.153,6.1586,6.2394,6.2755,6.2805,6.2805,6.2805,6.2805,0.0,0.0,0.0,0.0,0.0,0.0,0.0,0.0,0.0,0.0,0.0,0.0,0.0,0.0,0.0,0.0,0.0,0.0,0.0,3.9424,3.9424,3.9424,3.9424,3.9424,3.9424,3.992,3.992,3.9424,3.9424,3.9424,3.9424,3.9424,3.9424,3.9424,3.9424,3.9424,3.9424,3.9424,3.9424,3.9424,3.9424,3.9664,0.0,0.0,0.0,0.0,0.0,0.0,0.0,0.0,4.6815,4.7737,4.8719,4.9001,4.9052,4.9323,5.027,5.1268,5.1555,5.2553,5.3501,5.3501,5.3501,5.3501,0.0,5.3501,5.3501,5.3501,5.3501,0.0,0.0,0.0,5.526,0.0,0.0,0.0,0.0,0.0,0.0,0.0,0.0,0.0,0.0,0.0,0.0,0.0,0.0,0.0,0.0,0.0,0.0,5.7881,5.7881,5.7881,5.7881,5.7881,5.7881,5.7881,5.7881,5.7881,5.7881,5.8441,5.837,5.7954,5.9328,5.9574,5.9227,6.092,6.1586,6.1659,6.2515,6.2805,6.2805,6.2805,6.2805,6.2805,0.0,0.0,0.0,0.0,0.0,0.0,0.0,0.0,0.0,0.0,0.0,0.0,0.0,0.0,0.0,0.0,0.0,0.0,3.9424,3.9424,3.9424,3.9424,3.9424,3.9424,3.9424,3.999,3.999,3.9424,3.9424,3.9424,3.9424,3.9424,3.9424,3.9424,3.9424,3.9424,3.9424,3.9424,3.9424,3.9439,3.9649,3.9993,0.0,0.0,0.0,0.0,0.0,0.0,0.0,0.0,4.6609,4.7373,4.8576,4.9001,4.9001,4.9001,5.005,5.1217,5.1217,5.2334,5.3501,5.3501,5.3501,5.3501,5.3501,5.3501,5.3501,5.3501,5.3501,5.3501,5.3501,0.0,0.0,0.0,0.0,0.0,0.0,0.0,0.0,0.0,0.0,0.0,0.0,0.0,0.0,0.0,0.0,0.0,0.0,0.0,0.0,0.0,5.7881,5.7881,5.7881,5.7881,5.7881,5.7881,5.7881,5.7881,5.7954,5.8737,5.8806,5.8388,6.0068,6.044,5.9988,6.14,6.1969,6.2023,6.2585,6.2805,6.2805,6.2805,6.2805,6.2805,0.0,0.0,0.0,0.0,0.0,0.0,0.0,0.0,0.0,0.0,0.0,0.0,0.0,0.0,0.0,0.0,0.0,0.0,3.9424,3.9424,3.9424,3.9424,3.9424,3.9424,3.9424,3.9424,3.9424,3.9424,3.9424,3.9424,3.9424,3.9424,3.9424,3.9424,3.9424,3.9424,3.9424,3.9424,3.9424,3.9484,4.0142,4.0412,4.0561,0.0,0.0,0.0,0.0,0.0,0.0,0.0,4.6173,4.6523,4.837,4.9001,4.9001,4.9001,5.005,5.1217,5.1217,5.2334,5.3501,5.3501,0.0,0.0,5.3501,5.3501,5.3501,5.3501,5.3501,5.3501,5.3501,0.0,0.0,0.0,0.0,0.0,0.0,0.0,0.0,0.0,0.0,0.0,0.0,0.0,0.0,0.0,0.0,0.0,0.0,0.0,0.0,0.0,5.7881,5.7881,5.7881,5.7881,5.7881,5.7881,5.7881,5.7881,5.7954,5.8755,5.9111,5.9178,6.0843,6.1586,6.1659,6.2446,6.2805,6.2805,6.2805,6.2805,6.2805,6.2805,6.2805,6.2805,0.0,0.0,0.0,0.0,0.0,0.0,0.0,0.0,0.0,0.0,0.0,0.0,0.0,0.0,0.0,0.0,0.0,0.0,3.9424,3.9424,3.9424,3.9424,3.9424,3.9424,3.9424,3.9424,3.9424,3.9424,3.9424,3.9424,3.9424,3.9424,3.9424,3.9424,3.9424,3.9424,3.9424,3.9424,3.9694,4.0127,4.0322,4.095,4.1818,0.0,0.0,0.0,0.0,0.0,0.0,0.0,0.0,0.0,4.7456,4.8015,4.8144,4.8798,5.005,5.1217,5.1217,5.2334,0.0,5.3501,0.0,0.0,0.0,5.3501,0.0,0.0,5.3501,5.3501,5.3501,0.0,0.0,0.0,0.0,0.0,0.0,0.0,0.0,0.0,0.0,0.0,0.0,0.0,0.0,0.0,0.0,0.0,0.0,0.0,0.0,0.0,5.7881,5.7881,5.7881,5.7881,5.7881,5.7881,5.7881,5.7881,5.7954,5.9394,5.9704,5.9178,6.0843,6.1586,6.1659,6.2446,6.2805,6.2805,6.2805,6.2805,6.2805,6.2805,6.2805,6.2805,0.0,0.0,0.0,0.0,0.0,0.0,0.0,0.0,0.0,0.0,3.9424,3.9424,0.0,0.0,0.0,0.0,0.0,0.0,0.0,3.9424,3.9424,3.9424,3.9424,3.9424,3.9424,3.9424,3.9424,3.9424,3.9424,3.9424,3.9424,3.9424,3.9424,3.9424,3.9424,3.9424,3.9439,3.9694,4.0038,4.0442,4.0965,4.1654,4.2387,0.0,0.0,0.0,0.0,0.0,0.0,0.0,0.0,0.0,4.7036,4.7589,4.7803,4.8719,5.005,5.1217,5.1217,5.2334,0.0,5.3501,5.3501,5.3501,5.3501,0.0,0.0,0.0,0.0,5.3501,5.3501,0.0,0.0,0.0,0.0,0.0,0.0,0.0,0.0,0.0,0.0,0.0,0.0,0.0,0.0,0.0,0.0,0.0,0.0,0.0,0.0,0.0,5.7881,5.7881,5.7881,5.7881,5.7881,5.7881,5.8192,5.8388,5.8441,5.9768,6.0273,6.0176,6.153,6.2094,6.2076,6.2567,6.2805,6.2805,6.2805,6.2805,6.2805,6.2805,6.2805,6.2805,0.0,0.0,0.0,0.0,0.0,0.0,0.0,0.0,0.0,0.0,3.9424,3.9424,0.0,0.0,0.0,0.0,0.0,0.0,0.0,3.9424,3.9424,3.9424,3.9424,3.9424,3.9424,3.9424,3.9424,3.9424,3.9424,3.9424,3.9424,3.9424,3.9424,3.9424,3.9424,3.9454,3.9544,4.0142,4.0472,4.0681,4.1878,4.2387,4.2506,4.3105,0.0,0.0,0.0,0.0,0.0,0.0,0.0,0.0,4.6884,4.744,4.7655,4.8719,5.005,5.1217,5.1217,5.2334,5.3501,5.3501,5.3501,0.0,5.3501,5.3501,5.3501,5.3501,0.0,5.3501,0.0,0.0,0.0,0.0,0.0,0.0,0.0,0.0,0.0,0.0,0.0,0.0,0.0,0.0,0.0,0.0,0.0,0.0,0.0,0.0,0.0,5.7881,5.7881,5.7881,5.7881,5.7881,5.7881,0.0,5.8616,5.9061,5.9111,6.0086,6.0956,6.177,6.2394,6.2755,6.2805,6.2705,6.2755,6.2805,6.2805,6.2805,6.2805,6.2805,6.2805,6.2805,0.0,0.0,0.0,0.0,0.0,0.0,0.0,0.0,0.0,0.0,0.0,0.0,0.0,0.0,0.0,0.0,0.0,0.0,0.0,3.9424,3.9424,3.9424,3.9424,3.9424,3.9424,3.9424,3.9424,3.9424,3.9424,3.9424,3.9424,3.9424,3.9424,3.9424,3.9424,3.9709,4.0202,4.0337,4.0995,4.1968,4.2252,4.2671,4.3135,4.3284,4.3329,0.0,0.0,0.0,0.0,0.0,0.0,0.0,4.5889,4.6523,4.6815,4.8513,5.005,5.1217,5.1217,5.2334,5.3501,5.3501,5.3501,5.3501,5.3501,5.3501,5.3501,5.3501,5.3501,0.0,0.0,0.0,0.0,0.0,0.0,0.0,0.0,0.0,0.0,0.0,0.0,0.0,0.0,0.0,0.0,0.0,0.0,0.0,0.0,0.0,0.0,5.7881,5.7881,5.7881,5.7881,5.7881,5.7881,0.0,5.8082,5.8511,5.9178,6.0665,6.1788,6.2515,6.2076,6.22,6.2755,6.2148,6.22,6.2805,6.2805,6.2805,6.2805,6.2805,6.2805,6.2805,0.0,0.0,0.0,0.0,0.0,0.0,0.0,0.0,0.0,0.0,0.0,0.0,0.0,0.0,0.0,0.0,0.0,0.0,0.0,0.0,3.9424,3.9424,3.9424,3.9424,3.9424,3.9424,3.9424,3.9424,3.9424,3.9424,3.9424,3.9424,3.9424,3.9424,3.9753,4.0083,4.0442,4.107,4.1728,4.2387,4.2701,4.303,4.3329,4.3329,4.3329,4.3329,4.3329,0.0,0.0,0.0,0.0,0.0,0.0,0.0,4.6592,4.8433,5.005,5.1217,5.1217,5.2334,5.3501,5.3501,0.0,5.3501,5.3501,5.3501,5.3501,5.3501,5.3501,0.0,0.0,0.0,0.0,0.0,0.0,0.0,0.0,0.0,0.0,0.0,0.0,0.0,0.0,0.0,0.0,0.0,0.0,0.0,0.0,5.7881,5.7881,5.7881,5.7881,5.7881,5.7881,5.7881,5.7881,5.7881,5.8317,5.8943,5.9768,6.064,6.1247,6.1677,6.1604,6.1604,6.1677,6.2023,6.22,6.2253,6.2636,6.2805,6.2805,6.2805,6.2805,6.2805,0.0,0.0,0.0,0.0,0.0,0.0,0.0,0.0,0.0,0.0,0.0,0.0,0.0,0.0,0.0,0.0,0.0,0.0,0.0,0.0,0.0,3.9424,3.9424,3.9424,3.9424,3.9424,3.9424,3.9424,3.9424,3.9424,3.9424,3.9424,3.9484,3.9619,4.0157,4.0531,4.0816,4.1893,4.2432,4.2581,4.312,4.3329,4.3329,4.3329,4.3329,4.3329,4.3329,4.3329,4.3329,4.3329,0.0,0.0,0.0,0.0,4.6592,4.8433,5.005,5.1217,5.1217,5.2334,5.3501,5.3501,5.3501,0.0,5.3501,5.3501,5.3501,5.3501,0.0,0.0,0.0,0.0,0.0,0.0,0.0,0.0,0.0,0.0,0.0,0.0,0.0,0.0,0.0,0.0,0.0,0.0,0.0,0.0,5.7881,5.7881,5.7881,5.7881,5.7881,5.7881,5.7881,5.7881,5.7881,5.7881,5.8564,5.9262,5.9977,5.9977,6.0104,6.0414,6.092,6.092,6.0718,6.1915,6.2148,6.1897,6.2567,6.2805,6.2805,6.2805,6.2805,6.2805,0.0,0.0,0.0,0.0,0.0,0.0,0.0,0.0,0.0,0.0,3.9424,0.0,0.0,0.0,0.0,0.0,0.0,0.0,3.9424,0.0,0.0,3.9424,3.9424,3.9424,3.9424,3.9424,3.9424,3.9424,3.9424,3.9424,3.9424,3.9424,3.9723,4.0277,4.0367,4.104,4.2117,4.2282,4.2686,4.321,4.3299,4.3329,4.3329,4.3329,4.3329,4.3329,4.3329,4.3329,4.3329,4.3329,4.3329,0.0,0.0,0.0,4.6592,4.8433,5.005,5.1217,5.1217,5.2334,5.3501,5.3501,5.3501,5.3501,0.0,0.0,5.3501,0.0,0.0,0.0,0.0,0.0,0.0,0.0,0.0,0.0,0.0,0.0,0.0,0.0,0.0,0.0,0.0,0.0,0.0,0.0,0.0,0.0,5.7881,5.7881,5.7881,5.7881,5.7881,5.7881,5.7881,5.7881,5.7881,5.7881,5.801,5.8137,5.8209,5.8209,5.9028,6.0353,5.9686,6.0176,6.1418,6.0956,6.1492,6.2636,6.2755,6.2805,6.2805,6.2805,6.2805,6.2805,0.0,0.0,0.0,0.0,0.0,0.0,0.0,0.0,0.0,0.0,0.0,3.9424,0.0,0.0,0.0,3.9424,3.9424,3.9424,3.9424,3.9424,3.9424,3.9424,3.9424,3.9424,3.9424,3.9424,3.9424,3.9424,3.9424,3.9424,3.9424,3.9798,4.0127,4.0412,4.0786,4.1474,4.2387,4.2746,4.3075,4.3329,4.3329,4.3329,4.3329,4.3329,4.3329,4.3329,4.3329,4.3329,4.3329,4.3329,4.3329,4.3551,4.4989,0.0,0.0,0.0,4.9617,5.1403,5.2266,5.2993,5.3501,5.3501,5.3501,5.3501,5.3501,5.3501,5.3501,5.3501,0.0,0.0,0.0,0.0,0.0,0.0,0.0,0.0,0.0,0.0,0.0,0.0,0.0,0.0,0.0,0.0,0.0,0.0,0.0,5.7881,5.7881,5.7881,5.7881,5.7881,5.7881,5.7881,5.7881,5.7881,5.7881,5.7881,5.7881,5.7881,5.7881,5.7881,5.8334,5.9028,5.9591,5.9942,6.03,6.1304,6.1915,6.2148,6.2636,6.2805,6.2805,6.2805,6.2805,6.2805,0.0,0.0,0.0,0.0,0.0,0.0,0.0,0.0,0.0,0.0,0.0,0.0,0.0,0.0,0.0,0.0,3.9424,3.9424,3.9424,3.9424,3.9424,3.9424,3.9424,3.9424,3.9424,3.9424,3.9424,3.9424,3.9424,3.9514,3.9679,4.0172,4.0576,4.092,4.1414,4.1998,4.2641,4.3135,4.3329,4.3329,4.3329,4.3329,4.3329,4.3329,4.3488,4.363,4.3409,4.3472,4.363,0.0,4.3329,4.3488,4.451,4.5416,0.0,0.0,0.0,5.1792,5.3129,5.3501,5.3501,5.3501,5.3501,5.3501,0.0,0.0,5.3501,0.0,0.0,0.0,0.0,0.0,0.0,0.0,0.0,0.0,0.0,0.0,0.0,0.0,0.0,0.0,0.0,0.0,0.0,0.0,0.0,5.7611,5.7611,5.778,5.7881,5.7881,5.7881,5.7881,5.7881,5.7881,5.7881,5.7881,5.7881,5.7881,5.7881,5.8137,5.8192,5.8246,5.9526,5.9942,5.9861,6.1715,6.2271,6.1951,6.2567,6.2805,6.2805,6.2805,6.2805,6.2805,0.0,0.0,0.0,0.0,0.0,0.0,0.0,0.0,0.0,0.0,0.0,0.0,3.9424,3.9424,3.9424,3.9424,3.9424,3.9424,3.9424,3.9424,3.9424,3.9424,3.9424,0.0,3.9424,3.9424,3.9424,3.9424,3.9424,3.9738,4.0352,4.0382,4.107,4.2267,4.2297,4.2671,4.3284,4.3329,4.3329,4.3329,4.3329,4.3329,4.3329,4.3329,4.3927,4.4586,4.363,0.0,0.0,0.0,0.0,0.0,0.0,4.5416,4.6512,0.0,0.0,0.0,5.3281,5.3501,5.3501,5.3501,5.3501,5.3501,0.0,0.0,0.0,0.0,0.0,0.0,0.0,0.0,0.0,0.0,0.0,0.0,0.0,0.0,0.0,0.0,0.0,0.0,0.0,0.0,0.0,0.0,5.6478,5.6867,5.6867,5.7509,5.7881,5.7881,5.7881,5.7881,5.7881,5.7881,5.7881,5.7881,5.7881,5.7881,5.7954,5.8686,5.9061,5.9061,5.9111,6.0033,6.1474,6.1604,6.2076,6.2755,6.2755,6.2805,6.2805,6.2805,6.2805,6.2805,0.0,0.0,0.0,0.0,0.0,0.0,0.0,0.0,0.0,0.0,0.0,0.0,0.0,3.9424,3.9424,3.9424,3.9424,3.9424,3.9424,3.9424,3.9424,3.9424,3.9424,3.9424,3.9424,3.9424,3.9424,3.9424,3.9843,4.0172,4.0427,4.1265,4.1908,4.2357,4.2357,4.2731,4.3329,4.3329,4.3329,4.3329,4.3329,4.3329,4.3329,4.3329,4.3927,0.0,0.0,0.0,0.0,0.0,0.0,0.0,0.0,0.0,4.6413,4.9262,5.1144,5.2486,5.3281,5.3501,5.3501,5.3501,5.3501,5.3501,5.3501,5.3501,5.3501,0.0,0.0,0.0,0.0,0.0,0.0,0.0,0.0,0.0,0.0,0.0,0.0,0.0,0.0,0.0,0.0,0.0,0.0,0.0,0.0,5.6105,5.6105,5.6799,5.7188,5.7188,5.7645,5.7881,5.7881,5.7881,5.7881,5.7881,5.7881,5.7881,5.7954,5.8737,5.9377,5.996,6.0484,6.1037,6.1659,6.2148,6.2567,6.2805,6.2805,6.2805,6.2805,6.2805,6.2805,6.2805,0.0,0.0,0.0,0.0,0.0,0.0,0.0,0.0,0.0,3.9424,0.0,0.0,0.0,0.0,3.9424,3.9424,3.9424,3.9424,3.9424,3.9424,3.9424,3.9424,3.9424,3.9424,3.9424,3.9634,3.9753,3.9753,4.0412,4.0846,4.107,4.1953,4.2476,4.2686,4.2686,4.2925,4.3329,4.3329,4.3329,4.3329,4.3329,4.3329,4.3329,4.3329,4.3927,0.0,0.0,0.0,0.0,0.0,0.0,0.0,0.0,0.0,4.7438,5.0007,5.1677,5.2824,5.3365,5.3501,5.3501,5.3501,5.3501,5.3501,5.3501,5.3501,5.3501,0.0,0.0,0.0,0.0,0.0,0.0,0.0,0.0,0.0,0.0,0.0,0.0,0.0,0.0,0.0,0.0,0.0,0.0,0.0,0.0,0.0,5.5344,5.6038,5.6444,5.6444,5.7154,5.7526,5.7526,5.7763,5.7881,5.7881,5.7881,5.7881,5.7954,5.8737,5.9574,6.0414,6.0956,6.1474,6.2023,6.2567,6.2805,6.2805,6.2805,6.2805,6.2805,6.2805,6.2805,6.2805,0.0,0.0,0.0,0.0,0.0,0.0,0.0,0.0,3.9424,3.9424,0.0,0.0,0.0,0.0,0.0,3.9424,3.9424,3.9424,3.9424,3.9424,3.9424,3.9424,3.9424,3.9424,3.9454,4.0068,4.0412,4.0427,4.1085,4.1728,4.2357,4.2387,4.2731,4.3329,4.3329,4.3329,4.3329,4.3329,4.3329,4.3329,4.3329,4.3329,4.3329,0.0,0.0,0.0,4.4812,4.5416,0.0,4.6244,0.0,0.0,0.0,0.0,4.955,5.0461,5.206,5.3433,0.0,0.0,0.0,5.3501,5.3501,0.0,5.3501,0.0,5.3501,0.0,0.0,0.0,0.0,0.0,0.0,0.0,0.0,0.0,0.0,0.0,0.0,0.0,0.0,0.0,0.0,0.0,0.0,0.0,5.416,5.4566,5.4566,5.5277,5.57,5.5716,5.6393,5.6765,5.6765,5.7476,5.7831,5.7865,5.7865,5.7865,5.7954,5.8737,5.9574,6.0353,6.0414,6.1322,6.2755,6.2755,6.2755,6.2755,6.2755,6.2755,6.2755,6.2805,6.2805,6.2805,0.0,0.0,0.0,0.0,0.0,3.9424,3.9424,3.9424,3.9424,0.0,0.0,0.0,3.9424,3.9424,3.9424,3.9424,3.9424,3.9424,3.9424,3.9424,3.9424,3.9424,3.9424,3.9649,4.0113,4.0307,4.0636,4.1115,4.1773,4.2177,4.2372,4.2851,4.3165,4.3329,4.3329,4.3329,4.3329,4.3329,4.3329,4.3329,4.3329,4.3329,0.0,0.0,0.0,0.0,0.0,4.64,4.7223,0.0,4.658,4.5908,0.0,4.7667,4.9405,4.9393,5.0752,5.2312,5.2312,0.0,0.0,0.0,0.0,0.0,0.0,0.0,0.0,0.0,0.0,0.0,0.0,0.0,0.0,0.0,0.0,0.0,0.0,0.0,0.0,0.0,0.0,0.0,0.0,0.0,0.0,0.0,5.3687,5.3805,5.3805,5.4499,5.5158,5.57,5.5919,5.6021,5.6021,5.6224,5.6579,5.7103,5.7103,5.7374,5.7954,5.8737,5.9245,5.9491,6.0149,6.0658,6.1073,6.1073,6.1073,6.1131,6.1715,6.1951,6.2023,6.2585,6.2805,6.2805,0.0,0.0,0.0,0.0,0.0,3.9424,3.9424,3.9424,3.9424,0.0,0.0,0.0,3.9424,3.9424,3.9424,3.9424,3.9424,3.9529,3.9813,3.9828,3.9948,4.0232,4.0232,4.0412,4.0801,4.107,4.1414,4.1788,4.2447,4.2776,4.2776,4.3165,4.3329,4.3329,4.3329,4.3329,4.3329,4.3329,4.3329,0.0,4.3329,0.0,0.0,4.3786,4.4631,0.0,0.0,0.0,4.7561,4.8381,4.7988,0.0,0.0,0.0,4.9684,0.0,5.0611,5.247,5.1993,5.2241,5.2714,5.3348,0.0,0.0,5.3501,5.3501,0.0,0.0,0.0,0.0,0.0,0.0,0.0,0.0,0.0,0.0,0.0,0.0,0.0,0.0,0.0,0.0,0.0,5.3501,5.3501,5.3501,5.3501,5.3501,5.3501,5.3907,5.4346,5.4786,5.5091,5.5243,5.5243,5.5564,5.5936,5.6342,5.6342,5.6579,5.6985,5.779,5.8341,5.8678,5.914,5.9526,5.9832,5.9526,5.9786,6.0476,6.1304,6.1586,6.1715,6.2497,6.2805,6.2805,0.0,0.0,3.9424,3.9424,3.9424,3.9424,3.9424,3.9424,3.9424,0.0,3.9424,3.9454,3.9514,3.9529,3.9559,3.9634,3.9634,3.9888,4.0472,4.0502,4.0771,4.1354,4.1384,4.1414,4.1489,4.2073,4.2387,4.2476,4.3045,4.3329,4.3329,4.3329,4.3329,4.3329,4.3329,4.3329,4.3329,4.3329,0.0,4.3329,4.3329,4.3329,0.0,0.0,4.4812,4.5169,4.6828,4.735,4.7652,4.9426,4.9763,0.0,0.0,0.0,0.0,0.0,5.093,5.311,5.2153,5.2627,5.3348,5.3501,0.0,0.0,5.3501,5.3501,5.3501,0.0,0.0,0.0,0.0,0.0,0.0,0.0,0.0,0.0,0.0,0.0,0.0,0.0,0.0,0.0,5.3501,5.3501,5.3501,5.3501,5.3501,5.3501,5.3501,5.3501,5.3501,5.3501,5.4143,5.4465,5.4465,5.5141,5.5513,5.5598,5.5598,5.5632,5.5733,5.6393,5.7036,5.7751,5.7766,5.8197,5.8822,5.8157,5.8841,6.0353,6.1171,6.153,6.1715,6.2497,6.2805,6.2805,0.0,3.9424,3.9424,3.9424,3.9424,3.9424,3.9424,3.9424,3.9424,3.9424,3.9424,3.9619,4.0157,4.0202,4.0427,4.095,4.0995,4.1055,4.119,4.119,4.125,4.1369,4.1384,4.1624,4.2147,4.2297,4.2626,4.3135,4.3269,4.3329,4.3329,4.3329,4.3329,4.3329,4.3329,4.3329,4.3329,4.3329,0.0,4.3329,4.3329,0.0,4.3329,4.3551,4.4555,4.5969,4.6013,4.7029,4.8413,4.9199,4.9912,5.0326,0.0,0.0,0.0,4.936,0.0,0.0,0.0,0.0,0.0,0.0,0.0,0.0,5.3501,5.3501,5.3501,0.0,0.0,0.0,0.0,0.0,0.0,0.0,0.0,0.0,0.0,0.0,0.0,0.0,0.0,0.0,5.3501,5.3501,5.3501,5.3501,5.3501,5.3501,5.3501,5.3501,5.3501,5.3501,5.3653,5.3721,5.3721,5.3873,5.4228,5.4803,5.4803,5.5124,5.5716,5.5869,5.599,5.6216,5.6752,5.7057,5.7304,5.77,5.8441,5.9443,6.0273,6.0997,6.1715,6.2497,6.2805,6.2805,3.9265,3.9424,3.9424,3.9424,3.9424,3.9424,3.9424,3.9424,3.9424,3.9424,3.9709,4.0157,4.0816,4.0891,4.1025,4.1354,4.1384,4.1519,4.1848,4.1878,4.2013,4.2342,4.2357,4.2506,4.2836,4.2851,4.3015,4.3329,4.3329,4.3329,4.3329,4.3329,4.3329,4.3329,4.3329,4.3329,4.3329,4.3329,4.3329,4.3329,4.3329,0.0,4.3359,4.4198,4.5109,4.6055,4.6674,4.7818,4.8957,4.9043,4.9392,0.0,0.0,4.9915,5.0855,0.0,5.0687,5.2557,0.0,0.0,0.0,5.3348,0.0,0.0,0.0,5.3501,5.3501,5.3501,5.3501,5.3501,5.3501,0.0,0.0,0.0,0.0,0.0,0.0,0.0,0.0,0.0,0.0,0.0,5.3501,5.3501,5.3501,5.3501,5.3501,5.3501,5.3501,5.3501,5.3501,5.3501,5.3501,5.3501,5.3501,5.3501,5.3687,5.4042,5.4042,5.4245,5.4634,5.4989,5.5158,5.5192,5.5936,5.6258,5.6325,5.7053,5.8084,5.9289,6.007,6.0879,6.1715,6.2497,6.2805,6.2805,3.9104,3.9424,3.9424,3.9424,3.9424,3.9424,3.9424,3.9281,3.9327,3.9461,4.0099,4.0846,4.1504,4.1564,4.1624,4.1743,4.1758,4.1983,4.2506,4.2551,4.2776,4.3314,4.3329,4.3329,4.3329,4.3329,4.3329,4.3329,4.3329,4.3329,4.3329,4.3329,4.3329,4.3329,4.3329,4.3329,4.3344,4.3464,0.0,4.3359,0.0,4.3643,4.3663,4.5044,4.5742,4.6129,4.7759,4.885,4.9477,4.9188,4.9215,4.9376,4.8907,4.9694,0.0,0.0,0.0,0.0,0.0,0.0,0.0,0.0,0.0,5.3501,0.0,0.0,0.0,5.3501,0.0,0.0,0.0,0.0,0.0,0.0,0.0,0.0,0.0,0.0,0.0,0.0,0.0,0.0,0.0,5.3501,5.3501,5.3501,5.3501,5.3501,5.3501,5.3501,5.3501,5.3501,5.3501,5.3501,5.3501,5.3501,5.3501,5.3501,5.3501,5.3501,5.3518,5.411,5.438,5.4431,5.5175,5.5497,5.5564,5.6292,5.7564,5.9182,6.0043,6.1015,6.1897,6.2567,6.2805,6.2805,3.8855,3.9424,3.9424,3.9424,3.9424,3.9424,3.9424,3.9,3.8914,3.9506,4.0551,4.1519,4.2177,4.2252,4.2476,4.306,4.3105,0.0,4.321,0.0,4.3254,4.3329,4.3329,4.3329,4.3329,4.3329,4.3329,4.3329,4.3329,4.3329,4.3329,4.3329,4.3329,4.3329,4.3329,4.3329,4.3374,4.3958,4.3868,0.0,4.4601,4.4721,0.0,4.5079,4.5844,4.6827,4.858,4.9677,5.0301,0.0,5.0779,5.1229,0.0,5.0149,5.1377,0.0,0.0,0.0,0.0,0.0,0.0,0.0,5.3501,0.0,0.0,0.0,5.3501,5.3501,0.0,0.0,0.0,0.0,0.0,0.0,0.0,0.0,0.0,0.0,0.0,0.0,0.0,0.0,0.0,5.3501,5.3501,5.3501,5.3501,5.3501,5.3501,5.3501,5.3501,5.3501,5.3501,5.3501,5.3501,5.3501,5.3501,5.3501,5.3501,5.3501,5.3501,5.3602,5.3619,5.367,5.4397,5.4718,5.4769,5.553,5.6805,5.8379,5.983,6.1322,6.2686,6.2755,6.2805,6.2805,3.7252,3.8055,3.8472,3.8472,3.9328,3.9993,3.9993,3.9554,3.9685,4.1013,4.1023,4.143,4.2772,0.0,0.0,0.0,0.0,4.3329,0.0,0.0,4.3329,4.3329,4.3329,4.3329,4.3329,4.3329,4.3329,4.3329,4.3329,4.3329,4.3329,4.3329,4.3329,4.3329,4.3329,4.3329,4.3374,0.0,4.4152,0.0,0.0,0.0,0.0,4.5783,4.6364,4.7099,4.7855,4.8674,4.9456,0.0,4.9758,0.0,0.0,0.0,0.0,0.0,0.0,0.0,0.0,0.0,0.0,0.0,0.0,0.0,5.3501,0.0,5.3501,0.0,0.0,0.0,0.0,0.0,0.0,0.0,5.3704,0.0,0.0,0.0,0.0,0.0,0.0,0.0,0.0,0.0,0.0,0.0,5.3501,5.3501,5.3501,5.3501,5.3501,5.3501,5.3501,5.3501,5.3501,5.3501,5.3501,5.3501,5.3501,5.3501,5.3501,5.3501,5.3501,5.3518,5.3822,5.3957,5.4025,5.4769,5.5701,5.6869,5.7954,5.9906,6.2163,6.264,6.2805,6.2805,3.5831,3.6758,3.7656,3.7841,3.9135,4.0155,3.9997,3.9672,3.9948,4.1529,4.125,0.0,4.3111,4.3329,0.0,0.0,4.3329,4.3329,0.0,0.0,4.3329,0.0,0.0,0.0,0.0,4.282,4.282,4.282,4.282,4.2981,4.3329,4.3329,4.3434,4.3599,4.3599,4.3703,4.3913,0.0,4.4751,4.4706,4.6052,4.6591,4.6591,4.6591,4.689,4.7309,4.7609,4.8141,4.8825,4.9135,4.9215,0.0,5.0165,0.0,0.0,0.0,0.0,0.0,5.1394,0.0,0.0,0.0,0.0,0.0,0.0,0.0,0.0,0.0,0.0,0.0,0.0,0.0,5.3568,5.3771,0.0,5.3568,0.0,0.0,0.0,0.0,0.0,0.0,0.0,0.0,0.0,0.0,0.0,5.3501,5.3501,5.3501,5.3501,5.3501,5.3501,5.3501,5.3501,5.3501,5.3501,5.3501,5.3501,5.3501,5.3501,5.3501,5.3501,5.3501,5.3501,5.3501,5.3551,5.4076,5.4749,5.557,5.6316,5.8119,6.0453,6.1682,6.2186,6.2223,3.4753,3.6048,3.7303,3.7814,3.8841,3.9472,3.9061,3.8905,0.0,0.0,0.0,0.0,0.0,0.0,0.0,0.0,0.0,4.3329,4.3329,0.0,4.3329,0.0,0.0,4.2805,0.0,4.167,4.167,4.167,4.167,4.2208,4.3329,4.3329,4.3673,4.4287,4.4287,4.4631,4.5274,4.5963,4.5873,4.5379,4.6741,4.7279,4.7279,0.0,4.7294,4.7467,4.8361,0.0,0.0,5.0009,5.032,0.0,0.0,0.0,0.0,0.0,0.0,0.0,0.0,0.0,0.0,5.1921,0.0,0.0,0.0,0.0,5.3501,0.0,0.0,0.0,0.0,0.0,5.3737,5.4448,5.3957,0.0,0.0,0.0,0.0,0.0,0.0,0.0,0.0,0.0,0.0,0.0,0.0,0.0,5.3501,5.3501,5.3501,5.3501,5.3501,5.3501,5.3501,5.3501,5.3501,5.3501,5.3501,5.3501,5.3501,5.3501,5.3501,5.3501,5.3501,5.3501,5.3501,5.3534,5.398,5.471,5.5536,5.6352,5.7352,5.9708,6.0594,6.0774,3.519,3.5711,3.6191,3.6751,0.0,0.0,0.0,3.9581,0.0,0.0,0.0,0.0,0.0,4.3329,4.3329,0.0,0.0,4.3329,4.3329,4.3329,0.0,0.0,0.0,4.3155,0.0,4.2725,4.2371,4.1587,4.1587,4.142,4.1113,4.2285,4.2952,4.3255,4.4406,4.5095,0.0,0.0,0.0,0.0,0.0,4.7309,4.7309,0.0,0.0,4.7381,4.7679,4.8225,0.0,4.9215,4.9773,5.049,5.1155,5.1155,5.1005,5.1303,5.1155,0.0,0.0,0.0,5.2082,5.2784,0.0,0.0,0.0,0.0,0.0,0.0,0.0,0.0,0.0,5.3501,5.3585,5.3822,5.367,5.3602,0.0,0.0,0.0,0.0,0.0,0.0,0.0,0.0,0.0,0.0,0.0,0.0,0.0,5.3501,5.3501,5.3501,5.3501,5.3501,5.3501,5.3501,5.3501,5.3501,5.3501,5.3501,5.3501,5.3501,5.3501,5.3501,5.3501,5.3501,5.3501,5.3501,5.3685,5.3915,5.4171,5.4436,5.5006,5.7901,5.9309,5.9942,3.5768,3.583,0.0,0.0,0.0,0.0,0.0,0.0,0.0,0.0,4.1587,0.0,4.317,0.0,4.3329,0.0,4.3329,4.3329,4.3329,4.3329,0.0,4.3329,4.3329,0.0,0.0,0.0,4.2126,4.1,4.1213,4.0884,4.0217,4.2052,4.2984,4.3329,4.4921,4.5798,4.6037,4.6486,4.6681,0.0,0.0,4.7309,0.0,0.0,4.7309,4.7309,0.0,4.7904,4.8825,4.9215,4.9852,5.0627,5.201,5.1776,5.1171,5.217,5.201,5.1557,5.1849,5.2153,0.0,5.287,5.3195,0.0,5.3501,0.0,0.0,0.0,0.0,0.0,0.0,0.0,5.3078,5.3078,5.2858,5.264,0.0,5.2859,0.0,0.0,0.0,0.0,0.0,0.0,0.0,0.0,0.0,0.0,0.0,0.0,5.3501,5.3501,5.3501,5.3501,5.3501,5.3501,5.3501,5.3501,5.3501,5.3501,5.3501,5.3501,5.3501,5.3501,5.3501,5.3501,5.3501,5.3501,5.3501,5.3501,5.3501,5.3501,5.382,5.6404,5.8196,5.949,3.6358,0.0,0.0,0.0,3.6358,0.0,0.0,0.0,3.8979,0.0,4.167,4.2111,4.317,4.3329,4.3329,4.3329,4.3329,0.0,4.3329,4.3329,0.0,0.0,4.3329,4.2805,4.1684,0.0,0.0,0.0,4.0479,4.068,4.0632,4.2414,4.3672,4.4364,4.5708,4.6625,4.7309,4.7309,4.7309,4.7309,4.7309,4.7309,4.7309,4.7309,4.7309,4.7309,4.7309,4.7919,4.8907,4.9931,5.032,5.0719,5.2731,5.2714,5.2082,5.311,5.3433,5.328,5.2241,5.2714,5.3264,5.2224,0.0,0.0,0.0,0.0,5.3501,0.0,0.0,0.0,0.0,0.0,5.2283,5.2249,5.1609,5.1027,5.0826,0.0,0.0,0.0,0.0,0.0,0.0,0.0,0.0,0.0,0.0,0.0,0.0,0.0,5.3501,5.3501,5.3501,5.3501,5.3501,5.3501,5.3501,5.3501,5.3501,5.3501,5.3501,5.3501,5.3501,5.3501,5.3501,5.3501,5.3501,5.3501,5.3501,5.3501,5.3501,5.3501,5.377,5.5265,5.72,5.9238,3.6358,3.6358,3.6358,0.0,3.6358,3.6896,0.0,0.0,0.0,0.0,4.2371,4.2981,4.325,4.3329,4.3329,4.3329,4.3329,0.0,0.0,0.0,0.0,4.3329,4.3329,4.3155,4.29,4.29,0.0,4.0534,0.0,3.9995,3.8711,4.06,4.2068,4.3174,4.4852,4.6285,4.7309,4.7309,4.7309,4.7309,4.7309,4.7309,0.0,0.0,4.7309,4.7309,4.7309,4.7467,4.7834,4.8841,4.9215,4.9456,5.0779,5.1541,5.1921,5.2241,5.287,5.3433,5.3179,5.3264,5.3416,5.3179,5.328,5.3501,0.0,0.0,0.0,0.0,0.0,0.0,0.0,0.0,0.0,5.1589,5.0744,5.0172,5.0063,0.0,0.0,5.0274,0.0,0.0,0.0,0.0,0.0,0.0,0.0,0.0,0.0,0.0,0.0,5.3501,5.3501,5.3501,5.3501,5.3501,5.3501,5.3501,5.3501,5.3501,5.3501,5.3501,5.3501,5.3501,5.3501,5.3501,5.3501,5.3501,5.3501,5.3501,5.3501,5.3832,5.4454,5.5371,5.6091,5.692,3.6358,0.0,0.0,3.6358,0.0,0.0,3.8738,0.0,0.0,4.2193,4.29,0.0,4.3329,4.3329,4.3329,4.3329,4.3329,0.0,4.3329,0.0,0.0,4.3329,4.3329,4.3329,4.3329,4.3329,0.0,4.0666,0.0,4.0108,3.8391,4.0278,4.1866,4.31,4.467,4.6062,4.7309,4.7309,4.7309,4.7309,4.7309,0.0,0.0,4.7309,4.7309,4.7309,4.7309,4.7609,4.8072,4.8594,4.8825,4.8988,5.0087,5.0474,5.0747,5.1614,5.2312,5.287,5.3348,5.3501,5.3416,5.2939,5.3179,5.3348,5.2939,5.2909,5.2976,0.0,0.0,0.0,0.0,0.0,0.0,5.0371,4.9459,4.8907,0.0,0.0,0.0,0.0,4.9567,0.0,0.0,0.0,0.0,0.0,0.0,0.0,0.0,0.0,0.0,5.3501,5.3501,5.3501,5.3501,5.3501,5.3501,5.3501,5.3501,5.3501,5.3501,5.3501,5.3501,5.3501,5.3501,5.3501,5.3501,5.3501,5.3501,5.3501,5.3501,5.3783,5.4218,5.4939,5.5667,5.6474,3.6358,0.0,0.0,0.0,0.0,0.0,0.0,4.1,0.0,4.3155,0.0,4.3329,4.3329,4.3329,4.3329,4.3329,0.0,4.3329,4.3329,4.3329,4.3329,4.3329,4.3329,4.3329,4.3329,4.3419,0.0,0.0,0.0,4.0722,3.9083,4.0598,4.207,4.3598,4.4642,4.5973,4.7309,4.7309,4.7309,4.7309,4.7309,4.7309,4.7309,4.7309,4.7309,4.7309,4.7309,4.7834,4.8594,4.8759,4.8743,4.8759,4.9852,4.9536,4.9135,5.0989,5.1614,5.1921,5.287,5.3195,5.3041,5.2153,5.2714,5.3247,5.2179,5.2098,5.2283,5.2181,5.1657,5.1183,0.0,0.0,0.0,4.9103,0.0,0.0,0.0,0.0,0.0,0.0,0.0,0.0,0.0,0.0,0.0,0.0,0.0,0.0,0.0,0.0,0.0,5.3501,5.3501,5.3501,5.3501,0.0,5.3501,5.3501,5.3501,5.3501,5.3501,5.3501,5.3501,5.3501,5.3501,5.3501,5.3501,5.3501,5.3501,5.3501,5.3501,5.3568,5.3717,5.4374,5.5512,5.6843,0.0,0.0,0.0,0.0,0.0,3.9972,4.1169,4.1504,4.2029,4.3155,4.3329,4.3329,4.3329,4.3329,4.3329,4.3329,4.3329,0.0,0.0,0.0,0.0,4.3329,4.3329,4.3329,4.3329,4.3868,4.3219,0.0,4.203,4.1349,3.9546,3.984,4.1319,4.3504,4.3693,4.5115,4.7309,4.7309,0.0,4.7309,4.7309,4.7309,4.7309,4.7309,4.7309,4.7309,4.7309,4.7366,4.7679,4.8527,4.821,4.7764,4.8759,4.8988,4.8907,4.9215,4.9993,5.0703,5.0871,5.1557,5.2153,5.1921,5.2714,5.3264,5.2421,5.2252,5.2131,5.1539,5.1302,5.1014,5.0388,0.0,0.0,0.0,0.0,0.0,0.0,0.0,0.0,0.0,0.0,0.0,0.0,0.0,0.0,0.0,0.0,0.0,0.0,0.0,0.0,0.0,5.3501,0.0,0.0,0.0,5.3501,5.3501,5.3501,5.3501,5.3501,5.3501,5.3501,5.3501,5.3501,5.3501,5.3501,5.3501,5.3501,5.3501,5.3501,5.3881,5.4419,5.4527,5.5161,5.5948,0.0,0.0,0.0,0.0,0.0,0.0,0.0,4.2111,0.0,4.325,4.3329,4.3329,4.3329,4.3329,4.3329,4.3329,4.3329,4.3329,4.3329,4.3329,4.3329,4.3329,4.3329,0.0,4.3838,4.4152,4.3906,4.297,4.2639,4.1881,4.0642,3.9981,4.1032,4.3598,4.4918,4.6166,4.7309,0.0,0.0,4.7309,4.7309,4.7309,4.7309,4.7309,4.7309,4.7309,4.7309,4.7309,4.7381,4.7834,4.7679,4.7381,4.7834,4.7988,4.8141,4.8677,4.915,4.9694,5.0242,5.0779,5.108,5.108,5.1641,5.1874,5.097,5.0961,5.0919,5.0075,4.9984,4.9965,4.9593,4.9238,0.0,0.0,0.0,0.0,0.0,0.0,0.0,0.0,0.0,0.0,0.0,0.0,0.0,0.0,0.0,0.0,0.0,0.0,0.0,0.0,0.0,0.0,0.0,0.0,0.0,5.3501,5.3501,5.3501,5.3501,5.3501,5.3501,5.3501,5.3501,5.3501,5.3501,5.3501,5.3501,5.3501,5.3501,5.3734,5.4059,5.4059,5.4281,5.4668,0.0,3.7678,0.0,0.0,4.0376,0.0,4.1932,4.2725,4.3329,4.3329,4.3329,4.3329,4.3329,4.3329,4.3329,4.3329,4.3329,4.3329,4.3329,4.3329,4.3329,4.3329,4.3464,4.3778,4.4302,4.4601,4.463,0.0,4.3575,4.2562,4.1604,4.0554,4.1319,4.3598,0.0,0.0,0.0,0.0,4.7309,4.7309,4.7309,4.7309,4.7309,4.7309,4.7309,4.7309,4.7309,4.7309,4.7309,4.7309,4.7309,4.7309,4.7309,4.7309,4.7452,4.821,4.8444,4.8677,4.9551,4.9868,5.0055,5.0144,5.0505,5.0506,4.9459,4.9552,4.9553,4.8629,4.8771,4.9001,4.9001,4.9001,0.0,0.0,0.0,0.0,0.0,0.0,0.0,0.0,0.0,0.0,0.0,0.0,0.0,0.0,0.0,0.0,0.0,0.0,0.0,0.0,0.0,5.3247,5.3247,0.0,5.3501,0.0,5.3501,5.3501,5.3501,5.3501,5.3501,5.3501,5.3501,5.3501,5.3501,5.3501,5.3501,5.3501,5.3501,5.3501,5.3501,5.3501,5.3501,5.3668,0.0,0.0,0.0,0.0,0.0,0.0,0.0,4.325,4.3329,4.3329,4.3329,4.3329,4.3329,4.3329,4.3329,4.3329,4.3329,4.3329,4.3329,4.3329,4.3329,4.3329,4.3898,4.4257,4.4317,4.5514,4.5545,0.0,0.0,4.392,0.0,4.1505,4.2168,0.0,0.0,0.0,0.0,4.7309,4.7309,4.7309,4.7309,4.7309,4.7309,4.7309,4.7309,4.7309,4.7309,4.7309,4.7309,4.7309,4.7309,4.7309,4.7309,4.7309,4.7309,4.7366,4.7452,4.7452,4.7538,4.8225,4.8994,4.9292,5.0132,5.0472,4.9102,4.8775,4.8646,4.7836,4.8403,4.9001,4.9001,4.9001,4.8719,0.0,0.0,0.0,0.0,0.0,0.0,0.0,0.0,0.0,0.0,0.0,0.0,0.0,0.0,0.0,0.0,0.0,0.0,5.142,0.0,5.2418,5.2418,5.3145,5.3501,5.3501,5.3501,5.3501,5.3501,5.3501,5.3501,5.3501,5.3501,5.3501,5.3501,5.3501,5.3501,5.3501,5.3501,5.3501,5.3501,5.3501,5.3501,5.3501,0.0,0.0,0.0,0.0,0.0,0.0,0.0,4.3329,4.3329,4.3329,4.3329,4.3329,4.3329,4.3329,4.3329,4.3329,4.3329,4.3329,4.3329,4.3329,4.3329,4.3329,4.3958,4.4496,4.4885,4.5843,4.6245,0.0,0.0,0.0,0.0,0.0,0.0,0.0,0.0,4.7309,4.7309,4.7309,4.7309,4.7309,4.7309,4.7309,4.7309,4.7309,4.7309,4.7309,4.7309,4.7309,4.7309,4.7309,4.7309,4.7309,4.7309,4.7309,4.7309,4.7309,4.7309,4.7309,4.7309,4.7322,4.7485,4.8199,4.8083,4.7607,4.7155,4.7123,4.6964,4.6127,4.7104,4.8353,4.8877,4.9001,4.8861,0.0,0.0,0.0,0.0,0.0,0.0,0.0,0.0,0.0,0.0,0.0,0.0,0.0,0.0,0.0,0.0,0.0,0.0,5.1136,0.0,5.186,5.23,5.2621,5.3027,5.3501,5.3501,5.3501,5.3501,5.3501,5.3501,5.3501,5.3501,5.3501,5.3501,5.3501,5.3501,5.3501,5.3501,5.3501,5.3501,5.3501,5.3501,5.3501,4.0404,0.0,4.2111,0.0,4.2805,4.3329,4.3329,4.3329,4.3329,4.3329,4.3329,4.3329,4.3329,4.3329,4.3329,4.3329,4.3329,4.3329,4.3329,4.3329,4.3329,4.3329,4.4152,0.0,4.5289,4.6157,4.6845,4.7309,4.6447,0.0,0.0,0.0,0.0,0.0,4.6726,4.7309,4.7309,4.7309,4.7309,4.7309,4.7309,4.7309,4.7309,4.7309,4.7309,4.7309,4.7309,4.7309,4.7309,4.7309,4.7309,4.7309,4.7309,4.7309,4.7309,4.7309,4.7309,4.7264,4.707,4.6681,4.6455,4.7004,4.6408,4.5711,4.5616,4.5704,4.5706,4.5285,4.6486,4.7868,4.8798,4.9001,4.894,4.8639,0.0,0.0,0.0,0.0,0.0,0.0,4.7523,4.6968,4.7523,0.0,0.0,0.0,0.0,0.0,0.0,0.0,0.0,0.0,0.0,0.0,0.0,5.1877,5.2384,5.3145,5.3145,5.3281,5.3501,5.3501,5.3501,5.3501,5.3501,5.3501,5.3501,5.3501,5.3501,5.3501,5.3501,5.3501,5.3501,5.3501,5.3501,5.3501,4.1587,4.2467,4.325,4.325,4.325,4.3329,4.3329,4.3329,4.3329,4.3329,4.3329,4.3329,4.3329,4.3329,4.3329,4.3329,4.3329,4.3329,4.3329,4.3329,4.3329,0.0,0.0,4.5289,4.5289,4.6606,4.7294,4.7309,0.0,0.0,4.5403,0.0,4.5403,4.5494,4.6726,4.7309,4.7309,4.7309,4.7309,4.7309,4.7309,4.7309,4.7309,4.7309,4.7309,4.7309,4.7309,4.7309,4.7309,4.7309,4.7309,4.7309,4.7309,4.7309,4.7309,4.7309,4.7309,4.716,4.6516,4.6337,4.6229,4.5834,4.5696,4.5526,4.4967,4.4812,4.5079,4.5977,4.6952,4.7868,4.8798,4.9001,4.8719,4.7803,0.0,0.0,0.0,0.0,0.0,0.0,4.5992,4.5577,4.744,0.0,0.0,0.0,0.0,0.0,0.0,0.0,0.0,4.9035,4.9729,0.0,5.0118,5.0862,5.1589,5.2317,5.2317,5.2739,5.3501,5.3501,5.3501,5.3501,5.3501,5.3501,5.3501,5.3501,5.3501,5.3501,5.3501,5.3501,5.3501,5.3501,5.3501,5.3501,4.2725,4.3076,4.3329,4.3329,4.3329,4.3329,4.3329,4.3329,4.3329,4.3329,4.3329,4.3329,4.3329,4.3329,4.3329,0.0,4.3329,4.3329,0.0,4.3329,4.3329,4.3329,4.4586,4.5289,4.5289,4.6621,4.7309,4.7309,0.0,0.0,0.0,4.6726,4.6726,4.6726,4.7121,4.7309,4.7309,4.7309,4.7309,4.7309,4.7309,4.7309,4.7309,4.7309,4.7309,4.7309,4.7309,4.7309,4.7309,4.7309,4.7309,4.7309,4.7309,4.7309,4.7309,4.7309,4.6995,4.6591,4.6381,4.5648,4.4922,4.478,4.4406,4.4013,4.3817,4.3771,4.4066,4.5079,4.5977,4.6952,4.7868,4.8576,4.8719,4.7721,4.837,0.0,0.0,0.0,0.0,0.0,4.6884,4.647,0.0,4.69,0.0,0.0,0.0,0.0,0.0,0.0,0.0,0.0,4.9221,0.0,5.0084,5.0321,5.0828,5.1572,5.2063,5.2723,5.3501,5.3501,5.3501,5.3501,5.3501,5.3501,5.3501,5.3501,5.3501,5.3501,5.3501,5.3501,5.3501,5.3501,5.3501,5.3501,4.3329,4.3329,4.3329,4.3329,4.3329,4.3329,4.3329,4.3329,4.3329,4.3329,4.3329,4.3329,4.3329,4.3329,0.0,4.3329,4.3329,4.3329,4.3329,4.3329,4.3329,4.3329,4.4347,4.493,4.493,0.0,0.0,4.6935,4.7189,4.7309,4.7309,4.7309,4.7309,4.7309,4.7309,4.7309,4.7309,4.7309,4.7309,4.7309,4.7309,4.7309,4.7309,4.7309,4.7309,4.7309,4.7309,4.7309,4.7309,4.7309,4.7309,4.7264,4.701,4.6935,4.6935,4.6935,4.6651,4.6217,4.5708,4.496,4.4257,4.4003,4.3643,4.3329,4.3329,4.3329,4.3551,4.4586,4.53,4.6048,4.7373,4.808,4.837,4.8144,4.8289,4.837,4.8161,0.0,0.0,0.0,0.0,0.0,0.0,4.7088,0.0,0.0,0.0,0.0,0.0,0.0,0.0,4.894,4.9001,0.0,4.9678,4.9678,5.0067,5.0811,5.1826,5.2553,5.3061,5.3365,5.3501,5.3501,5.3501,5.3501,5.3501,5.3501,5.3501,5.3501,5.3501,5.3501,5.3501,5.3501,5.3501,5.3501,4.3329,4.3329,0.0,0.0,4.3329,0.0,4.3329,4.3329,4.3329,4.3329,4.3329,4.3329,4.3329,4.3329,4.3329,4.3329,0.0,0.0,0.0,4.3329,4.3329,4.3329,4.3958,4.4317,4.4317,4.5589,4.6277,4.6322,4.6935,4.7249,4.7309,4.7309,4.7309,4.7309,4.7309,4.7309,4.7309,4.7309,4.7309,4.7309,4.7309,4.7309,4.7309,4.7309,4.7309,4.7309,4.7309,4.7309,4.7294,4.7249,4.7234,4.7115,4.6456,4.6247,4.6247,4.6247,4.6217,4.5918,4.4661,4.4287,4.4092,4.3479,4.3329,4.3329,4.3329,4.3329,4.3551,4.451,4.4737,4.53,4.7104,4.7523,4.7868,4.8593,4.8161,4.795,4.8719,0.0,0.0,0.0,0.0,0.0,0.0,4.6747,4.6952,0.0,0.0,0.0,0.0,0.0,4.7155,4.894,4.9001,4.9001,4.9001,4.9001,4.9373,5.0101,5.1488,5.2198,5.2334,5.3078,5.345,5.3501,5.3501,5.3501,5.3501,5.3501,5.3501,5.3501,5.3501,5.3501,5.3501,5.3501,5.3501,5.3501,0.0,0.0,4.3329,4.3329,4.3329,4.3329,4.3329,4.3329,4.3329,4.3329,4.3329,4.3329,4.3329,4.3329,4.3329,4.3329,4.3329,4.3329,4.3329,4.3329,4.3329,4.3329,4.3958,4.4317,4.4317,4.5125,4.5798,4.6322,4.6486,4.6815,4.7309,4.7309,4.7309,4.7309,4.7309,4.7309,4.7309,4.7309,4.7309,4.7309,4.7309,4.7309,4.7309,4.7309,4.7309,4.7309,4.7309,4.7309,4.7234,4.6726,4.6561,4.6441,4.5753,4.5544,4.5544,4.5544,4.5185,4.4721,4.4407,4.3943,4.3524,4.3374,4.3329,4.3329,4.3329,4.3329,4.3409,4.363,4.4297,4.4946,4.5358,4.6609,4.7172,4.5992,4.7389,4.8225,4.702,4.7933,0.0,0.0,4.7239,4.6592,4.7523,4.6747,4.6662,0.0,0.0,0.0,0.0,4.7868,4.7803,4.894,4.9001,4.9001,4.9001,4.9001,4.9373,5.0084,5.0439,5.12,5.2317,5.2503,5.2926,5.3501,5.3501,5.3501,5.3501,5.3501,5.3501,5.3501,5.3501,5.3501,5.3501,5.3501,5.3501,5.3501,4.3329,4.3329,4.3329,4.3329,4.3329,4.3329,4.3329,4.3329,4.3329,4.3329,4.3329,4.3329,4.3329,4.3329,4.3329,4.3329,4.3329,4.3329,4.3329,4.3329,4.3329,4.3329,4.3673,4.3868,4.3868,4.4511,4.517,4.5858,4.5858,4.6037,4.6396,4.6711,4.686,4.6875,4.7174,4.7309,4.7309,4.7309,4.7309,4.7309,4.7309,4.7309,4.7309,4.7309,4.7309,4.7264,4.6965,4.686,4.6756,4.6082,4.5858,4.5738,4.505,4.484,4.4781,4.4481,4.4362,4.4242,4.3943,4.3599,4.3329,4.3329,4.3329,4.3329,4.3329,4.3329,4.3329,4.3329,4.3693,4.422,4.4737,4.5977,4.6609,4.5634,4.6747,4.7506,4.6952,4.7373,0.0,4.8877,4.7306,4.6592,4.7523,4.633,4.6119,4.7523,0.0,0.0,4.894,4.8513,4.8497,4.9001,4.9001,4.9001,4.9001,4.9001,4.9204,4.9593,4.9932,5.0507,5.1319,5.1995,5.2536,5.2976,5.3348,5.3501,5.3501,5.3501,5.3501,5.3501,5.3501,5.3501,5.3501,5.3501,5.3501,5.3501,4.3329,4.3329,4.3329,4.3329,4.3329,4.3329,4.3329,4.3329,4.3329,4.3329,4.3329,4.3329,4.3329,4.3329,4.3329,4.3329,4.3329,4.3329,4.3329,4.3329,4.3329,4.3329,4.3329,4.3329,4.3329,4.3883,4.4481,4.5155,4.5155,4.52,4.5304,4.5888,4.6172,4.6187,4.6756,4.6995,4.6995,4.6995,4.6995,4.6995,4.6995,4.6995,4.6995,4.6995,4.6995,4.692,4.6367,4.6172,4.6067,4.5379,4.5155,4.5035,4.4377,4.4167,4.4062,4.3494,4.3718,4.4047,4.3479,4.3329,4.3329,4.3329,4.3329,4.3329,4.3329,4.3329,4.3329,4.3329,4.3329,4.3551,4.445,4.5358,4.5977,4.5762,4.6032,4.647,4.7104,0.0,4.702,4.8576,4.7373,4.6678,4.7306,4.5921,4.5634,4.7239,4.7523,4.8015,0.0,4.9001,4.9001,4.9001,4.9001,4.9001,4.9001,4.9001,4.9001,4.9018,4.9627,4.9982,5.0135,5.1403,5.2097,5.2334,5.3027,5.3399,5.3501,5.3501,5.3501,5.3501,5.3501,5.3501,5.3501,5.3501,5.3501,5.3501,4.3329,4.3329,4.3329,4.3329,4.3329,4.3329,4.3329,4.3329,4.3329,4.3329,4.3329,4.3329,4.3329,4.3329,4.3329,4.3329,4.3329,4.3329,4.3329,4.3329,4.3329,4.3329,4.3329,4.3329,4.3329,4.3434,4.3808,4.4466,4.4466,4.4751,4.5289,4.5409,4.5454,4.5454,4.5559,4.5603,4.5603,4.5603,4.5603,4.5603,4.5603,4.5603,4.5603,4.5603,4.5603,4.5589,4.5484,4.5454,4.5349,4.4691,4.4466,4.4347,4.3688,4.3479,4.3464,4.3359,4.3404,4.3464,4.3359,4.3329,4.3329,4.3329,4.3329,4.3329,4.3329,4.3329,4.3329,4.3329,4.3329,4.3329,4.3472,4.4358,4.4721,4.3912,4.5106,4.5977,4.53,0.0,4.7523,4.7803,4.7589,4.7155,4.6454,4.6173,4.6103,4.6384,4.7155,4.8015,4.894,4.9001,4.9001,4.9001,4.9001,4.9001,4.9001,4.9001,4.9001,4.9001,4.912,4.9492,5.0101,5.0338,5.1116,5.2317,5.2435,5.2875,5.3501,5.3501,5.3501,5.3501,5.3501,5.3501,5.3501,5.3501,5.3501,5.3501,4.3329,4.3329,4.3329,4.3329,4.3329,4.3329,4.3329,4.3329,4.3329,4.3329,4.3329,4.3329,4.3329,4.3329,4.3329,4.3329,4.3329,4.3329,4.3329,4.3329,4.3329,4.3329,4.3329,4.3329,4.3329,4.3329,4.3479,4.3778,4.3778,4.3943,4.4242,4.4601,4.4766,4.4781,4.514,4.5289,4.5289,4.5289,4.5289,4.5289,4.5289,4.5289,4.5289,4.5289,4.5289,4.5244,4.4885,4.4766,4.4661,4.4003,4.3778,4.3733,4.3434,4.3329,4.3329,4.3329,4.3329,4.3329,4.3329,4.3329,4.3329,4.3329,4.3329,4.3329,4.3329,4.3329,4.3329,4.3329,4.3329,4.3329,4.3329,4.4143,4.4434,4.3472,4.4495,0.0,0.0,4.5992,4.702,4.7523,4.7589,4.744,4.702,4.6539,4.6384,4.6884,4.7373,4.8015,4.894,4.9001,4.9001,4.9001,4.9001,4.9001,4.9001,4.9001,4.9001,4.9001,4.9001,4.9187,4.9509,4.9915,5.0456,5.115,5.1961,5.252,5.2892,5.3331,5.3501,5.3501,5.3501,5.3501,5.3501,5.3501,5.3501,5.3501,4.3329,4.3329,4.3329,4.3329,4.3329,4.3329,4.3329,4.3329,4.3329,4.3329,4.3329,4.3329,4.3329,4.3329,4.3329,4.3329,4.3329,4.3329,4.3329,4.3329,4.3329,4.3329,4.3329,4.3329,4.3329,4.3329,4.3329,4.3329,4.3329,4.3329,4.3344,4.3853,4.4092,4.4107,4.4616,4.484,4.484,4.484,4.484,4.484,4.484,4.484,4.484,4.484,4.484,4.4766,4.4272,4.4092,4.4003,4.3509,4.3329,4.3329,4.3329,4.3329,4.3329,4.3329,4.3329,4.3329,4.3329,4.3329,4.3329,4.3329,4.3329,4.3329,4.3329,4.3329,4.3329,4.3329,4.3329,4.3329,4.3329,4.3927,4.422,4.3409,0.0,0.0,0.0,4.5285,4.6244,4.7172,4.7456,4.7506,4.7306,4.6815,4.6747,4.7239,4.7456,4.8015,4.894,4.9001,4.9001,4.9001,4.9001,4.9001,4.9001,4.9001,4.9001,4.9001,4.9001,4.9001,4.9018,4.9593,4.9932,5.0152,5.1302,5.1978,5.235,5.2976,5.3331,5.3501,5.3501,5.3501,5.3501,5.3501,5.3501,5.3501,4.3329,4.3329,4.3329,4.3329,4.3329,4.3329,4.3329,4.3329,4.3329,4.3329,4.3329,4.3329,4.3329,4.3329,4.3329,4.3329,4.3329,4.3329,4.3329,4.3329,4.3329,4.3329,4.3329,4.3329,4.3329,4.3329,4.3329,4.3329,4.3329,4.3329,4.3329,4.3389,4.3404,4.3404,4.3464,4.3479,4.3479,4.3479,4.3479,4.3479,4.3479,4.3479,4.3479,4.3479,4.3479,4.3464,4.3419,4.3404,4.3404,4.3344,4.3329,4.3329,4.3329,4.3329,4.3329,4.3329,4.3329,4.3329,4.3329,4.3329,4.3329,4.3329,4.3329,4.3329,4.3329,4.3329,4.3329,4.3329,4.3329,4.3329,4.3329,4.3329,4.3409,4.3329,0.0,0.0,4.3409,4.4282,4.5211,4.6173,4.7088,4.7239,4.6384,4.702,4.7155,4.6384,4.7088,4.8015,4.894,4.9001,4.9001,4.9001,4.9001,4.9001,4.9001,4.9001,4.9001,4.9001,4.9001,4.9001,4.9001,4.9069,4.9458,5.0101,5.0202,5.1031,5.23,5.2367,5.2841,5.3501,5.3501,5.3501,5.3501,5.3501,5.3501,5.3501,4.3329,4.3329,4.3329,4.3329,4.3329,4.3329,4.3329,4.3329,4.3329,4.3329,4.3329,4.3329,4.3329,4.3329,4.3329,4.3329,4.3329,4.3329,4.3329,4.3329,4.3329,4.3329,4.3329,4.3329,4.3329,4.3329,4.3329,4.3329,4.3329,4.3329,4.3329,4.3329,4.3329,4.3329,4.3329,4.3329,4.3329,4.3329,4.3329,4.3329,4.3329,4.3329,4.3329,4.3329,4.3329,4.3329,4.3329,4.3329,4.3329,4.3329,4.3329,4.3329,4.3329,4.3329,4.3329,4.3329,4.3329,4.3329,4.3329,4.3329,4.3329,4.3329,4.3329,4.3329,4.3329,4.3329,4.3329,4.3329,4.3329,4.3329,4.3329,4.3329,4.3329,4.3329,0.0,4.3329,4.3329,4.4143,4.5153,4.6119,4.702,4.7655,4.7933,4.7721,4.7655,4.7933,4.7737,4.8015,4.894,4.9001,4.9001,4.9001,4.9001,4.9001,4.9001,4.9001,4.9001,4.9001,4.9001,4.9001,4.9001,4.9001,4.9154,4.9441,4.9898,5.0676,5.1657,5.2114,5.2773,5.3501,5.3501,5.3501,5.3501,5.3501,5.3501,5.3501,4.3329,4.3329,4.3329,4.3329,4.3329,4.3329,4.3329,4.3329,4.3329,4.3329,4.3329,4.3329,4.3329,4.3329,4.3329,4.3329,4.3329,4.3329,4.3329,4.3329,4.3329,4.3329,4.3329,4.3329,4.3329,4.3329,4.3329,4.3329,4.3329,4.3329,4.3329,4.3329,4.3329,4.3329,4.3329,4.3329,4.3329,4.3329,4.3329,4.3329,4.3329,4.3329,4.3329,4.3329,4.3329,4.3329,4.3329,4.3329,4.3329,4.3329,4.3329,4.3329,4.3329,4.3329,4.3329,4.3329,4.3329,4.3329,4.3329,4.3329,4.3329,4.3329,4.3329,4.3329,4.3329,4.3329,4.3329,4.3329,4.3329,4.3329,4.3329,4.3329,4.3329,4.3329,4.3329,4.3329,4.3329,4.3927,4.4721,4.5634,4.6609,4.7306,4.7671,4.7885,4.808,4.8144,4.808,4.8289,4.894,4.9001,4.9001,4.9001,4.9001,4.9001,4.9001,4.9001,4.9001,4.9001,4.9001,4.9001,4.9001,4.9001,4.9001,4.9035,4.9526,5.0168,5.0913,5.1657,5.2418,5.3145,5.3399,5.3501,5.3501,5.3501,5.3501,5.3501,4.3329,4.3329,4.3329,4.3329,4.3329,4.3329,4.3329,4.3329,4.3329,4.3329,4.3329,4.3329,4.3329,4.3329,4.3329,4.3329,4.3329,4.3329,4.3329,4.3329,4.3329,4.3329,4.3329,4.3329,4.3329,4.3329,4.3329,4.3329,4.3329,4.3329,4.3329,4.3329,4.3329,4.3329,4.3329,4.3329,4.3329,4.3329,4.3329,4.3329,4.3329,4.3329,4.3329,4.3329,4.3329,4.3329,4.3329,4.3329,4.3329,4.3329,4.3329,4.3329,4.3329,4.3329,4.3329,4.3329,4.3329,4.3329,4.3329,4.3329,4.3329,4.3329,4.3329,4.3329,4.3329,4.3329,4.3329,4.3329,4.3329,4.3329,4.3329,4.3329,4.3329,4.3329,4.3329,4.3329,4.3329,4.3329,4.3693,4.4662,4.5634,4.5834,4.4871,4.7323,4.8225,4.6314,4.7933,4.9001,4.9001,4.9001,4.9001,4.9001,4.9001,4.9001,4.9001,4.9001,4.9001,4.9001,4.9001,4.9001,4.9001,4.9001,4.9001,4.9001,4.9001,4.9424,5.0152,5.0913,5.164,5.2384,5.3196,5.3501,5.3501,5.3501,5.3501,5.3501,4.3329,4.3329,4.3329,4.3329,4.3329,4.3329,4.3329,4.3329,4.3329,4.3329,4.3329,4.3329,4.3329,4.3329,4.3329,4.3329,4.3329,4.3329,4.3329,4.3329,4.3329,4.3329,4.3329,4.3329,4.3329,4.3329,4.3329,4.3329,4.3329,4.3329,4.3329,4.3329,4.3329,4.3329,4.3329,4.3329,4.3329,4.3329,4.3329,4.3329,4.3329,4.3329,4.3329,4.3329,4.3329,4.3329,4.3329,4.3329,4.3329,4.3329,4.3329,4.3329,4.3329,4.3329,4.3329,4.3329,4.3329,4.3329,4.3329,4.3329,4.3329,4.3329,4.3329,4.3329,4.3329,4.3329,4.3329,4.3329,4.3329,4.3329,4.3329,4.3329,4.3329,4.3329,4.3329,4.3329,4.3329,4.3329,4.3693,4.4662,4.502,4.5358,4.5778,4.6539,4.7104,4.7155,4.8289,4.9001,4.9001,4.9001,4.9001,4.9001,4.9001,4.9001,4.9001,4.9001,4.9001,4.9001,4.9001,4.9001,4.9001,4.9001,4.9001,4.9001,4.9001,4.9424,5.0152,5.0913,5.164,5.2384,5.3196,5.3501,5.3501,5.3501,5.3501,5.3501,4.3329,4.3329,4.3329,4.3329,4.3329,4.3329,4.3329,4.3329,4.3329,4.3329,4.3329,4.3329,4.3329,4.3329,4.3329,4.3329,4.3329,4.3329,4.3329,4.3329,4.3329,4.3329,4.3329,4.3329,4.3329,4.3329,4.3329,4.3329,4.3329,4.3329,4.3329,4.3329,4.3329,4.3329,4.3329,4.3329,4.3329,4.3329,4.3329,4.3329,4.3329,4.3329,4.3329,4.3329,4.3329,4.3329,4.3329,4.3329,4.3329,4.3329,4.3329,4.3329,4.3329,4.3329,4.3329,4.3329,4.3329,4.3329,4.3329,4.3329,4.3329,4.3329,4.3329,4.3329,4.3329,4.3329,4.3329,4.3329,4.3329,4.3329,4.3329,4.3329,4.3329,4.3329,4.3329,4.3329,4.3329,4.3329,4.3551,4.4143,4.4586,4.4871,4.5048,4.5746,4.6592,4.7523,4.8161,4.8576,4.9001,4.9001,4.9001,4.9001,4.9001,4.9001,4.9001,4.9001,4.9001,4.9001,4.9001,4.9001,4.9001,4.9001,4.9001,4.9001,4.9001,4.9255,4.9712,5.0456,5.12,5.1944,5.2723,5.323,5.3501,5.3501,5.3501,5.3501,4.3329,4.3329,4.3329,4.3329,4.3329,4.3329,4.3329,4.3329,4.3329,4.3329,4.3329,4.3329,4.3329,4.3329,4.3329,4.3329,4.3329,4.3329,4.3329,4.3329,4.3329,4.3329,4.3329,4.3329,4.3329,4.3329,4.3329,4.3329,4.3329,4.3329,4.3329,4.3329,4.3329,4.3329,4.3329,4.3329,4.3329,4.3329,4.3329,4.3329,4.3329,4.3329,4.3329,4.3329,4.3329,4.3329,4.3329,4.3329,4.3329,4.3329,4.3329,4.3329,4.3329,4.3329,4.3329,4.3329,4.3329,4.3329,4.3329,4.3329,4.3329,4.3329,4.3329,4.3329,4.3329,4.3329,4.3329,4.3329,4.3329,4.3329,4.3329,4.3329,4.3329,4.3329,4.3329,4.3329,4.3329,4.3329,4.3329,4.3329,4.4143,4.4297,4.3409,4.4974,4.6539,4.7523,4.7523,4.7933,4.894,4.8923,4.8923,4.9001,4.9001,4.9001,4.9001,4.9001,4.9001,4.9001,4.9001,4.9001,4.9001,4.9001,4.9001,4.9001,4.9001,4.9001,4.9069,4.9796,5.0541,5.1285,5.2012,5.279,5.3501,5.3501,5.3501,5.3501,4.3329,4.3329,4.3329,4.3329,4.3329,4.3329,4.3329,4.3329,4.3329,4.3329,4.3329,4.3329,4.3329,4.3329,4.3329,4.3329,4.3329,4.3329,4.3329,4.3329,4.3329,4.3329,4.3329,4.3329,4.3329,4.3329,4.3329,4.3329,4.3329,4.3329,4.3329,4.3329,4.3329,4.3329,4.3329,4.3329,4.3329,4.3329,4.3329,4.3329,4.3329,4.3329,4.3329,4.3329,4.3329,4.3329,4.3329,4.3329,4.3329,4.3329,4.3329,4.3329,4.3329,4.3329,4.3329,4.3329,4.3329,4.3329,4.3329,4.3329,4.3329,4.3329,4.3329,4.3329,4.3329,4.3329,4.3329,4.3329,4.3329,4.3329,4.3329,4.3329,4.3329,4.3329,4.3329,4.3329,4.3329,4.3329,4.3329,4.3329,4.3472,4.3551,4.3329,4.4419,4.5778,4.744,4.6952,4.7223,4.894,4.8289,4.8225,4.9001,4.9001,4.9001,4.9001,4.9001,4.9001,4.9001,4.9001,4.9001,4.9001,4.9001,4.9001,4.9001,4.9001,4.9001,4.9069,4.9796,5.0541,5.1285,5.2012,5.279,5.3501,5.3501,5.3501,5.3501,4.3329,4.3329,4.3329,4.3329,4.3329,4.3329,4.3329,4.3329,4.3329,4.3329,4.3329,4.3329,4.3329,4.3329,4.3329,4.3329,4.3329,4.3329,4.3329,4.3329,4.3329,4.3329,4.3329,4.3329,4.3329,4.3329,4.3329,4.3329,4.3329,4.3329,4.3329,4.3329,4.3329,4.3329,4.3329,4.3329,4.3329,4.3329,4.3329,4.3329,4.3329,4.3329,4.3329,4.3329,4.3329,4.3329,4.3329,4.3329,4.3329,4.3329,4.3329,4.3329,4.3329,4.3329,4.3329,4.3329,4.3329,4.3329,4.3329,4.3329,4.3329,4.3329,4.3329,4.3329,4.3329,4.3329,4.3329,4.3329,4.3329,4.3329,4.3329,4.3329,4.3329,4.3329,4.3329,4.3329,4.3329,4.3329,4.3329,4.3329,4.3329,4.3329,4.3329,4.3786,4.4706,4.6119,4.5778,4.633,4.8225,4.7868,4.8015,4.9001,4.9001,4.9001,4.9001,4.9001,4.9001,4.9001,4.9001,4.9001,4.9001,4.9001,4.9001,4.9001,4.9001,4.9001,4.9035,4.9424,5.0016,5.076,5.1488,5.2249,5.2976,5.3365,5.3501,5.3501,4.3329,4.3329,4.3329,4.3329,4.3329,4.3329,4.3329,4.3329,4.3329,4.3329,4.3329,4.3329,4.3329,4.3329,4.3329,4.3329,4.3329,4.3329,4.3329,4.3329,4.3329,4.3329,4.3329,4.3329,4.3329,4.3329,4.3329,4.3329,4.3329,4.3329,4.3329,4.3329,4.3329,4.3329,4.3329,4.3329,4.3329,4.3329,4.3329,4.3329,4.3329,4.3329,4.3329,4.3329,4.3329,4.3329,4.3329,4.3329,4.3329,4.3329,4.3329,4.3329,4.3329,4.3329,4.3329,4.3329,4.3329,4.3329,4.3329,4.3329,4.3329,4.3329,4.3329,4.3329,4.3329,4.3329,4.3329,4.3329,4.3329,4.3329,4.3329,4.3329,4.3329,4.3329,4.3329,4.3329,4.3329,4.3329,4.3329,4.3329,4.3329,4.3329,4.3329,4.3329,4.3693,4.4737,4.4662,4.5358,4.7239,4.7239,4.7523,4.8513,4.8656,4.8781,4.8781,4.8923,4.9001,4.9001,4.9001,4.9001,4.9001,4.9001,4.9001,4.9001,4.9001,4.9001,4.9001,4.9001,4.9424,5.0168,5.093,5.1657,5.2401,5.3213,5.3501,5.3501,4.3329,4.3329,4.3329,4.3329,4.3329,4.3329,4.3329,4.3329,4.3329,4.3329,4.3329,4.3329,4.3329,4.3329,4.3329,4.3329,4.3329,4.3329,4.3329,4.3329,4.3329,4.3329,4.3329,4.3329,4.3329,4.3329,4.3329,4.3329,4.3329,4.3329,4.3329,4.3329,4.3329,4.3329,4.3329,4.3329,4.3329,4.3329,4.3329,4.3329,4.3329,4.3329,4.3329,4.3329,4.3329,4.3329,4.3329,4.3329,4.3329,4.3329,4.3329,4.3329,4.3329,4.3329,4.3329,4.3329,4.3329,4.3329,4.3329,4.3329,4.3329,4.3329,4.3329,4.3329,4.3329,4.3329,4.3329,4.3329,4.3329,4.3329,4.3329,4.3329,4.3329,4.3329,4.3329,4.3329,4.3329,4.3329,4.3329,4.3329,4.3329,4.3329,4.3329,4.3329,4.3693,4.4737,4.3989,4.4327,4.6314,4.5634,4.5634,4.6523,4.7373,4.7803,4.7803,4.8576,4.9001,4.9001,4.9001,4.9001,4.9001,4.9001,4.9001,4.9001,4.9001,4.9001,4.9001,4.9001,4.9424,5.0168,5.093,5.1657,5.2401,5.3213,5.3501,5.3501,4.3329,4.3329,4.3329,4.3329,4.3329,4.3329,4.3329,4.3329,4.3329,4.3329,4.3329,4.3329,4.3329,4.3329,4.3329,4.3329,4.3329,4.3329,4.3329,4.3329,4.3329,4.3329,4.3329,4.3329,4.3329,4.3329,4.3329,4.3329,4.3329,4.3329,4.3329,4.3329,4.3329,4.3329,4.3329,4.3329,4.3329,4.3329,4.3329,4.3329,4.3329,4.3329,4.3329,4.3329,4.3329,4.3329,4.3329,4.3329,4.3329,4.3329,4.3329,4.3329,4.3329,4.3329,4.3329,4.3329,4.3329,4.3329,4.3329,4.3329,4.3329,4.3329,4.3329,4.3329,4.3329,4.3329,4.3329,4.3329,4.3329,4.3329,4.3329,4.3329,4.3329,4.3329,4.3329,4.3329,4.3329,4.3329,4.3329,4.3329,4.3329,4.3329,4.3329,4.3771,4.4066,4.4004,4.4066,4.4495,4.5358,4.502,4.5211,4.6173,4.6592,4.6815,4.6815,4.7737,4.8225,4.8225,4.8719,4.9001,4.9001,4.9001,4.9001,4.9001,4.9001,4.9001,4.9001,4.9001,4.9187,4.956,5.0304,5.1285,5.2401,5.3213,5.3501,5.3501]},{"header":{"parameterUnit":"m.s-1","parameterCategory":1,"la1":30.6,"la2":28.766,"lo1":-90.7593,"lo2":-88.6598,"dy":0.0162,"dx":0.0183,"nx":116,"ny":114,"refTime":"2023-04-21T06:00:00:Z","depth":0,"parameterNumber":3,"parameterNumberName":"V-component_of_WINDS"},"data":[0.0,0.0,0.0,0.0,0.0,0.0,0.0,0.0,0.0,0.0,0.0,0.0,0.0,0.0,0.0,0.0,0.0,0.0,0.0,0.0,0.0,0.0,0.0,0.0,0.0,0.0,0.0,0.0,0.0,0.0,0.0,0.0,0.0,0.0,0.0,0.0,0.0,0.0,0.0,0.0,0.0,0.0,0.0,0.0,0.0,0.0,0.0,0.0,0.0,0.0,0.0,0.0,0.0,0.0,0.0,0.0,0.0,0.0,0.0,0.0,0.0,0.0,0.0,0.0,0.0,0.0,0.0,0.0,0.0,0.0,0.0,0.0,0.0,0.0,0.0,0.0,0.0,0.0,0.0,0.0,0.0,0.0,0.0,0.0,0.0,0.0,0.0,0.0,0.0,0.0,0.0,0.0,0.0,0.0,0.0,0.0,0.0,0.0,0.0,0.0,0.0,0.0,0.0,0.0,0.0,0.0,0.0,0.0,0.0,0.0,0.0,0.0,0.0,0.0,0.0,0.0,0.0,0.0,0.0,0.0,0.0,0.0,0.0,0.0,0.0,0.0,0.0,0.0,0.0,0.0,0.0,0.0,0.0,0.0,0.0,0.0,0.0,0.0,0.0,0.0,0.0,0.0,0.0,0.0,0.0,0.0,0.0,0.0,0.0,0.0,0.0,0.0,0.0,0.0,0.0,0.0,0.0,0.0,0.0,0.0,0.0,0.0,0.0,0.0,0.0,0.0,0.0,0.0,0.0,0.0,0.0,0.0,0.0,0.0,0.0,0.0,0.0,0.0,0.0,0.0,0.0,0.0,0.0,0.0,0.0,0.0,0.0,0.0,0.0,0.0,0.0,0.0,0.0,0.0,0.0,0.0,0.0,0.0,0.0,0.0,0.0,0.0,0.0,0.0,0.0,0.0,0.0,0.0,0.0,0.0,0.0,0.0,0.0,0.0,0.0,0.0,0.0,0.0,0.0,0.0,0.0,0.0,0.0,0.0,0.0,0.0,0.0,0.0,0.0,0.0,0.0,0.0,0.0,0.0,0.0,0.0,0.0,0.0,0.0,0.0,0.0,0.0,0.0,0.0,0.0,0.0,0.0,0.0,0.0,0.0,0.0,0.0,0.0,0.0,0.0,0.0,0.0,0.0,0.0,0.0,0.0,0.0,0.0,0.0,0.0,0.0,0.0,0.0,0.0,0.0,0.0,0.0,0.0,0.0,0.0,0.0,0.0,0.0,0.0,0.0,0.0,0.0,0.0,0.0,0.0,0.0,0.0,0.0,0.0,0.0,0.0,0.0,0.0,0.0,0.0,0.0,0.0,0.0,0.0,0.0,0.0,0.0,0.0,0.0,0.0,0.0,0.0,0.0,0.0,0.0,0.0,0.0,0.0,0.0,0.0,0.0,0.0,0.0,0.0,0.0,0.0,0.0,0.0,0.0,0.0,0.0,0.0,0.0,0.0,0.0,0.0,0.0,0.0,0.0,0.0,0.0,0.0,0.0,0.0,0.0,0.0,0.0,0.0,0.0,0.0,0.0,0.0,0.0,0.0,0.0,0.0,0.0,0.0,0.0,0.0,0.0,0.0,0.0,0.0,0.0,0.0,0.0,0.0,0.0,0.0,0.0,0.0,0.0,0.0,0.0,0.0,0.0,0.0,0.0,0.0,0.0,0.0,0.0,0.0,0.0,0.0,0.0,0.0,0.0,0.0,0.0,0.0,0.0,0.0,0.0,0.0,0.0,0.0,0.0,0.0,0.0,0.0,0.0,0.0,0.0,0.0,0.0,0.0,0.0,0.0,0.0,0.0,0.0,0.0,0.0,0.0,0.0,0.0,0.0,0.0,0.0,0.0,0.0,0.0,0.0,0.0,0.0,0.0,0.0,0.0,0.0,0.0,0.0,0.0,0.0,0.0,0.0,0.0,0.0,0.0,0.0,0.0,0.0,0.0,0.0,0.0,0.0,0.0,0.0,0.0,0.0,0.0,0.0,0.0,0.0,0.0,0.0,0.0,0.0,0.0,0.0,0.0,0.0,0.0,0.0,0.0,0.0,0.0,0.0,0.0,0.0,0.0,0.0,0.0,0.0,0.0,0.0,0.0,0.0,0.0,0.0,0.0,0.0,0.0,0.0,0.0,0.0,0.0,0.0,0.0,0.0,0.0,0.0,0.0,0.0,0.0,0.0,0.0,0.0,0.0,0.0,0.0,0.0,0.0,0.0,0.0,0.0,0.0,0.0,0.0,0.0,0.0,0.0,0.0,0.0,0.0,0.0,0.0,0.0,0.0,0.0,0.0,0.0,0.0,0.0,0.0,0.0,0.0,0.0,0.0,0.0,0.0,0.0,0.0,0.0,0.0,0.0,0.0,0.0,0.0,0.0,0.0,0.0,0.0,0.0,0.0,0.0,0.0,0.0,0.0,0.0,0.0,0.0,0.0,0.0,0.0,0.0,0.0,0.0,0.0,0.0,0.0,0.0,0.0,0.0,0.0,0.0,0.0,0.0,0.0,0.0,0.0,0.0,0.0,0.0,0.0,0.0,0.0,0.0,0.0,0.0,0.0,0.0,0.0,0.0,0.0,0.0,0.0,0.0,0.0,0.0,0.0,0.0,0.0,0.0,0.0,0.0,0.0,0.0,0.0,0.0,0.0,0.0,0.0,0.0,0.0,0.0,0.0,0.0,0.0,0.0,0.0,0.0,0.0,0.0,0.0,0.0,0.0,0.0,0.0,0.0,0.0,0.0,0.0,0.0,0.0,0.0,0.0,0.0,0.0,0.0,0.0,0.0,0.0,0.0,0.0,0.0,0.0,0.0,0.0,0.0,0.0,0.0,0.0,0.0,0.0,0.0,0.0,0.0,0.0,0.0,0.0,0.0,0.0,0.0,0.0,0.0,0.0,0.0,0.0,0.0,0.0,0.0,0.0,0.0,0.0,0.0,0.0,0.0,0.0,0.0,0.0,0.0,0.0,0.0,0.0,0.0,0.0,0.0,0.0,0.0,0.0,0.0,0.0,0.0,0.0,0.0,0.0,0.0,0.0,0.0,0.0,0.0,0.0,0.0,0.0,0.0,0.0,0.0,0.0,0.0,0.0,0.0,0.0,0.0,0.0,0.0,0.0,0.0,0.0,0.0,0.0,0.0,0.0,0.0,0.0,0.0,0.0,0.0,0.0,0.0,0.0,0.0,0.0,0.0,0.0,0.0,0.0,0.0,0.0,0.0,0.0,0.0,0.0,0.0,0.0,0.0,0.0,0.0,0.0,0.0,0.0,0.0,0.0,0.0,0.0,0.0,0.0,0.0,0.0,0.0,0.0,0.0,0.0,0.0,0.0,0.0,0.0,0.0,0.0,0.0,0.0,0.0,0.0,0.0,0.0,0.0,0.0,0.0,0.0,0.0,0.0,0.0,0.0,0.0,0.0,0.0,0.0,0.0,0.0,0.0,0.0,0.0,0.0,0.0,0.0,0.0,0.0,0.0,0.0,0.0,0.0,0.0,0.0,0.0,0.0,0.0,0.0,0.0,0.0,0.0,0.0,0.0,0.0,0.0,0.0,0.0,0.0,0.0,0.0,0.0,0.0,0.0,0.0,0.0,0.0,0.0,0.0,0.0,0.0,0.0,0.0,0.0,0.0,0.0,0.0,0.0,0.0,0.0,0.0,0.0,0.0,0.0,0.0,0.0,0.0,0.0,0.0,0.0,0.0,0.0,0.0,0.0,0.0,0.0,0.0,0.0,0.0,0.0,0.0,0.0,0.0,0.0,0.0,0.0,0.0,0.0,0.0,0.0,0.0,0.0,0.0,0.0,0.0,0.0,0.0,0.0,0.0,0.0,0.0,0.0,0.0,0.0,0.0,0.0,0.0,0.0,0.0,0.0,0.0,0.0,0.0,0.0,0.0,0.0,0.0,0.0,0.0,0.0,0.0,0.0,0.0,0.0,0.0,0.0,0.0,0.0,0.0,0.0,0.0,0.0,0.0,0.0,0.0,0.0,0.0,0.0,0.0,0.0,0.0,0.0,0.0,0.0,0.0,0.0,0.0,0.0,0.0,0.0,0.0,0.0,0.0,0.0,0.0,0.0,0.0,0.0,0.0,0.0,0.0,0.0,0.0,0.0,0.0,0.0,0.0,0.0,0.0,0.0,0.0,0.0,0.0,0.0,0.0,0.0,0.0,0.0,0.0,0.0,0.0,0.0,0.0,0.0,0.0,0.0,0.0,0.0,0.0,0.0,0.0,0.0,0.0,0.0,0.0,0.0,0.0,0.0,0.0,0.0,0.0,0.0,0.0,0.0,0.0,0.0,0.0,0.0,0.0,0.0,0.0,0.0,0.0,0.0,0.0,0.0,0.0,0.0,0.0,0.0,0.0,0.0,0.0,0.0,0.0,0.0,0.0,0.0,0.0,0.0,0.0,0.0,0.0,0.0,0.0,0.0,0.0,0.0,0.0,0.0,0.0,0.0,0.0,0.0,0.0,0.0,0.0,0.0,0.0,0.0,0.0,0.0,0.0,0.0,0.0,0.0,0.0,0.0,0.0,0.0,0.0,0.0,0.0,0.0,0.0,0.0,0.0,0.0,0.0,0.0,0.0,0.0,0.0,0.0,0.0,0.0,0.0,0.0,0.0,0.0,0.0,0.0,0.0,0.0,0.0,0.0,0.0,0.0,0.0,0.0,0.0,0.0,0.0,0.0,0.0,0.0,0.0,0.0,0.0,0.0,0.0,0.0,0.0,0.0,0.0,0.0,0.0,0.0,0.0,0.0,0.0,0.0,0.0,0.0,0.0,0.0,0.0,0.0,0.0,0.0,0.0,0.0,0.0,0.0,0.0,0.0,0.0,0.0,0.0,0.0,0.0,0.0,0.0,0.0,0.0,0.0,0.0,0.0,0.0,0.0,0.0,0.0,0.0,0.0,0.0,0.0,0.0,0.0,0.0,0.0,0.0,0.0,0.0,0.0,0.0,0.0,0.0,0.0,0.0,0.0,0.0,0.0,0.0,0.0,0.0,0.0,0.0,0.0,0.0,0.0,0.0,0.0,0.0,0.0,0.0,0.0,0.0,0.0,0.0,0.0,0.0,0.0,0.0,0.0,0.0,0.0,0.0,0.0,0.0,0.0,0.0,0.0,0.0,0.0,0.0,0.0,0.0,0.0,0.0,0.0,0.0,0.0,0.0,0.0,0.0,0.0,0.0,0.0,0.0,0.0,0.0,0.0,0.0,0.0,0.0,0.0,0.0,0.0,0.0,0.0,0.0,0.0,0.0,0.0,0.0,0.0,0.0,0.0,0.0,0.0,0.0,0.0,0.0,0.0,0.0,0.0,0.0,0.0,0.0,0.0,0.0,0.0,0.0,0.0,0.0,0.0,0.0,0.0,0.0,0.0,0.0,0.0,0.0,0.0,0.0,0.0,0.0,0.0,0.0,0.0,0.0,0.0,0.0,0.0,0.0,0.0,0.0,0.0,0.0,0.0,0.0,0.0,0.0,0.0,0.0,0.0,0.0,0.0,0.0,0.0,0.0,0.0,0.0,0.0,0.0,0.0,0.0,0.0,0.0,0.0,0.0,0.0,0.0,0.0,0.0,0.0,0.0,0.0,0.0,0.0,0.0,0.0,0.0,0.0,0.0,0.0,0.0,0.0,0.0,0.0,0.0,0.0,0.0,0.0,0.0,0.0,0.0,0.0,0.0,0.0,0.0,0.0,0.0,0.0,0.0,0.0,0.0,0.0,0.0,0.0,0.0,0.0,0.0,0.0,0.0,0.0,0.0,0.0,0.0,0.0,0.0,0.0,0.0,0.0,0.0,0.0,0.0,0.0,0.0,0.0,0.0,0.0,0.0,0.0,0.0,0.0,0.0,0.0,0.0,0.0,0.0,0.0,0.0,0.0,0.0,0.0,0.0,0.0,0.0,0.0,0.0,0.0,0.0,0.0,0.0,0.0,0.0,0.0,0.0,0.0,0.0,0.0,0.0,0.0,0.0,0.0,0.0,0.0,0.0,0.0,0.0,0.0,0.0,0.0,0.0,0.0,0.0,0.0,0.0,0.0,0.0,0.0,0.0,0.0,0.0,0.0,0.0,0.0,0.0,0.0,0.0,0.0,0.0,0.0,0.0,0.0,1.805,0.0,0.0,0.0,0.0,0.0,0.0,0.0,0.0,0.0,0.0,0.0,0.0,0.0,0.0,0.0,0.0,0.0,0.0,0.0,0.0,0.0,0.0,0.0,0.0,0.0,0.0,0.0,0.0,0.0,0.0,0.0,0.0,0.0,0.0,0.0,0.0,0.0,0.0,2.5742,2.5742,2.5742,2.5742,2.5742,2.5742,2.5742,0.0,0.0,0.0,0.0,0.0,0.0,0.0,0.0,0.0,0.0,0.0,0.0,0.0,0.0,0.0,0.0,0.0,0.0,0.0,0.0,0.0,0.0,0.0,0.0,0.0,0.0,0.0,0.0,0.0,0.0,0.0,0.0,0.0,0.0,0.0,0.0,0.0,0.0,0.0,0.0,0.0,0.0,0.0,0.0,0.0,0.0,0.0,0.0,0.0,0.0,0.0,0.0,0.0,0.0,0.0,0.0,0.0,0.0,0.0,0.0,0.0,0.0,0.0,0.0,0.0,0.0,0.0,0.0,0.0,0.0,0.0,1.8343,0.0,0.0,0.0,0.0,0.0,0.0,0.0,0.0,0.0,0.0,0.0,0.0,0.0,0.0,0.0,0.0,0.0,0.0,0.0,0.0,0.0,0.0,0.0,2.5742,2.5742,2.5742,2.5742,2.5742,0.0,0.0,0.0,0.0,0.0,0.0,2.5742,2.5742,2.5742,2.5742,2.5742,2.5742,2.5742,2.5742,2.5742,2.5742,2.5742,0.0,0.0,0.0,0.0,0.0,0.0,0.0,0.0,0.0,0.0,0.0,0.0,0.0,0.0,0.0,0.0,0.0,0.0,0.0,0.0,0.0,0.0,0.0,0.0,0.0,0.0,0.0,0.0,0.0,0.0,0.0,0.0,0.0,0.0,0.0,0.0,0.0,0.0,0.0,0.0,0.0,0.0,0.0,0.0,0.0,0.0,0.0,0.0,0.0,0.0,0.0,0.0,0.0,0.0,0.0,0.0,0.0,0.0,0.0,0.0,0.0,0.0,0.0,1.8617,1.8644,1.8644,1.8644,1.8771,1.8985,1.8751,1.8644,1.8644,0.0,0.0,0.0,0.0,0.0,0.0,0.0,0.0,0.0,0.0,0.0,0.0,0.0,0.0,0.0,0.0,0.0,0.0,0.0,0.0,0.0,0.0,2.5742,2.5742,2.5742,2.5742,2.5742,2.5742,0.0,0.0,0.0,0.0,0.0,2.5742,2.5742,2.5742,2.5742,2.5742,2.5742,2.5742,2.5742,2.5742,2.5742,2.5742,2.5742,2.5742,0.0,0.0,0.0,0.0,0.0,0.0,0.0,0.0,0.0,0.0,0.0,0.0,0.0,0.0,0.0,0.0,0.0,0.0,0.0,0.0,0.0,0.0,0.0,0.0,0.0,0.0,0.0,0.0,0.0,0.0,0.0,0.0,0.0,0.0,0.0,0.0,0.0,0.0,0.0,0.0,0.0,1.7582,1.7582,0.0,0.0,0.0,0.0,0.0,0.0,0.0,0.0,0.0,0.0,0.0,0.0,0.0,0.0,1.849,1.8738,1.8865,1.8871,1.9125,1.9252,1.9252,1.9252,1.9272,1.9305,1.9272,0.0,1.9252,1.9252,0.0,0.0,0.0,0.0,0.0,0.0,0.0,0.0,0.0,0.0,0.0,0.0,0.0,0.0,0.0,0.0,0.0,0.0,0.0,0.0,0.0,2.5742,2.5742,2.5742,2.5742,2.5742,2.5742,2.5742,0.0,0.0,0.0,2.5742,2.5742,2.5742,2.5742,2.5742,2.5742,2.5742,2.5742,2.5742,2.5742,2.5742,2.5742,2.5742,2.5742,2.5742,0.0,0.0,0.0,0.0,0.0,0.0,0.0,0.0,0.0,0.0,0.0,0.0,0.0,0.0,0.0,0.0,0.0,0.0,0.0,0.0,0.0,0.0,0.0,0.0,0.0,0.0,0.0,0.0,0.0,0.0,0.0,0.0,0.0,0.0,0.0,0.0,0.0,0.0,0.0,1.7582,1.7582,1.7582,1.7736,1.7842,0.0,0.0,0.0,0.0,0.0,0.0,0.0,0.0,0.0,1.8731,1.8731,1.8811,1.8978,1.9112,1.9172,1.9172,1.9305,1.9366,1.9366,1.9366,1.9366,1.9379,1.9539,1.9606,1.9599,1.9432,1.9366,1.9366,0.0,0.0,0.0,0.0,0.0,1.9606,0.0,0.0,0.0,0.0,0.0,0.0,0.0,0.0,0.0,0.0,0.0,0.0,2.5742,2.5742,2.5742,2.5742,2.5742,2.5742,2.5742,2.5742,2.5742,2.5742,2.5742,2.5742,2.5742,2.5742,2.5742,2.5742,2.5742,2.5742,2.5742,2.5742,2.5742,2.5742,2.5742,2.5742,2.5742,2.5742,2.5742,2.5742,0.0,0.0,0.0,0.0,0.0,0.0,0.0,0.0,0.0,0.0,0.0,0.0,0.0,0.0,0.0,0.0,0.0,0.0,0.0,0.0,0.0,0.0,0.0,0.0,0.0,0.0,0.0,0.0,0.0,0.0,0.0,0.0,0.0,0.0,0.0,0.0,0.0,1.7649,1.7702,1.7702,1.8279,1.8577,0.0,0.0,0.0,0.0,0.0,0.0,1.8711,1.8711,1.8811,1.9032,1.9038,1.9145,1.9366,1.9366,1.9406,1.9479,1.9479,1.9512,1.9586,1.9586,1.9586,1.9599,1.982,1.9913,1.9893,1.9679,1.9586,1.9586,1.9586,1.9586,1.9586,1.9586,1.9726,1.9913,0.0,0.0,0.0,0.0,0.0,0.0,0.0,0.0,0.0,0.0,0.0,2.5742,2.5742,2.5742,2.5742,2.5742,2.5742,2.5742,2.5742,2.5742,2.5742,2.5742,2.5742,2.5742,2.5742,2.5742,2.5742,2.5742,2.5742,2.5742,2.5742,2.5742,2.5742,2.5742,2.5742,2.5742,2.5742,2.5742,2.5742,2.5742,2.5742,0.0,0.0,0.0,0.0,0.0,0.0,0.0,0.0,0.0,0.0,0.0,0.0,0.0,0.0,0.0,0.0,0.0,0.0,0.0,0.0,0.0,0.0,0.0,0.0,0.0,0.0,0.0,0.0,0.0,0.0,0.0,0.0,0.0,0.0,0.0,0.0,0.0,0.0,1.8023,1.9542,0.0,0.0,0.0,0.0,1.8991,1.8905,1.9025,1.9312,1.9325,1.9332,1.9345,1.9345,1.9352,1.9366,1.9366,1.9506,1.978,1.978,1.992,2.0187,2.0187,2.0187,2.0187,2.0201,2.0214,2.0214,2.0194,2.0187,2.0187,2.0187,2.0187,2.0187,2.0187,2.0194,2.0214,0.0,0.0,0.0,0.0,0.0,0.0,0.0,0.0,2.5742,2.5742,2.5742,2.5742,2.5742,2.5742,2.5742,2.5742,2.5742,2.5742,2.5742,2.5742,2.5742,2.5742,2.5742,2.5742,2.5742,2.5742,2.5742,2.5742,2.5742,2.5742,2.5742,2.5742,2.5742,2.5742,2.5742,2.5742,2.5742,2.5742,2.5742,2.5742,2.5742,2.5742,0.0,0.0,0.0,0.0,0.0,0.0,0.0,0.0,0.0,0.0,0.0,0.0,0.0,0.0,0.0,0.0,0.0,0.0,0.0,0.0,0.0,0.0,0.0,0.0,0.0,0.0,0.0,0.0,0.0,0.0,0.0,0.0,0.0,0.0,0.0,0.0,0.0,1.9802,2.1372,0.0,1.8989,2.0243,2.1062,2.0629,1.9759,1.9699,2.0809,1.9924,1.9452,1.9639,1.9646,1.9733,1.992,1.992,1.9973,2.008,2.008,2.0134,2.0234,2.0234,2.0234,2.0241,2.0434,2.0514,2.0535,2.0722,2.0575,2.0234,2.0234,2.0234,2.0234,2.0234,2.0354,2.0514,0.0,0.0,0.0,0.0,0.0,0.0,0.0,0.0,2.5742,2.5742,2.5742,2.5742,2.5742,2.5742,2.5742,2.5742,2.5742,2.5742,2.5742,2.5742,2.5742,2.5742,2.5742,2.5742,2.5742,2.5742,2.5742,2.5742,2.5742,2.5742,2.5742,2.5742,2.5742,2.5742,2.5742,2.5742,2.5742,2.5742,2.5742,2.5742,2.5742,2.5742,2.5742,0.0,0.0,0.0,0.0,0.0,0.0,0.0,0.0,0.0,0.0,0.0,0.0,0.0,0.0,0.0,0.0,0.0,0.0,0.0,0.0,0.0,0.0,0.0,0.0,0.0,0.0,0.0,0.0,0.0,0.0,0.0,0.0,0.0,0.0,0.0,2.2716,2.1744,2.3244,2.3357,2.0837,2.1684,2.2145,2.1699,2.0795,2.0519,2.0967,2.0741,2.0323,1.994,1.9947,2.004,2.0227,2.0234,2.0287,2.0381,2.0381,2.0434,2.0528,2.0528,2.0528,2.0541,2.0735,2.0822,2.0842,2.1029,2.0875,2.0528,2.0528,2.0528,2.0528,2.0528,2.0655,2.0822,0.0,0.0,0.0,0.0,0.0,0.0,0.0,2.5742,2.5742,2.5742,2.5742,2.5742,2.5742,2.5742,2.5742,2.5742,2.5742,2.5742,2.5742,2.5742,2.5742,2.5742,2.5742,2.5742,2.5742,2.5742,2.5742,2.5742,2.5742,2.5742,2.5742,2.5742,2.5742,2.5742,2.5742,2.5742,2.5742,2.5742,2.5742,2.5742,2.5742,2.5742,2.5742,0.0,0.0,0.0,0.0,0.0,0.0,0.0,0.0,0.0,0.0,0.0,0.0,0.0,0.0,0.0,0.0,0.0,0.0,0.0,0.0,0.0,0.0,0.0,0.0,0.0,0.0,0.0,0.0,0.0,0.0,0.0,0.0,0.0,2.3249,2.3295,2.3528,2.3528,2.5042,2.5489,2.3933,2.383,2.3279,2.1828,2.2007,2.1518,2.0044,2.172,2.2006,2.0362,2.0362,2.0247,2.0261,2.0261,2.0408,2.0688,2.0688,2.0842,2.1109,2.1109,2.1109,2.1109,2.1109,2.1109,2.1109,2.1109,2.1109,2.1109,2.1109,2.1109,2.1109,2.1109,2.1109,2.1109,0.0,0.0,0.0,0.0,0.0,0.0,2.5742,2.5742,2.5742,2.5742,2.5742,2.5742,2.5742,2.5742,2.5742,2.5742,2.5742,2.5742,2.5742,2.5742,2.5742,2.5742,2.5742,2.5742,2.5742,2.5742,2.5742,2.5742,2.5742,2.5742,2.5742,2.5742,2.5742,2.5742,2.5742,2.5742,2.5742,2.5742,2.5742,2.5742,2.5742,2.5742,2.5742,0.0,0.0,0.0,0.0,0.0,0.0,0.0,0.0,0.0,0.0,0.0,0.0,0.0,0.0,0.0,0.0,0.0,0.0,0.0,0.0,0.0,0.0,0.0,0.0,0.0,0.0,0.0,0.0,0.0,0.0,0.0,0.0,2.6962,2.5406,2.6261,2.6559,2.5439,2.676,2.6726,2.4044,2.5078,2.5242,2.365,2.2952,2.2792,2.3481,2.3001,2.3161,2.3974,2.2931,2.2457,2.2697,2.1479,2.0909,2.0989,2.0989,2.1036,2.1109,2.1109,2.1109,2.1109,2.1109,2.1109,2.1109,2.1109,2.1109,2.1109,2.1109,2.1109,2.1109,2.1109,2.1109,2.1109,0.0,0.0,0.0,0.0,0.0,0.0,2.5742,2.5742,2.5742,2.5742,2.5742,2.5742,2.5742,2.5742,2.5742,2.5742,2.5742,2.5742,2.5742,2.5742,2.5742,2.5742,2.5742,2.5742,2.5742,2.5742,2.5742,2.5742,2.5742,2.5742,2.5742,2.5928,2.6006,2.6016,2.6191,2.6269,2.6269,2.6269,2.6269,2.6269,2.6269,2.6055,2.5742,2.5742,2.5742,2.5742,2.5742,2.5742,2.5742,2.5742,0.0,0.0,0.0,0.0,0.0,0.0,0.0,0.0,0.0,0.0,0.0,0.0,0.0,0.0,0.0,0.0,0.0,0.0,0.0,0.0,0.0,0.0,0.0,0.0,2.7726,2.8018,2.7394,2.7841,2.8018,2.7394,2.7985,2.7943,2.6412,2.6655,2.6554,2.5637,2.5169,2.4671,2.419,2.4102,2.3906,2.3612,2.2791,2.2405,2.2591,2.1607,2.1109,2.1109,2.1109,2.1109,2.1109,2.1109,2.1176,0.0,2.1296,2.1363,2.1476,2.1476,2.1476,0.0,0.0,0.0,0.0,0.0,2.1476,2.1476,0.0,0.0,0.0,0.0,0.0,0.0,2.5742,2.5742,2.5742,2.5742,2.5742,2.5742,2.5742,2.5742,2.5742,2.5742,2.5742,2.5742,2.5742,2.5742,2.5742,2.5742,2.5742,2.5742,2.5742,2.5742,2.5742,2.5742,2.5781,2.581,2.582,2.626,2.6455,2.6475,2.6846,2.7012,2.7012,2.7012,2.7012,2.7012,2.7012,2.6562,2.5879,2.5879,2.5879,2.5879,2.5879,2.5879,2.5879,2.5879,0.0,0.0,0.0,0.0,0.0,0.0,0.0,0.0,0.0,0.0,0.0,0.0,0.0,0.0,0.0,0.0,0.0,0.0,0.0,0.0,0.0,0.0,0.0,0.0,2.8359,2.8506,2.8935,2.8672,2.8574,2.8955,2.8994,2.9141,2.9531,2.8446,2.7537,2.7422,2.7794,2.6828,2.3846,0.0,0.0,0.0,0.0,2.1964,2.1964,2.1601,2.1369,2.1402,2.1283,2.1176,2.1209,2.1209,2.1349,2.1603,2.1603,2.175,2.1984,2.1984,2.2004,2.2004,2.1717,2.1603,2.163,2.1891,2.1984,2.1984,0.0,0.0,0.0,0.0,0.0,0.0,2.5742,2.5742,2.5742,2.5742,2.5742,2.5742,2.5742,2.5742,2.5742,2.5742,2.5742,2.5742,2.5742,2.5742,2.5742,2.5742,2.5742,2.5742,2.5742,2.5742,2.5742,2.5742,2.6094,2.626,2.6269,2.6699,2.6894,2.6894,2.6982,2.7012,2.7012,2.7012,2.7012,2.7012,2.7012,2.6914,2.6768,2.6768,2.6768,2.6768,2.6768,2.6768,2.6768,2.6768,2.6768,2.6768,2.6768,2.6768,0.0,0.0,0.0,0.0,0.0,0.0,0.0,0.0,0.0,0.0,0.0,0.0,0.0,0.0,0.0,0.0,0.0,0.0,0.0,2.8631,2.8799,2.8945,2.9385,2.9375,2.9355,2.9434,2.9443,2.9473,2.956,2.9637,2.9126,2.7839,2.8084,2.8063,2.7458,2.7767,0.0,2.8929,2.7692,2.6961,2.6961,2.4417,2.3208,2.3464,0.0,0.0,2.1817,2.1817,2.1844,2.1904,2.1904,2.1937,2.1984,2.1984,2.2124,2.2305,2.2017,2.1904,2.1911,2.1964,2.1984,2.1984,0.0,0.0,0.0,0.0,0.0,0.0,2.5742,2.5742,2.5742,2.5742,2.5742,2.5742,2.5742,2.5742,2.5742,2.5742,2.5742,2.5742,2.5742,2.5742,2.5742,2.5742,2.5742,2.5742,2.5742,2.5742,2.585,2.6064,2.6279,2.6494,2.6709,2.7139,2.7344,2.7353,2.7559,2.7656,2.7656,2.7656,2.7656,2.7656,2.7656,2.7656,2.7607,2.7178,2.7012,2.7012,2.7012,2.7012,2.7012,2.7012,2.7012,2.7012,2.7012,2.7012,2.706,0.0,0.0,0.0,0.0,0.0,0.0,0.0,0.0,0.0,0.0,0.0,0.0,0.0,0.0,2.8603,0.0,0.0,2.9004,2.9209,2.9248,2.9394,2.9824,2.9883,2.9883,2.9883,2.9883,2.9971,3.0205,3.042,3.019,2.9348,2.9536,2.9285,2.8417,2.8417,2.8059,2.7228,2.6541,2.5772,2.503,2.3598,2.2886,2.3035,2.2148,2.1844,2.1984,2.1984,2.2064,2.2205,2.2205,2.2285,2.2425,2.2425,2.2512,2.2625,2.2478,2.2425,2.2425,2.2425,2.2425,2.2425,0.0,0.0,0.0,0.0,0.0,0.0,0.0,2.5742,2.5742,2.5742,2.5742,2.5742,2.5742,2.5742,2.5742,2.5742,2.5742,2.5742,2.5742,2.5742,2.5742,2.5742,2.5742,2.5742,2.5742,2.5742,2.5947,2.6387,2.6465,2.6728,2.7148,2.7588,2.7783,2.7803,2.8144,2.8388,2.8698,2.8698,2.8794,2.8996,2.8794,2.8698,2.8618,2.7924,2.7462,2.7266,2.7266,2.7266,2.7266,2.7266,2.7266,2.7266,2.7266,2.7266,2.7334,2.7685,2.7783,0.0,0.0,0.0,0.0,0.0,0.0,0.0,0.0,0.0,2.8418,2.8418,2.875,2.9043,2.9043,2.9336,2.96,2.9678,2.9687,2.9844,3.0273,3.0332,3.0332,3.0332,3.0332,3.0478,3.0859,3.0889,3.0889,3.0889,3.0889,3.0274,2.8911,2.8984,2.7806,2.5258,2.5469,2.5021,2.3647,2.3515,2.3543,2.3608,2.2967,2.2613,2.2675,2.2284,2.2285,2.2505,2.2505,2.2639,2.2859,2.2859,2.2859,2.2859,2.2859,2.2859,2.2859,2.2859,2.2859,2.2859,0.0,0.0,0.0,0.0,0.0,0.0,0.0,0.0,2.5742,2.5742,2.5742,2.5742,2.5742,2.5742,2.5742,2.5742,2.5742,2.5742,2.5742,2.5742,2.5742,2.5742,2.5742,2.5742,2.5742,2.5742,2.5947,2.6387,2.6768,2.7168,2.7598,2.8027,2.8223,2.8223,2.8271,2.9006,3.012,3.012,3.0721,3.1735,3.0514,3.012,3.011,3.0005,2.9161,2.8144,2.8144,2.8144,2.8144,2.8144,2.8144,2.8144,2.8144,2.8144,2.8154,2.8203,2.8223,2.8232,2.8281,2.8291,2.8291,2.8291,2.8291,2.8291,0.0,0.0,2.8848,2.8848,2.9189,2.9502,2.9502,2.9531,2.9687,3.0068,3.0127,3.0293,3.0752,3.081,3.081,3.081,3.081,3.083,3.0889,3.0889,3.0889,3.0889,3.0889,3.0772,3.0645,3.0994,3.095,3.0581,3.1111,3.1209,3.1077,2.9581,2.901,2.9226,2.6265,2.4864,2.501,2.3562,2.2779,2.2812,2.2812,2.2832,2.2859,2.2859,2.2859,2.2859,2.2859,2.2859,2.2859,2.2859,2.2859,2.2859,0.0,0.0,0.0,0.0,0.0,0.0,0.0,0.0,0.0,2.5742,2.5742,2.5742,2.5742,2.5742,2.5742,2.5742,2.5742,2.5742,2.5742,2.5742,2.5742,2.5742,2.5742,2.5742,2.5742,2.5742,2.6064,2.6758,2.6934,2.7363,2.8037,2.8213,2.8291,2.8291,2.8291,2.8591,2.9102,2.9102,2.9911,3.1122,3.0514,3.0721,3.1429,3.0618,3.0421,3.0514,2.9713,2.9513,0.0,2.8601,2.8291,2.8291,2.8291,2.8291,2.8291,2.8291,2.8291,2.8291,2.8291,2.8291,2.835,2.8594,2.8662,2.8721,2.8975,2.917,2.9297,2.9297,2.9639,2.9932,2.9932,3.0156,3.04,0.0,3.0605,3.0674,3.0859,3.0889,3.0889,3.0889,3.0889,3.0889,3.0889,3.0889,3.0996,3.124,3.126,3.1367,3.1621,3.1797,3.1513,3.0494,3.0887,3.0595,2.9573,2.7981,2.7385,2.74,2.5048,2.3933,2.3924,2.3263,2.2859,2.2859,2.2859,2.2859,2.2859,2.2859,2.2859,2.2859,2.2859,2.2859,2.2859,2.2859,2.2859,2.2859,0.0,0.0,0.0,0.0,0.0,0.0,0.0,0.0,0.0,0.0,2.5742,2.5742,2.5742,2.6284,2.6476,2.5732,2.6014,2.6197,2.6197,2.5927,2.583,2.6197,2.5927,2.5742,2.5742,2.5742,2.6192,2.7321,2.7147,2.7589,2.8625,2.8436,2.8291,2.8291,2.8698,2.9112,2.9408,2.9817,3.0721,3.1927,3.1531,3.2039,3.2744,3.1836,3.1836,3.2039,3.0317,3.0016,3.012,2.8804,2.8291,2.8291,2.8291,2.8291,2.8291,2.8291,2.8369,2.8496,2.8613,2.8643,2.8721,2.9023,2.9092,2.918,2.9502,2.9658,2.9746,2.9746,3.0088,3.0391,3.0391,3.0664,3.0889,3.0889,3.0889,3.0889,3.0889,3.0889,3.0889,3.0889,3.0996,3.1064,3.1064,3.1064,3.1191,3.1494,3.1631,3.1836,3.2148,3.2275,3.1825,3.0649,3.041,2.9837,2.8544,2.6978,2.618,2.618,2.4452,2.3659,2.3665,2.3133,2.2859,2.2859,2.2859,2.2859,2.2859,2.2859,2.2859,2.2859,2.2859,2.2859,2.2859,2.2859,2.2859,2.2859,0.0,0.0,0.0,0.0,0.0,0.0,0.0,0.0,0.0,0.0,0.0,0.0,0.0,2.7851,2.8308,2.5917,2.6849,2.7494,2.7494,2.639,2.6294,2.7494,2.639,2.5742,2.5742,2.5742,2.6513,2.8185,2.7392,2.7831,2.9463,2.87,2.8291,2.8398,2.9608,3.0927,3.2241,3.3662,3.4969,3.6061,3.4775,3.4288,3.4288,3.4276,3.3464,3.1927,2.9303,2.9207,3.012,2.8804,2.8291,2.8291,2.8291,2.8291,2.8291,2.8291,2.8584,2.8994,2.9414,2.9531,2.9531,2.9551,2.9551,2.9551,2.957,2.9883,3.0176,3.0176,3.0547,3.0869,3.0869,3.0879,3.0889,3.0889,3.0889,3.0889,3.0889,3.0889,3.0889,3.0889,3.125,3.1504,0.0,3.1504,3.1504,3.1514,3.1904,3.2158,3.2168,3.2559,3.2773,3.2649,3.1466,3.0753,3.0753,2.8943,2.8172,2.804,2.6314,2.5383,2.5383,2.3659,2.2859,2.2859,2.2859,2.2859,2.2859,2.2859,2.2859,2.2859,2.2859,2.2859,2.2859,2.2859,2.2859,2.2859,0.0,0.0,0.0,0.0,0.0,0.0,0.0,0.0,0.0,0.0,0.0,0.0,0.0,0.0,0.0,0.0,2.7767,2.7589,2.7589,2.722,2.6754,2.639,2.6754,2.6572,2.5742,2.5742,2.6133,2.7051,2.6714,2.7157,2.8364,2.891,2.9331,2.9608,3.012,3.0514,3.0927,3.0525,3.1633,3.354,3.2241,3.3353,3.5571,3.365,3.3848,3.4642,0.0,3.0721,3.0214,2.9807,2.8996,2.8291,2.8291,2.8486,2.8769,2.9053,2.9238,2.9385,2.9531,2.957,2.9639,2.9912,2.999,3.0068,3.0371,3.0557,3.0654,3.0654,3.0781,3.0889,3.0889,3.0889,3.0889,3.0889,3.0889,3.0889,3.0889,3.1133,3.1309,3.1309,3.1689,0.0,0.0,0.0,0.0,3.2344,3.25,3.2705,3.2978,3.3135,3.3213,3.3213,3.2815,3.2492,3.2492,3.078,2.9995,2.9856,2.6964,2.4851,2.3795,2.3126,2.2859,2.2859,2.2859,2.2859,2.2859,2.2859,2.2859,2.2859,2.2859,2.2859,2.2859,2.2859,2.2859,2.2859,0.0,0.0,0.0,0.0,0.0,0.0,0.0,0.0,0.0,0.0,0.0,0.0,0.0,0.0,0.0,0.0,0.0,2.8866,2.8866,2.8495,2.8038,2.7662,2.7579,2.74,2.703,2.6572,2.7064,2.8464,2.7523,2.7702,2.8818,2.8983,2.9106,2.9382,3.0047,3.0317,3.0317,3.0432,3.144,3.3055,3.2632,3.4032,3.625,3.4447,3.4545,0.0,3.365,3.1836,3.0317,3.0317,2.9713,2.893,2.8564,2.8809,2.9238,2.9668,2.9795,2.9834,3.0,3.0039,3.0107,3.0381,3.0449,3.0518,3.082,3.0889,3.0889,3.0889,3.0889,3.0889,3.0889,3.0889,3.0947,3.1094,3.1113,3.1172,3.1328,3.1582,3.1748,3.1748,3.2129,3.2393,0.0,0.0,0.0,3.2783,3.293,3.3135,3.3408,3.3418,3.3418,3.3418,3.2765,3.2492,3.2492,3.078,2.9596,2.8935,2.6565,2.4588,2.2859,2.2859,2.2859,2.2859,2.2859,2.2859,2.2859,2.2859,2.2859,2.2859,2.2859,2.2859,2.2859,2.2859,2.2859,2.2859,0.0,0.0,0.0,0.0,0.0,0.0,0.0,0.0,0.0,0.0,0.0,0.0,0.0,0.0,0.0,0.0,0.0,0.0,3.1223,3.0135,2.9954,3.1033,2.8947,2.8319,2.9407,2.8319,2.9097,3.1996,2.9452,2.9128,3.0852,2.8879,2.792,2.8083,2.9694,3.0493,3.0721,3.3266,3.4374,3.4483,3.5667,3.625,3.6358,3.6358,3.5571,3.4483,3.4483,3.2855,3.0618,3.0421,3.0214,3.0099,2.9203,2.9219,2.9648,3.0068,3.0215,3.0332,3.0771,3.0889,3.0889,3.0889,3.0889,3.0889,3.0889,3.0889,3.0889,3.0889,3.0889,3.0889,0.0,0.0,3.1025,3.1426,3.1504,3.166,3.208,3.2178,3.2207,0.0,0.0,0.0,0.0,0.0,0.0,3.2861,0.0,3.3418,3.3418,3.3418,3.3418,3.3418,3.1826,3.0909,3.0909,2.9344,2.7503,2.5778,2.5778,2.4851,2.3126,2.3126,2.3133,2.2996,2.2996,2.2996,2.2859,2.2859,2.2859,2.2859,2.2859,2.2859,2.2859,2.2859,2.2859,2.2859,0.0,0.0,0.0,0.0,0.0,0.0,0.0,0.0,0.0,0.0,0.0,0.0,0.0,0.0,0.0,0.0,0.0,0.0,3.1122,3.0944,3.0496,2.9852,3.0135,3.0045,2.9407,2.9131,2.929,3.0057,2.9413,2.9471,3.022,3.0744,3.1388,3.2007,3.2523,3.2897,3.3365,3.2955,3.3464,3.4385,3.365,3.4545,3.6263,3.5271,3.5271,3.587,3.587,3.5451,3.4338,3.1327,2.9608,2.8767,2.8888,2.9219,2.9648,3.0068,3.0439,3.0742,3.0859,3.0889,3.0889,3.0889,3.0889,3.0889,3.0889,3.0889,3.0889,3.0889,3.0889,3.0889,3.0889,0.0,0.0,3.1035,3.1309,0.0,3.167,3.2236,0.0,3.2637,0.0,3.3262,3.3262,3.3359,0.0,0.0,3.3359,3.3418,3.3418,3.3418,3.3418,3.3418,3.3019,3.2756,3.2756,3.2237,3.1176,2.9457,2.9457,2.8541,2.6847,2.6847,2.6046,2.4851,2.4851,2.406,2.2859,2.2859,2.2859,2.2859,2.2859,2.2859,2.2859,2.2859,2.2859,2.2859,0.0,0.0,0.0,0.0,0.0,0.0,0.0,0.0,0.0,0.0,0.0,0.0,0.0,0.0,0.0,0.0,0.0,0.0,0.0,3.2052,3.1689,3.1057,3.1134,3.1134,3.1057,3.0496,3.0612,3.1388,3.0612,3.0479,3.0882,3.0521,3.0627,3.1157,3.0798,3.114,3.1912,3.1328,3.1928,0.0,0.0,3.4154,3.5463,3.5367,3.5763,3.6358,3.5763,3.4751,3.3231,3.0411,2.903,2.8643,2.9072,2.9502,2.9932,3.0371,3.0684,3.0889,3.0889,3.0889,3.0889,3.0889,3.0889,3.0889,3.0889,3.0889,3.0889,3.0889,3.0889,3.0947,3.1133,3.1016,3.1074,0.0,0.0,0.0,3.2305,3.2764,3.3066,0.0,3.3281,0.0,3.3418,3.3418,3.3418,0.0,3.3418,3.3418,3.3418,3.3418,3.3418,3.3418,3.3418,3.3418,3.3418,3.3418,3.2492,3.0771,3.0771,2.9865,2.8172,2.8172,2.7238,2.551,0.0,2.4452,2.2859,2.2859,2.2859,2.2859,2.2859,2.2859,2.2859,2.2859,2.2859,2.2859,0.0,0.0,0.0,0.0,0.0,0.0,0.0,0.0,0.0,0.0,2.6945,0.0,0.0,0.0,0.0,0.0,0.0,0.0,0.0,0.0,3.3081,3.3081,3.2052,3.1965,3.3081,3.2052,3.2183,3.3796,3.2183,3.174,3.2208,2.9952,2.8764,2.8657,2.8198,2.8504,2.9349,3.0063,3.0965,3.2127,3.3687,3.4423,3.4775,0.0,3.6263,3.625,3.4872,3.2755,3.0317,2.9006,2.8633,2.8906,2.9346,2.9775,3.0205,3.0664,3.084,3.0889,3.0889,3.0889,3.0889,3.0889,3.0889,3.0889,3.0889,3.0889,3.0889,3.0889,3.0889,3.1025,3.1435,3.1221,3.1357,3.2519,0.0,3.25,3.3232,3.3389,3.3418,3.3418,3.3418,3.3418,3.3418,3.3418,3.3418,3.3418,3.3418,3.3418,3.3418,3.3418,3.3418,3.3418,3.3418,3.3418,3.3418,3.3418,3.2629,3.1166,3.1166,3.0393,2.8829,2.8829,2.7768,2.5912,0.0,0.0,2.2859,2.2859,2.2859,2.2859,2.2859,2.2859,2.2859,2.2859,2.2859,2.2859,0.0,0.0,0.0,0.0,0.0,0.0,0.0,0.0,0.0,0.0,2.7494,2.7683,0.0,0.0,0.0,0.0,0.0,0.0,0.0,0.0,0.0,3.3081,3.2884,3.2884,3.3081,3.2884,3.2934,3.3219,3.2934,3.2847,3.2947,3.2474,3.1973,3.147,3.2309,3.2492,3.223,3.3377,3.425,3.476,3.3971,3.4666,3.5966,3.5078,0.0,0.0,3.4872,3.3365,3.1735,3.0421,2.9248,2.8476,2.8896,2.9336,2.9766,3.0195,3.0596,3.0889,3.0889,3.0889,3.0889,3.0889,3.0889,3.0889,3.0889,3.0889,3.0889,3.0889,3.0889,3.1025,3.1435,3.1455,3.1601,3.2187,3.25,3.2734,3.2881,3.3203,3.3418,0.0,3.3418,3.3418,3.3418,3.3418,0.0,0.0,0.0,3.3418,3.3418,3.3418,3.3418,3.3418,3.3418,3.3418,3.3418,3.3418,3.3292,3.2892,3.2892,3.2765,3.2502,3.2502,3.0789,2.7776,2.7776,0.0,2.2859,2.2859,2.2859,2.2859,2.2859,2.2859,2.2859,2.2859,2.2859,2.2859,0.0,0.0,0.0,0.0,0.0,0.0,0.0,2.7125,2.7861,2.8402,2.8495,2.8495,2.8495,2.9039,2.9954,0.0,0.0,0.0,0.0,0.0,0.0,3.2152,3.2797,3.3081,3.3081,3.3081,3.3081,3.3081,0.0,3.3081,3.3081,3.2426,3.1922,3.1615,3.1615,3.1746,3.2007,3.2177,3.2819,3.3582,3.3552,3.4018,3.4868,3.457,0.0,0.0,3.4581,3.3464,3.2129,3.0721,2.9408,2.8408,2.9053,2.9404,2.9707,3.0361,3.0713,3.0889,3.0889,3.0889,3.0889,3.0889,3.0889,3.0889,3.0889,3.0889,3.0889,3.0889,3.1064,3.1348,3.1777,3.1855,3.207,3.2715,3.2803,3.2871,3.3086,3.3301,3.3418,3.3418,3.3418,3.3418,3.3418,3.3418,0.0,0.0,0.0,3.3418,3.3418,3.3418,3.3418,3.3418,3.3418,3.3418,3.3418,3.3418,3.3418,3.3418,3.3418,3.3418,3.3418,3.2492,3.0651,2.8172,2.7238,0.0,2.2859,2.2859,2.2859,2.2859,2.2859,2.2859,2.2859,2.2859,2.2859,2.2859,0.0,0.0,0.0,0.0,0.0,0.0,0.0,2.7125,2.8132,2.959,2.9772,2.9772,2.9772,2.9772,3.0586,0.0,0.0,0.0,0.0,0.0,0.0,0.0,0.0,0.0,3.3068,0.0,0.0,3.3081,3.3081,0.0,0.0,0.0,0.0,0.0,3.0226,3.0316,3.1158,3.0823,3.1342,0.0,0.0,3.347,0.0,0.0,0.0,0.0,0.0,3.3055,3.1724,3.0618,2.9408,2.8447,2.9297,2.957,2.9746,3.0635,3.0889,3.0889,3.0889,3.0889,3.0889,3.0889,3.0889,3.0889,3.0889,3.0889,3.0889,3.0889,3.123,3.165,3.209,3.2246,3.2549,3.3301,3.3144,3.3047,3.3379,3.3418,3.3418,3.3418,3.3418,0.0,3.3418,3.3418,0.0,0.0,0.0,0.0,3.3418,3.3418,3.3418,3.3418,3.3418,3.3418,3.3418,3.3418,3.3418,3.3418,3.3418,3.3418,3.3292,3.1963,3.0393,2.8689,2.7238,0.0,0.0,2.3393,2.3263,2.2859,2.2859,2.2859,2.2859,2.2859,2.2859,2.2859,0.0,0.0,0.0,0.0,0.0,0.0,0.0,2.8226,2.8402,3.0765,3.1033,3.1033,3.1033,3.1033,3.1134,0.0,0.0,0.0,0.0,0.0,0.0,0.0,0.0,0.0,0.0,0.0,0.0,3.3081,0.0,0.0,0.0,0.0,0.0,0.0,0.0,3.1122,3.1223,3.2388,0.0,0.0,0.0,0.0,0.0,0.0,0.0,0.0,0.0,3.1633,3.0525,3.0317,2.9408,2.8447,2.9297,2.957,2.9746,3.0635,3.0889,3.0889,3.0889,3.0889,3.0889,3.0889,3.0889,3.0889,3.0889,3.0889,3.0889,3.0889,3.123,3.165,3.209,3.248,3.2891,3.335,3.3389,3.3379,3.3418,3.3418,3.3418,3.3418,3.3418,3.3418,3.3418,3.3418,0.0,0.0,0.0,0.0,3.3418,3.3418,3.3418,3.3418,3.3418,3.3418,3.3418,3.3418,3.3418,3.3418,3.3418,3.3418,3.3418,3.3292,3.2228,3.0513,3.0401,0.0,0.0,2.5248,2.4324,2.2859,2.2859,2.2859,2.2859,2.2859,2.2859,2.2859,0.0,0.0,0.0,0.0,0.0,0.0,2.8038,2.8495,2.9315,3.0944,3.1865,3.2326,3.2326,3.2326,3.2326,3.2326,0.0,0.0,0.0,0.0,0.0,0.0,0.0,0.0,0.0,0.0,3.3081,3.3081,3.3081,0.0,0.0,0.0,0.0,0.0,0.0,0.0,3.1223,3.1777,0.0,0.0,0.0,0.0,0.0,0.0,0.0,0.0,0.0,0.0,3.0411,3.1224,3.012,2.8447,2.9297,2.957,2.9746,3.0635,3.0889,3.0889,3.0889,3.0889,3.0889,3.0889,3.0889,3.0889,3.0889,3.0889,3.0889,3.0889,3.1435,3.1963,3.2139,3.2725,3.3223,3.3389,3.3418,3.3418,3.3418,3.3418,3.3418,3.3418,3.3418,0.0,0.0,0.0,0.0,0.0,0.0,0.0,3.3418,3.3418,3.3418,3.3418,3.3418,3.3418,3.3418,3.3418,3.3418,3.3418,3.3418,3.3418,3.3418,3.2355,3.1433,3.0771,2.9744,0.0,0.0,2.5912,2.5121,2.4324,2.3263,2.2859,2.2859,2.2859,2.2859,2.2859,0.0,0.0,0.0,0.0,0.0,2.611,2.74,2.8588,2.9863,3.1033,3.2326,3.3081,3.3081,3.3081,3.3081,3.3081,3.3081,0.0,0.0,0.0,0.0,0.0,0.0,0.0,0.0,0.0,3.2513,3.2513,3.2896,3.3081,0.0,0.0,0.0,0.0,0.0,0.0,0.0,0.0,0.0,0.0,0.0,0.0,0.0,0.0,0.0,0.0,0.0,0.0,0.0,0.0,0.0,2.8447,2.9297,2.957,2.9746,3.0635,3.0889,3.0889,3.0889,3.0889,3.0889,3.0889,3.0889,3.0889,3.0889,3.0889,3.0889,3.0889,3.1465,3.2012,3.2148,3.2754,3.3281,3.3398,3.3418,3.3418,3.3418,3.3418,3.3418,3.3418,0.0,3.3418,0.0,0.0,0.0,0.0,0.0,0.0,0.0,3.3418,3.3418,3.3418,3.3418,3.3418,3.3418,3.3418,3.3418,3.3418,3.3418,3.3418,3.3418,3.21,3.157,3.1433,0.0,0.0,0.0,2.6839,2.5651,2.4588,2.3393,2.2859,2.2859,2.2859,2.2859,2.2859,0.0,0.0,0.0,0.0,0.0,0.0,2.74,2.8588,2.9863,3.1033,3.2326,3.3081,3.3081,3.3081,3.3081,3.3081,3.3081,0.0,0.0,0.0,0.0,0.0,0.0,0.0,0.0,0.0,3.1223,3.1223,3.2513,3.3081,3.3068,3.1777,3.1865,0.0,0.0,0.0,0.0,0.0,0.0,0.0,0.0,0.0,0.0,0.0,0.0,0.0,0.0,0.0,0.0,0.0,0.0,0.0,0.0,2.957,2.9746,3.0635,3.0889,3.0889,3.0889,3.0889,3.0889,3.0889,3.0889,3.0889,3.0889,3.0889,3.0889,3.0889,3.123,3.165,3.209,3.2519,3.2939,3.335,3.3418,3.3418,3.3418,3.3418,3.3418,3.3418,0.0,3.3418,3.3418,0.0,0.0,0.0,0.0,0.0,0.0,3.3418,3.3418,3.3418,3.3418,3.3418,3.3418,3.3418,3.3418,3.3418,3.3418,3.3418,3.3418,3.3418,3.3418,0.0,0.0,0.0,0.0,2.8172,2.6054,2.2866,2.2866,2.2859,2.2859,2.2859,2.2859,2.2859,0.0,0.0,0.0,0.0,0.0,0.0,0.0,2.8588,2.9863,3.1033,3.2326,3.3081,3.3081,3.3081,3.3081,3.3081,3.2326,0.0,0.0,0.0,0.0,0.0,0.0,0.0,0.0,0.0,3.1223,3.1223,3.1589,3.1777,3.1777,3.2239,3.2698,3.3068,0.0,0.0,0.0,0.0,0.0,0.0,0.0,0.0,0.0,0.0,0.0,0.0,0.0,0.0,0.0,0.0,0.0,0.0,0.0,0.0,0.0,3.0254,3.0644,3.0889,3.0889,3.0889,3.0889,3.0889,3.0889,3.0889,3.0889,3.0889,3.0889,3.0889,3.123,3.165,3.209,3.251,3.293,3.335,3.3418,3.3418,3.3418,3.3418,3.3418,3.3418,3.3418,3.3418,0.0,0.0,0.0,0.0,0.0,0.0,0.0,3.3418,3.3418,3.3418,3.3418,3.3418,3.3418,3.3418,3.3418,3.3418,3.3418,3.3418,3.3418,3.3418,0.0,0.0,0.0,0.0,0.0,2.8689,2.6839,2.4588,2.34,2.2859,2.2859,2.2859,2.2859,2.2859,0.0,0.0,0.0,0.0,0.0,0.0,0.0,2.7945,2.9131,3.0395,3.1601,3.2612,3.3081,3.3081,3.3081,3.3081,3.1965,0.0,0.0,0.0,0.0,0.0,0.0,0.0,2.9407,3.0135,3.0496,3.0496,3.0944,3.1223,3.1223,3.2052,3.2426,3.2339,3.2052,3.1965,0.0,0.0,0.0,0.0,0.0,0.0,3.396,0.0,0.0,0.0,0.0,0.0,0.0,0.0,0.0,0.0,0.0,0.0,0.0,0.0,3.0527,3.0889,3.0889,3.0889,3.0889,3.0889,3.0889,3.0889,3.0889,3.0889,3.0889,3.0889,3.1103,3.1465,3.206,3.2383,3.2754,3.333,3.3418,3.3418,3.3418,3.3418,0.0,3.3418,0.0,0.0,0.0,0.0,0.0,0.0,0.0,0.0,0.0,3.3418,3.3418,3.3418,3.3418,3.3418,3.3418,3.3418,3.3418,3.3418,3.3418,3.3418,3.3418,3.3418,0.0,0.0,0.0,0.0,0.0,2.8698,2.6714,2.4452,2.3256,2.2859,2.2859,2.2859,2.2859,2.2859,0.0,0.0,0.0,0.0,0.0,0.0,0.0,2.6754,2.8049,2.9131,3.0406,3.1677,3.2797,3.3081,3.3081,3.3081,0.0,0.0,0.0,0.0,0.0,0.0,0.0,0.0,2.9407,2.9315,2.9315,2.9407,3.0496,3.1134,3.1223,3.1223,3.1223,3.14,3.2513,3.2982,0.0,0.0,0.0,0.0,0.0,0.0,0.0,0.0,0.0,0.0,0.0,0.0,0.0,0.0,0.0,0.0,0.0,0.0,0.0,0.0,0.0,0.0,0.0,3.0889,3.0889,3.0889,3.0889,3.0889,3.0889,3.0889,0.0,3.0889,3.0889,3.1143,3.1973,3.2148,3.2432,3.3242,3.3408,3.3418,3.3418,3.3418,0.0,0.0,3.3418,0.0,0.0,0.0,0.0,0.0,0.0,0.0,0.0,3.3418,3.3418,3.3418,3.3418,3.3418,3.3418,3.3418,3.3418,3.3418,3.3418,3.3418,3.3418,3.3418,0.0,0.0,0.0,0.0,0.0,2.8435,2.6314,2.3126,2.3126,2.2996,2.2859,2.2859,2.2859,2.2859,0.0,0.0,0.0,0.0,0.0,0.0,0.0,0.0,0.0,0.0,2.9863,3.1311,3.1589,3.2513,3.3081,0.0,0.0,0.0,0.0,0.0,0.0,0.0,0.0,0.0,2.9407,2.8495,2.8505,2.9407,2.967,3.0316,3.1223,3.1223,3.1677,3.2612,3.1965,3.1677,0.0,0.0,0.0,0.0,0.0,0.0,0.0,0.0,0.0,0.0,3.292,3.3836,0.0,0.0,0.0,0.0,0.0,0.0,0.0,0.0,3.0019,3.0439,3.0791,0.0,3.0889,3.0889,3.0889,3.0889,0.0,3.0889,3.0889,3.0889,3.0889,3.1055,3.1572,3.1943,3.2334,3.2861,3.3213,3.3418,3.3418,3.3418,0.0,0.0,0.0,0.0,0.0,0.0,0.0,0.0,0.0,0.0,0.0,3.3418,3.3418,3.3418,3.3418,3.3418,3.3418,3.3418,3.3418,3.3418,3.3418,3.3418,3.3418,3.3418,0.0,0.0,0.0,0.0,3.0254,3.0254,2.8147,2.4851,2.4851,2.406,2.2859,2.2859,2.2859,2.2859,0.0,0.0,0.0,0.0,0.0,0.0,0.0,0.0,0.0,0.0,0.0,3.0586,3.1122,3.2326,0.0,0.0,0.0,0.0,0.0,0.0,0.0,0.0,0.0,3.0855,3.0226,2.9039,2.8773,2.9407,2.9407,2.9772,3.0406,3.0406,3.0765,3.1424,3.1223,3.15,0.0,0.0,0.0,0.0,3.2525,0.0,0.0,0.0,0.0,0.0,3.2621,3.3452,0.0,2.9911,2.9713,3.1019,0.0,0.0,0.0,0.0,2.9863,3.0303,3.0762,3.0889,3.0889,3.0889,3.0889,3.0889,3.0889,3.0889,3.0889,3.0889,3.0889,3.1025,3.1435,3.1875,3.2305,3.2725,3.3144,3.3418,3.3418,0.0,3.3418,3.3418,0.0,0.0,0.0,0.0,0.0,0.0,0.0,0.0,0.0,3.3418,3.3418,3.3418,3.3418,3.3418,3.3418,3.3418,3.3418,3.3418,3.3418,3.3418,3.3418,3.3418,3.3418,0.0,0.0,0.0,3.0771,3.0771,2.8673,2.551,2.551,2.4452,2.2859,2.2859,2.2859,2.2859,0.0,0.0,0.0,0.0,0.0,0.0,0.0,0.0,0.0,0.0,0.0,0.0,0.0,0.0,0.0,0.0,0.0,0.0,0.0,0.0,0.0,0.0,3.0676,3.1223,3.1223,3.0045,2.9498,2.967,2.967,2.9772,2.9954,2.9772,2.967,2.9772,3.0956,3.2052,0.0,0.0,0.0,0.0,3.2982,0.0,0.0,0.0,0.0,0.0,0.0,0.0,0.0,2.9922,2.9408,3.012,2.8698,0.0,0.0,0.0,0.0,0.0,3.0752,3.0889,3.0889,3.0889,3.0889,3.0889,3.0889,3.0889,3.0889,3.0889,3.0889,3.0996,3.1357,3.1836,0.0,3.2637,3.3105,3.3418,3.3418,3.3418,3.3418,0.0,0.0,0.0,0.0,0.0,0.0,0.0,0.0,0.0,0.0,3.3418,3.3418,3.3418,3.3418,3.3418,3.3418,3.3418,3.3418,3.3418,3.3418,3.3418,3.3418,3.3418,3.3418,0.0,0.0,0.0,3.1176,3.0909,2.8935,2.5912,2.5644,2.4452,2.2859,2.2859,2.2859,2.2859,0.0,0.0,0.0,0.0,0.0,0.0,0.0,0.0,0.0,0.0,0.0,0.0,0.0,0.0,0.0,0.0,0.0,0.0,0.0,0.0,0.0,3.0956,3.1122,3.1223,3.1223,3.0045,2.9863,3.0944,3.0944,3.15,3.2525,3.1412,3.0944,3.0944,3.2239,3.2896,3.3081,3.3081,0.0,0.0,0.0,0.0,0.0,0.0,0.0,0.0,0.0,0.0,0.0,3.103,3.012,3.012,2.8698,0.0,0.0,0.0,0.0,0.0,3.0664,3.0889,3.0889,3.0889,3.0889,3.0889,3.0889,3.0889,3.0889,3.0889,3.0889,3.0908,3.0976,3.1631,3.2187,0.0,0.0,3.3418,0.0,0.0,0.0,0.0,0.0,0.0,0.0,0.0,0.0,0.0,0.0,0.0,0.0,3.3418,3.3418,3.3418,3.3418,3.3418,3.3418,3.3418,3.3418,3.3418,3.3418,3.3418,3.3418,3.3418,3.3418,0.0,0.0,3.3292,3.2892,3.1433,2.9596,2.7635,2.6046,2.4452,2.2859,2.2859,2.2859,2.2859,0.0,0.0,0.0,0.0,0.0,0.0,0.0,0.0,0.0,0.0,0.0,0.0,0.0,0.0,0.0,0.0,0.0,0.0,0.0,0.0,3.2797,3.2239,3.2239,3.2239,3.2239,3.0406,2.9943,3.1223,3.0586,3.0866,3.2052,3.1488,3.1223,3.1223,3.1777,3.2426,3.3081,3.3081,3.2797,3.2239,0.0,0.0,0.0,0.0,0.0,0.0,0.0,0.0,0.0,0.0,2.9817,2.9102,2.8495,0.0,0.0,0.0,0.0,0.0,3.0342,3.0703,3.0889,3.0889,3.0889,3.0889,3.0889,3.0889,3.0889,3.0889,3.0889,3.0889,3.0889,0.0,3.1973,3.2432,0.0,0.0,0.0,0.0,0.0,0.0,0.0,0.0,0.0,0.0,0.0,0.0,0.0,0.0,0.0,0.0,3.3418,3.3418,3.3418,3.3418,3.3418,3.3418,3.3418,3.3418,3.3418,3.3418,3.3418,3.3418,3.3418,3.3292,0.0,3.2492,3.3155,3.0522,2.8952,2.804,2.618,2.4452,2.2859,2.2859,2.2859,2.2859,0.0,0.0,0.0,0.0,0.0,0.0,0.0,0.0,0.0,0.0,0.0,0.0,0.0,0.0,0.0,0.0,0.0,0.0,0.0,3.3081,3.3081,3.3081,3.3081,3.3081,3.3081,3.1235,3.0687,3.1677,3.0687,3.0777,3.1677,3.1677,3.1677,3.1677,3.1677,3.2152,3.3081,3.3081,3.3081,3.3081,0.0,0.0,0.0,0.0,0.0,0.0,0.0,0.0,0.0,0.0,0.0,0.0,0.0,0.0,0.0,2.8789,2.9228,2.9658,3.0078,3.0537,3.0889,3.0889,3.0889,3.0889,3.0889,3.0889,3.0889,3.0889,3.0889,3.0889,0.0,3.1318,0.0,0.0,0.0,0.0,0.0,0.0,0.0,0.0,0.0,0.0,0.0,0.0,0.0,0.0,0.0,0.0,0.0,0.0,3.3418,3.3418,3.3418,3.3418,3.3418,3.3418,3.3418,3.3418,3.3418,3.3418,3.3418,3.3418,3.3418,3.3292,3.157,3.157,3.2492,2.8952,2.7503,2.737,2.5651,2.406,2.2859,2.2859,2.2859,2.2859,0.0,0.0,0.0,0.0,0.0,0.0,0.0,0.0,0.0,0.0,0.0,0.0,0.0,0.0,0.0,0.0,0.0,0.0,0.0,3.3081,3.3081,3.3081,3.3081,3.3081,3.3081,3.2896,3.2896,3.2982,3.2896,3.2896,3.2982,3.2982,3.2982,3.2982,3.2982,3.2982,3.3081,3.3081,3.3081,3.3081,3.3081,0.0,0.0,0.0,0.0,0.0,0.0,0.0,0.0,0.0,0.0,0.0,0.0,0.0,2.8369,2.8789,2.9228,2.9658,3.0078,3.0537,3.0889,3.0889,3.0889,3.0889,3.0889,3.0889,3.0889,3.0889,0.0,0.0,0.0,3.1562,3.2266,0.0,0.0,0.0,0.0,0.0,0.0,0.0,0.0,0.0,0.0,0.0,0.0,0.0,0.0,0.0,0.0,0.0,0.0,3.3418,3.3418,3.3418,3.3418,3.3418,3.3418,3.3418,3.3418,3.3418,3.3418,3.3418,3.3418,3.3292,3.157,3.09,3.0771,2.7222,2.5644,2.551,2.3795,2.2996,2.2859,2.2859,2.2859,2.2859,0.0,0.0,0.0,0.0,0.0,0.0,0.0,0.0,0.0,0.0,0.0,0.0,0.0,0.0,0.0,0.0,0.0,0.0,0.0,3.3081,3.3081,3.3081,3.3081,3.3081,3.3081,3.2326,3.2326,3.3081,3.3081,3.3081,3.3081,3.3081,3.3081,3.3081,3.3081,3.3081,3.3081,3.3081,3.3081,3.3081,3.3081,3.3282,0.0,0.0,0.0,0.0,0.0,0.0,0.0,0.0,3.1429,3.012,2.8698,2.8291,2.832,2.8476,2.9023,2.96,2.9766,3.0342,3.0889,3.0889,3.0889,3.0889,0.0,3.0889,3.0889,3.0889,3.0889,0.0,0.0,0.0,3.1904,0.0,0.0,0.0,0.0,0.0,0.0,0.0,0.0,0.0,0.0,0.0,0.0,0.0,0.0,0.0,0.0,0.0,0.0,3.3418,3.3418,3.3418,3.3418,3.3418,3.3418,3.3418,3.3418,3.3418,3.3418,3.2228,3.2355,3.3292,3.0393,2.9865,3.0504,2.6964,2.551,2.5383,2.3529,2.2859,2.2859,2.2859,2.2859,2.2859,0.0,0.0,0.0,0.0,0.0,0.0,0.0,0.0,0.0,0.0,0.0,0.0,0.0,0.0,0.0,0.0,0.0,0.0,3.3081,3.3081,3.3081,3.3081,3.3081,3.3081,3.3081,3.2239,3.2239,3.3081,3.3081,3.3081,3.3081,3.3081,3.3081,3.3081,3.3081,3.3081,3.3081,3.3081,3.3081,3.3093,3.3269,3.3558,0.0,0.0,0.0,0.0,0.0,0.0,0.0,0.0,3.1735,3.0618,2.89,2.8291,2.8291,2.8291,2.8896,2.957,2.957,3.0215,3.0889,3.0889,3.0889,3.0889,3.0889,3.0889,3.0889,3.0889,3.0889,3.0889,3.0889,0.0,0.0,0.0,0.0,0.0,0.0,0.0,0.0,0.0,0.0,0.0,0.0,0.0,0.0,0.0,0.0,0.0,0.0,0.0,0.0,0.0,3.3418,3.3418,3.3418,3.3418,3.3418,3.3418,3.3418,3.3418,3.3292,3.1561,3.1433,3.2365,2.8812,2.8023,2.8935,2.5905,2.4723,2.4588,2.34,2.2859,2.2859,2.2859,2.2859,2.2859,0.0,0.0,0.0,0.0,0.0,0.0,0.0,0.0,0.0,0.0,0.0,0.0,0.0,0.0,0.0,0.0,0.0,0.0,3.3081,3.3081,3.3081,3.3081,3.3081,3.3081,3.3081,3.3081,3.3081,3.3081,3.3081,3.3081,3.3081,3.3081,3.3081,3.3081,3.3081,3.3081,3.3081,3.3081,3.3081,3.3131,3.3684,3.3909,3.4035,0.0,0.0,0.0,0.0,0.0,0.0,0.0,3.2331,3.1825,2.9207,2.8291,2.8291,2.8291,2.8896,2.957,2.957,3.0215,3.0889,3.0889,0.0,0.0,3.0889,3.0889,3.0889,3.0889,3.0889,3.0889,3.0889,0.0,0.0,0.0,0.0,0.0,0.0,0.0,0.0,0.0,0.0,0.0,0.0,0.0,0.0,0.0,0.0,0.0,0.0,0.0,0.0,0.0,3.3418,3.3418,3.3418,3.3418,3.3418,3.3418,3.3418,3.3418,3.3292,3.157,3.0771,3.0642,2.7089,2.551,2.5383,2.3659,2.2859,2.2859,2.2859,2.2859,2.2859,2.2859,2.2859,2.2859,0.0,0.0,0.0,0.0,0.0,0.0,0.0,0.0,0.0,0.0,0.0,0.0,0.0,0.0,0.0,0.0,0.0,0.0,3.3081,3.3081,3.3081,3.3081,3.3081,3.3081,3.3081,3.3081,3.3081,3.3081,3.3081,3.3081,3.3081,3.3081,3.3081,3.3081,3.3081,3.3081,3.3081,3.3081,3.3307,3.3671,3.3834,3.4361,3.509,0.0,0.0,0.0,0.0,0.0,0.0,0.0,0.0,0.0,3.0525,2.9713,2.9503,2.8601,2.8896,2.957,2.957,3.0215,0.0,3.0889,0.0,0.0,0.0,3.0889,0.0,0.0,3.0889,3.0889,3.0889,0.0,0.0,0.0,0.0,0.0,0.0,0.0,0.0,0.0,0.0,0.0,0.0,0.0,0.0,0.0,0.0,0.0,0.0,0.0,0.0,0.0,3.3418,3.3418,3.3418,3.3418,3.3418,3.3418,3.3418,3.3418,3.3292,3.0263,2.9605,3.0642,2.7089,2.551,2.5383,2.3659,2.2859,2.2859,2.2859,2.2859,2.2859,2.2859,2.2859,2.2859,0.0,0.0,0.0,0.0,0.0,0.0,0.0,0.0,0.0,0.0,3.3081,3.3081,0.0,0.0,0.0,0.0,0.0,0.0,0.0,3.3081,3.3081,3.3081,3.3081,3.3081,3.3081,3.3081,3.3081,3.3081,3.3081,3.3081,3.3081,3.3081,3.3081,3.3081,3.3081,3.3081,3.3093,3.3307,3.3596,3.3935,3.4374,3.4951,3.5567,0.0,0.0,0.0,0.0,0.0,0.0,0.0,0.0,0.0,3.1133,3.0317,3.0016,2.8698,2.8896,2.957,2.957,3.0215,0.0,3.0889,3.0889,3.0889,3.0889,0.0,0.0,0.0,0.0,3.0889,3.0889,0.0,0.0,0.0,0.0,0.0,0.0,0.0,0.0,0.0,0.0,0.0,0.0,0.0,0.0,0.0,0.0,0.0,0.0,0.0,0.0,0.0,3.3418,3.3418,3.3418,3.3418,3.3418,3.3418,3.2756,3.2365,3.2228,2.9474,2.8427,2.8541,2.5644,2.446,2.4452,2.3393,2.2859,2.2859,2.2859,2.2859,2.2859,2.2859,2.2859,2.2859,0.0,0.0,0.0,0.0,0.0,0.0,0.0,0.0,0.0,0.0,3.3081,3.3081,0.0,0.0,0.0,0.0,0.0,0.0,0.0,3.3081,3.3081,3.3081,3.3081,3.3081,3.3081,3.3081,3.3081,3.3081,3.3081,3.3081,3.3081,3.3081,3.3081,3.3081,3.3081,3.3106,3.3181,3.3684,3.396,3.4135,3.514,3.5567,3.5667,3.6169,0.0,0.0,0.0,0.0,0.0,0.0,0.0,0.0,3.1327,3.0514,3.0214,2.8698,2.8896,2.957,2.957,3.0215,3.0889,3.0889,3.0889,0.0,3.0889,3.0889,3.0889,3.0889,0.0,3.0889,0.0,0.0,0.0,0.0,0.0,0.0,0.0,0.0,0.0,0.0,0.0,0.0,0.0,0.0,0.0,0.0,0.0,0.0,0.0,0.0,0.0,3.3418,3.3418,3.3418,3.3418,3.3418,3.3418,0.0,3.1826,3.0909,3.0771,2.8821,2.698,2.5113,2.3795,2.2996,2.2859,2.3133,2.2996,2.2859,2.2859,2.2859,2.2859,2.2859,2.2859,2.2859,0.0,0.0,0.0,0.0,0.0,0.0,0.0,0.0,0.0,0.0,0.0,0.0,0.0,0.0,0.0,0.0,0.0,0.0,0.0,3.3081,3.3081,3.3081,3.3081,3.3081,3.3081,3.3081,3.3081,3.3081,3.3081,3.3081,3.3081,3.3081,3.3081,3.3081,3.3081,3.3319,3.3734,3.3847,3.4399,3.5215,3.5454,3.5805,3.6194,3.632,3.6358,0.0,0.0,0.0,0.0,0.0,0.0,0.0,3.2733,3.1825,3.1429,2.9006,2.8896,2.957,2.957,3.0215,3.0889,3.0889,3.0889,3.0889,3.0889,3.0889,3.0889,3.0889,3.0889,0.0,0.0,0.0,0.0,0.0,0.0,0.0,0.0,0.0,0.0,0.0,0.0,0.0,0.0,0.0,0.0,0.0,0.0,0.0,0.0,0.0,0.0,3.3418,3.3418,3.3418,3.3418,3.3418,3.3418,0.0,3.3029,3.21,3.0642,2.7487,2.5121,2.3529,2.4452,2.4188,2.2996,2.4324,2.4188,2.2859,2.2859,2.2859,2.2859,2.2859,2.2859,2.2859,0.0,0.0,0.0,0.0,0.0,0.0,0.0,0.0,0.0,0.0,0.0,0.0,0.0,0.0,0.0,0.0,0.0,0.0,0.0,0.0,3.3081,3.3081,3.3081,3.3081,3.3081,3.3081,3.3081,3.3081,3.3081,3.3081,3.3081,3.3081,3.3081,3.3081,3.3357,3.3633,3.3935,3.4462,3.5014,3.5567,3.583,3.6107,3.6358,3.6358,3.6358,3.6358,3.6358,0.0,0.0,0.0,0.0,0.0,0.0,0.0,3.1724,2.9102,2.8896,2.957,2.957,3.0215,3.0889,3.0889,0.0,3.0889,3.0889,3.0889,3.0889,3.0889,3.0889,0.0,0.0,0.0,0.0,0.0,0.0,0.0,0.0,0.0,0.0,0.0,0.0,0.0,0.0,0.0,0.0,0.0,0.0,0.0,0.0,3.3418,3.3418,3.3418,3.3418,3.3418,3.3418,3.3418,3.3418,3.3418,3.2492,3.1176,2.9474,2.7635,2.6314,2.539,2.5517,2.5517,2.539,2.4588,2.4188,2.4053,2.3263,2.2859,2.2859,2.2859,2.2859,2.2859,0.0,0.0,0.0,0.0,0.0,0.0,0.0,0.0,0.0,0.0,0.0,0.0,0.0,0.0,0.0,0.0,0.0,0.0,0.0,0.0,0.0,3.3081,3.3081,3.3081,3.3081,3.3081,3.3081,3.3081,3.3081,3.3081,3.3081,3.3081,3.3131,3.3244,3.3696,3.401,3.4248,3.5152,3.5604,3.573,3.6182,3.6358,3.6358,3.6358,3.6358,3.6358,3.6358,3.6358,3.6358,3.6358,0.0,0.0,0.0,0.0,3.1724,2.9102,2.8896,2.957,2.957,3.0215,3.0889,3.0889,3.0889,0.0,3.0889,3.0889,3.0889,3.0889,0.0,0.0,0.0,0.0,0.0,0.0,0.0,0.0,0.0,0.0,0.0,0.0,0.0,0.0,0.0,0.0,0.0,0.0,0.0,0.0,3.3418,3.3418,3.3418,3.3418,3.3418,3.3418,3.3418,3.3418,3.3418,3.3418,3.1963,3.0522,2.9091,2.9091,2.8829,2.8172,2.6964,2.6964,2.7511,2.4858,2.4324,2.4851,2.3393,2.2859,2.2859,2.2859,2.2859,2.2859,0.0,0.0,0.0,0.0,0.0,0.0,0.0,0.0,0.0,0.0,3.3081,0.0,0.0,0.0,0.0,0.0,0.0,0.0,3.3081,0.0,0.0,3.3081,3.3081,3.3081,3.3081,3.3081,3.3081,3.3081,3.3081,3.3081,3.3081,3.3081,3.3332,3.3796,3.3872,3.4437,3.5341,3.5479,3.5818,3.6257,3.6332,3.6358,3.6358,3.6358,3.6358,3.6358,3.6358,3.6358,3.6358,3.6358,3.6358,0.0,0.0,0.0,3.1724,2.9102,2.8896,2.957,2.957,3.0215,3.0889,3.0889,3.0889,3.0889,0.0,0.0,3.0889,0.0,0.0,0.0,0.0,0.0,0.0,0.0,0.0,0.0,0.0,0.0,0.0,0.0,0.0,0.0,0.0,0.0,0.0,0.0,0.0,0.0,3.3418,3.3418,3.3418,3.3418,3.3418,3.3418,3.3418,3.3418,3.3418,3.3418,3.3155,3.2892,3.2765,3.2765,3.1056,2.8303,2.9596,2.8541,2.5912,2.698,2.5786,2.3263,2.2996,2.2859,2.2859,2.2859,2.2859,2.2859,0.0,0.0,0.0,0.0,0.0,0.0,0.0,0.0,0.0,0.0,0.0,3.3081,0.0,0.0,0.0,3.3081,3.3081,3.3081,3.3081,3.3081,3.3081,3.3081,3.3081,3.3081,3.3081,3.3081,3.3081,3.3081,3.3081,3.3081,3.3081,3.3395,3.3671,3.3909,3.4223,3.4801,3.5567,3.5868,3.6144,3.6358,3.6358,3.6358,3.6358,3.6358,3.6358,3.6358,3.6358,3.6358,3.6358,3.6358,3.6358,3.6061,3.4056,0.0,0.0,0.0,2.9519,2.9678,3.0176,3.0596,3.0889,3.0889,3.0889,3.0889,3.0889,3.0889,3.0889,3.0889,0.0,0.0,0.0,0.0,0.0,0.0,0.0,0.0,0.0,0.0,0.0,0.0,0.0,0.0,0.0,0.0,0.0,0.0,0.0,3.3418,3.3418,3.3418,3.3418,3.3418,3.3418,3.3418,3.3418,3.3418,3.3418,3.3418,3.3418,3.3418,3.3418,3.3418,3.2502,3.1056,2.9874,2.9074,2.8279,2.618,2.4858,2.4324,2.3263,2.2859,2.2859,2.2859,2.2859,2.2859,0.0,0.0,0.0,0.0,0.0,0.0,0.0,0.0,0.0,0.0,0.0,0.0,0.0,0.0,0.0,0.0,3.3081,3.3081,3.3081,3.3081,3.3081,3.3081,3.3081,3.3081,3.3081,3.3081,3.3081,3.3081,3.3081,3.3156,3.3294,3.3709,3.4048,3.4336,3.4751,3.524,3.578,3.6194,3.6358,3.6358,3.6358,3.6358,3.6358,3.6358,3.6168,3.5966,3.6263,3.6156,3.5966,0.0,3.6358,3.6168,3.4775,3.3453,0.0,0.0,0.0,2.9902,3.0674,3.0889,3.0889,3.0889,3.0889,3.0889,0.0,0.0,3.0889,0.0,0.0,0.0,0.0,0.0,0.0,0.0,0.0,0.0,0.0,0.0,0.0,0.0,0.0,0.0,0.0,0.0,0.0,0.0,0.0,3.3262,3.3262,3.3359,3.3418,3.3418,3.3418,3.3418,3.3418,3.3418,3.3418,3.3418,3.3418,3.3418,3.3418,3.2892,3.2756,3.2619,3.0004,2.9074,2.9196,2.5248,2.406,2.4716,2.3393,2.2859,2.2859,2.2859,2.2859,2.2859,0.0,0.0,0.0,0.0,0.0,0.0,0.0,0.0,0.0,0.0,0.0,0.0,3.3081,3.3081,3.3081,3.3081,3.3081,3.3081,3.3081,3.3081,3.3081,3.3081,3.3081,0.0,3.3081,3.3081,3.3081,3.3081,3.3081,3.3345,3.3859,3.3884,3.4462,3.5466,3.5491,3.5805,3.632,3.6358,3.6358,3.6358,3.6358,3.6358,3.6358,3.6358,3.5571,3.4678,3.5966,0.0,0.0,0.0,0.0,0.0,0.0,3.3453,3.2117,0.0,0.0,0.0,3.0762,3.0889,3.0889,3.0889,3.0889,3.0889,0.0,0.0,0.0,0.0,0.0,0.0,0.0,0.0,0.0,0.0,0.0,0.0,0.0,0.0,0.0,0.0,0.0,0.0,0.0,0.0,0.0,0.0,3.2607,3.2832,3.2832,3.3203,3.3418,3.3418,3.3418,3.3418,3.3418,3.3418,3.3418,3.3418,3.3418,3.3418,3.3292,3.1698,3.0909,3.0909,3.0771,2.8795,2.5778,2.5517,2.4452,2.2996,2.2996,2.2859,2.2859,2.2859,2.2859,2.2859,0.0,0.0,0.0,0.0,0.0,0.0,0.0,0.0,0.0,0.0,0.0,0.0,0.0,3.3081,3.3081,3.3081,3.3081,3.3081,3.3081,3.3081,3.3081,3.3081,3.3081,3.3081,3.3081,3.3081,3.3081,3.3081,3.3432,3.3709,3.3922,3.4625,3.5165,3.5542,3.5542,3.5855,3.6358,3.6358,3.6358,3.6358,3.6358,3.6358,3.6358,3.6358,3.5571,0.0,0.0,0.0,0.0,0.0,0.0,0.0,0.0,0.0,3.3876,3.2298,3.1035,3.0303,3.0762,3.0889,3.0889,3.0889,3.0889,3.0889,3.0889,3.0889,3.0889,0.0,0.0,0.0,0.0,0.0,0.0,0.0,0.0,0.0,0.0,0.0,0.0,0.0,0.0,0.0,0.0,0.0,0.0,0.0,0.0,3.2393,3.2393,3.2793,3.3018,3.3018,3.3281,3.3418,3.3418,3.3418,3.3418,3.3418,3.3418,3.3418,3.3292,3.1561,3.0254,2.9083,2.7883,2.6698,2.5383,2.4324,2.3393,2.2859,2.2859,2.2859,2.2859,2.2859,2.2859,2.2859,0.0,0.0,0.0,0.0,0.0,0.0,0.0,0.0,0.0,3.3081,0.0,0.0,0.0,0.0,3.3081,3.3081,3.3081,3.3081,3.3081,3.3081,3.3081,3.3081,3.3081,3.3081,3.3081,3.3257,3.3357,3.3357,3.3909,3.4274,3.4462,3.5203,3.5642,3.5818,3.5818,3.6019,3.6358,3.6358,3.6358,3.6358,3.6358,3.6358,3.6358,3.6358,3.5571,0.0,0.0,0.0,0.0,0.0,0.0,0.0,0.0,0.0,3.4624,3.2942,3.1513,3.0498,3.081,3.0889,3.0889,3.0889,3.0889,3.0889,3.0889,3.0889,3.0889,0.0,0.0,0.0,0.0,0.0,0.0,0.0,0.0,0.0,0.0,0.0,0.0,0.0,0.0,0.0,0.0,0.0,0.0,0.0,0.0,0.0,3.1953,3.2353,3.2588,3.2588,3.2998,3.3213,3.3213,3.335,3.3418,3.3418,3.3418,3.3418,3.3292,3.1561,2.9865,2.8172,2.698,2.5778,2.4588,2.3393,2.2859,2.2859,2.2859,2.2859,2.2859,2.2859,2.2859,2.2859,0.0,0.0,0.0,0.0,0.0,0.0,0.0,0.0,3.3081,3.3081,0.0,0.0,0.0,0.0,0.0,3.3081,3.3081,3.3081,3.3081,3.3081,3.3081,3.3081,3.3081,3.3081,3.3106,3.3621,3.3909,3.3922,3.4474,3.5014,3.5542,3.5567,3.5855,3.6358,3.6358,3.6358,3.6358,3.6358,3.6358,3.6358,3.6358,3.6358,3.6358,0.0,0.0,0.0,3.4385,3.3453,0.0,3.223,0.0,0.0,0.0,0.0,3.4214,3.2927,3.1747,3.1005,0.0,0.0,0.0,3.0889,3.0889,0.0,3.0889,0.0,3.0889,0.0,0.0,0.0,0.0,0.0,0.0,0.0,0.0,0.0,0.0,0.0,0.0,0.0,0.0,0.0,0.0,0.0,0.0,0.0,3.1269,3.1504,3.1504,3.1914,3.2158,3.2168,3.2559,3.2773,3.2773,3.3184,3.3389,3.3408,3.3408,3.3408,3.3292,3.1561,2.9865,2.8303,2.8172,2.6188,2.2996,2.2996,2.2996,2.2996,2.2996,2.2996,2.2996,2.2859,2.2859,2.2859,0.0,0.0,0.0,0.0,0.0,3.3081,3.3081,3.3081,3.3081,0.0,0.0,0.0,3.3081,3.3081,3.3081,3.3081,3.3081,3.3081,3.3081,3.3081,3.3081,3.3081,3.3081,3.3269,3.3658,3.3822,3.4098,3.45,3.5052,3.5391,3.5554,3.5956,3.6219,3.6358,3.6358,3.6358,3.6358,3.6358,3.6358,3.6358,3.6358,3.6358,0.0,0.0,0.0,0.0,0.0,3.2039,3.0813,0.0,3.2465,3.4752,0.0,3.6247,3.4594,3.5722,3.4394,3.253,3.253,0.0,0.0,0.0,0.0,0.0,0.0,0.0,0.0,0.0,0.0,0.0,0.0,0.0,0.0,0.0,0.0,0.0,0.0,0.0,0.0,0.0,0.0,0.0,0.0,0.0,0.0,0.0,3.0996,3.1064,3.1064,3.1465,3.1846,3.2158,3.2285,3.2344,3.2344,3.2461,3.2666,3.2969,3.2969,3.3125,3.3292,3.1561,3.0513,2.9986,2.8689,2.7643,2.6714,2.6714,2.6714,2.6581,2.5248,2.4716,2.4588,2.34,2.2859,2.2859,0.0,0.0,0.0,0.0,0.0,3.3081,3.3081,3.3081,3.3081,0.0,0.0,0.0,3.3081,3.3081,3.3081,3.3081,3.3081,3.3169,3.3407,3.342,3.352,3.3759,3.3759,3.3909,3.4236,3.4462,3.4751,3.5064,3.5617,3.5893,3.5893,3.6219,3.6358,3.6358,3.6358,3.6358,3.6358,3.6358,3.6358,0.0,3.6358,0.0,0.0,3.5775,3.4557,0.0,0.0,0.0,3.1331,3.0085,3.2065,0.0,0.0,0.0,3.5113,0.0,3.4947,3.2311,3.2964,3.2644,3.1988,3.1112,0.0,0.0,3.0889,3.0889,0.0,0.0,0.0,0.0,0.0,0.0,0.0,0.0,0.0,0.0,0.0,0.0,0.0,0.0,0.0,0.0,0.0,3.0889,3.0889,3.0889,3.0889,3.0889,3.0889,3.1123,3.1377,3.1631,3.1807,3.1894,3.1894,3.208,3.2295,3.2529,3.2529,3.2666,3.29,3.2033,3.1184,3.0546,3.0459,3.0004,2.9344,3.0004,2.9483,2.804,2.618,2.551,2.5248,2.3522,2.2859,2.2859,0.0,0.0,3.3081,3.3081,3.3081,3.3081,3.3081,3.3081,3.3081,0.0,3.3081,3.3106,3.3156,3.3169,3.3194,3.3257,3.3257,3.347,3.396,3.3985,3.4211,3.47,3.4726,3.4751,3.4813,3.5303,3.5567,3.5642,3.6119,3.6358,3.6358,3.6358,3.6358,3.6358,3.6358,3.6358,3.6358,3.6358,0.0,3.6358,3.6358,3.6358,0.0,0.0,3.4385,3.3883,3.1586,3.1788,3.2597,3.0289,3.1703,0.0,0.0,0.0,0.0,0.0,3.4515,3.1441,3.2747,3.2092,3.1112,3.0889,0.0,0.0,3.0889,3.0889,3.0889,0.0,0.0,0.0,0.0,0.0,0.0,0.0,0.0,0.0,0.0,0.0,0.0,0.0,0.0,0.0,3.0889,3.0889,3.0889,3.0889,3.0889,3.0889,3.0889,3.0889,3.0889,3.0889,3.126,3.1445,3.1445,3.1836,3.2051,3.21,3.21,3.2119,3.2178,3.2559,3.1942,3.0546,3.2516,3.2426,3.1112,3.2737,3.1451,2.8303,2.6439,2.5644,2.5248,2.3522,2.2859,2.2859,0.0,3.3081,3.3081,3.3081,3.3081,3.3081,3.3081,3.3081,3.3081,3.3081,3.3081,3.3244,3.3696,3.3734,3.3922,3.4361,3.4399,3.4449,3.4562,3.4562,3.4613,3.4713,3.4726,3.4926,3.5366,3.5491,3.5768,3.6194,3.6307,3.6358,3.6358,3.6358,3.6358,3.6358,3.6358,3.6358,3.6358,3.6358,0.0,3.6358,3.6358,0.0,3.6358,3.6061,3.4654,3.2789,3.3893,3.3083,3.1741,3.3029,3.3193,3.331,0.0,0.0,0.0,3.6692,0.0,0.0,0.0,0.0,0.0,0.0,0.0,0.0,3.0889,3.0889,3.0889,0.0,0.0,0.0,0.0,0.0,0.0,0.0,0.0,0.0,0.0,0.0,0.0,0.0,0.0,0.0,3.0889,3.0889,3.0889,3.0889,3.0889,3.0889,3.0889,3.0889,3.0889,3.0889,3.0976,3.1016,3.1016,3.1103,3.1309,3.1641,3.1641,3.1826,3.2168,3.2256,3.2163,3.1805,3.2601,3.2776,3.2421,3.3146,3.2228,3.0125,2.8427,2.6839,2.5248,2.3522,2.2859,2.2859,3.324,3.3081,3.3081,3.3081,3.3081,3.3081,3.3081,3.3081,3.3081,3.3081,3.3319,3.3696,3.4248,3.4311,3.4424,3.47,3.4726,3.4839,3.5115,3.514,3.5253,3.5529,3.5542,3.5667,3.5943,3.5956,3.6094,3.6358,3.6358,3.6358,3.6358,3.6358,3.6358,3.6358,3.6358,3.6358,3.6358,3.6358,3.6358,3.6358,3.6358,0.0,3.6383,3.595,3.4927,3.3769,3.4379,3.3794,3.3178,3.5306,3.5557,0.0,0.0,3.5934,3.4626,0.0,3.4836,3.2207,0.0,0.0,0.0,3.1112,0.0,0.0,0.0,3.0889,3.0889,3.0889,3.0889,3.0889,3.0889,0.0,0.0,0.0,0.0,0.0,0.0,0.0,0.0,0.0,0.0,0.0,3.0889,3.0889,3.0889,3.0889,3.0889,3.0889,3.0889,3.0889,3.0889,3.0889,3.0889,3.0889,3.0889,3.0889,3.0996,3.1201,3.1201,3.1318,3.1543,3.1748,3.1846,3.1865,3.2295,3.248,3.2519,3.2939,3.1537,2.9077,2.8491,2.7105,2.5248,2.3522,2.2859,2.2859,3.3398,3.3081,3.3081,3.3081,3.3081,3.3081,3.3081,3.3401,3.3589,3.3703,3.3947,3.4274,3.4826,3.4876,3.4926,3.5027,3.5039,3.5228,3.5667,3.5705,3.5893,3.6345,3.6358,3.6358,3.6358,3.6358,3.6358,3.6358,3.6358,3.6358,3.6358,3.6358,3.6358,3.6358,3.6358,3.6358,3.637,3.6471,0.0,3.6383,0.0,3.6621,3.6476,3.599,3.5577,3.5236,3.4382,3.4364,3.4967,3.6563,3.6918,3.6703,3.7358,3.6271,0.0,0.0,0.0,0.0,0.0,0.0,0.0,0.0,0.0,3.0889,0.0,0.0,0.0,3.0889,0.0,0.0,0.0,0.0,0.0,0.0,0.0,0.0,0.0,0.0,0.0,0.0,0.0,0.0,0.0,3.0889,3.0889,3.0889,3.0889,3.0889,3.0889,3.0889,3.0889,3.0889,3.0889,3.0889,3.0889,3.0889,3.0889,3.0889,3.0889,3.0889,3.0898,3.124,3.1396,3.1426,3.1855,3.2041,3.208,3.25,3.0607,2.744,2.7998,2.6847,2.4851,2.3393,2.2859,2.2859,3.3628,3.3081,3.3081,3.3081,3.3081,3.3081,3.3081,3.4353,3.5502,3.6042,3.525,3.4839,3.5391,3.5454,3.5642,3.6132,3.6169,0.0,3.6257,0.0,3.6295,3.6358,3.6358,3.6358,3.6358,3.6358,3.6358,3.6358,3.6358,3.6358,3.6358,3.6358,3.6358,3.6358,3.6358,3.6358,3.6395,3.6885,3.681,0.0,3.7425,3.7525,0.0,3.7492,3.6959,3.577,3.4812,3.4784,3.5221,0.0,3.4736,3.4069,0.0,3.5606,3.3845,0.0,0.0,0.0,0.0,0.0,0.0,0.0,3.0889,0.0,0.0,0.0,3.0889,3.0889,0.0,0.0,0.0,0.0,0.0,0.0,0.0,0.0,0.0,0.0,0.0,0.0,0.0,0.0,0.0,3.0889,3.0889,3.0889,3.0889,3.0889,3.0889,3.0889,3.0889,3.0889,3.0889,3.0889,3.0889,3.0889,3.0889,3.0889,3.0889,3.0889,3.0889,3.0947,3.0957,3.0986,3.1406,3.1592,3.1621,3.206,3.0204,2.7222,2.7899,2.6188,2.3126,2.2996,2.2859,2.2859,3.5197,3.4415,3.4037,3.4037,3.3738,3.3558,3.3558,3.4995,3.6048,3.5968,3.6135,3.6174,3.6049,0.0,0.0,0.0,0.0,3.6358,0.0,0.0,3.6358,3.6358,3.6358,3.6358,3.6358,3.6358,3.6358,3.6358,3.6358,3.6358,3.6358,3.6358,3.6358,3.6358,3.6358,3.6358,3.6395,0.0,3.7048,0.0,0.0,0.0,0.0,3.8417,3.839,3.814,3.7726,3.718,3.6595,0.0,3.6151,0.0,0.0,0.0,0.0,0.0,0.0,0.0,0.0,0.0,0.0,0.0,0.0,0.0,3.0889,0.0,3.0889,0.0,0.0,0.0,0.0,0.0,0.0,0.0,3.1006,0.0,0.0,0.0,0.0,0.0,0.0,0.0,0.0,0.0,0.0,0.0,3.0889,3.0889,3.0889,3.0889,3.0889,3.0889,3.0889,3.0889,3.0889,3.0889,3.0889,3.0889,3.0889,3.0889,3.0889,3.0889,3.0889,3.0898,3.1074,3.1152,3.1191,3.1621,3.0401,2.8199,2.8737,2.6359,2.2625,2.2799,2.2859,2.2859,3.7593,3.6438,3.5423,3.5597,3.5083,3.4753,3.5231,3.6352,3.709,3.6742,3.7142,0.0,3.6496,3.6358,0.0,0.0,3.6358,3.6358,0.0,0.0,3.6358,0.0,0.0,0.0,0.0,3.6896,3.6896,3.6896,3.6896,3.6709,3.6358,3.6358,3.6445,3.6584,3.6584,3.6671,3.6847,0.0,3.755,3.7513,3.8642,3.9094,3.9094,3.9094,3.9346,3.9697,3.9245,3.8465,3.7465,3.7026,3.6918,0.0,3.5617,0.0,0.0,0.0,0.0,0.0,3.3856,0.0,0.0,0.0,0.0,0.0,0.0,0.0,0.0,0.0,0.0,0.0,0.0,0.0,3.0928,3.1045,0.0,3.0928,0.0,0.0,0.0,0.0,0.0,0.0,0.0,0.0,0.0,0.0,0.0,3.0889,3.0889,3.0889,3.0889,3.0889,3.0889,3.0889,3.0889,3.0889,3.0889,3.0889,3.0889,3.0889,3.0889,3.0889,3.0889,3.0889,3.0889,3.0889,3.0918,3.1221,3.0348,2.8774,2.916,2.6947,2.3509,2.3523,2.3405,2.3419,4.1234,3.8996,3.7303,3.7979,3.7182,3.697,3.8553,3.8905,0.0,0.0,0.0,0.0,0.0,0.0,0.0,0.0,0.0,3.6358,3.6358,0.0,3.6358,0.0,0.0,3.6883,0.0,3.8017,3.8017,3.8017,3.8017,3.7507,3.6358,3.6358,3.6646,3.7161,3.7161,3.745,3.799,3.8567,3.8492,3.8078,3.922,3.9672,3.9672,0.0,3.9685,3.9478,3.8125,0.0,0.0,3.5836,3.5398,0.0,0.0,0.0,0.0,0.0,0.0,0.0,0.0,0.0,0.0,3.3077,0.0,0.0,0.0,0.0,3.0889,0.0,0.0,0.0,0.0,0.0,3.1025,3.1435,3.1152,0.0,0.0,0.0,0.0,0.0,0.0,0.0,0.0,0.0,0.0,0.0,0.0,0.0,3.0889,3.0889,3.0889,3.0889,3.0889,3.0889,3.0889,3.0889,3.0889,3.0889,3.0889,3.0889,3.0889,3.0889,3.0889,3.0889,3.0889,3.0889,3.0889,3.0908,2.9922,2.848,2.8756,2.779,2.6137,2.5191,2.479,2.4709,4.1938,4.1263,4.0371,3.941,0.0,0.0,0.0,3.9581,0.0,0.0,0.0,0.0,0.0,3.6358,3.6358,0.0,0.0,3.6358,3.6358,3.6358,0.0,0.0,0.0,3.6534,0.0,3.6977,3.7322,3.8107,3.8107,3.8289,3.8675,3.8241,3.8168,3.8269,3.7927,3.7839,0.0,0.0,0.0,0.0,0.0,3.9697,3.9697,0.0,0.0,3.9581,3.9129,3.836,0.0,3.6918,3.6162,3.5189,3.4181,3.4181,3.4403,3.3957,3.4181,0.0,0.0,0.0,3.2861,3.1872,0.0,0.0,0.0,0.0,0.0,0.0,0.0,0.0,0.0,3.0889,3.0937,3.1074,3.0986,3.0947,0.0,0.0,0.0,0.0,0.0,0.0,0.0,0.0,0.0,0.0,0.0,0.0,0.0,3.0889,3.0889,3.0889,3.0889,3.0889,3.0889,3.0889,3.0889,3.0889,3.0889,3.0889,3.0889,3.0889,3.0889,3.0889,3.0889,3.0889,3.0889,3.0889,3.0528,3.0039,3.0182,2.9864,2.9094,2.7,2.5481,2.437,4.2626,4.2701,0.0,0.0,0.0,0.0,0.0,0.0,0.0,0.0,3.8107,0.0,3.6546,0.0,3.6358,0.0,3.6358,3.6358,3.6358,3.6358,0.0,3.6358,3.6358,0.0,0.0,0.0,3.7599,3.8738,3.8939,3.9481,4.0217,3.9559,3.9387,3.953,3.8707,3.8429,3.863,3.9007,3.917,0.0,0.0,3.9697,0.0,0.0,3.9697,3.9697,0.0,3.8792,3.7465,3.6918,3.6054,3.4958,3.2975,3.3304,3.4191,3.2758,3.2975,3.3642,3.3191,3.2747,0.0,3.1767,3.1334,0.0,3.0889,0.0,0.0,0.0,0.0,0.0,0.0,0.0,3.0644,3.0644,3.0518,3.0699,0.0,3.0981,0.0,0.0,0.0,0.0,0.0,0.0,0.0,0.0,0.0,0.0,0.0,0.0,3.0889,3.0889,3.0889,3.0889,3.0889,3.0889,3.0889,3.0889,3.0889,3.0889,3.0889,3.0889,3.0889,3.0889,3.0889,3.0889,3.0889,3.0889,3.0889,3.0889,3.0889,3.0889,3.0605,2.843,2.6215,2.4187,4.3329,0.0,0.0,0.0,4.3329,0.0,0.0,0.0,4.0718,0.0,3.8017,3.7586,3.6546,3.6358,3.6358,3.6358,3.6358,0.0,3.6358,3.6358,0.0,0.0,3.6358,3.6883,3.803,0.0,0.0,0.0,4.0479,4.0858,4.0988,4.0426,4.037,4.083,3.9559,3.9297,3.9697,3.9697,3.9697,3.9697,3.9697,3.9697,3.9697,3.9697,3.9697,3.9697,3.9697,3.8804,3.7358,3.5945,3.5398,3.4858,3.1998,3.1988,3.2861,3.1441,3.1005,3.1228,3.2644,3.1988,3.1218,3.2633,0.0,0.0,0.0,0.0,3.0889,0.0,0.0,0.0,0.0,0.0,3.0185,3.0166,2.9947,3.0358,3.2069,0.0,0.0,0.0,0.0,0.0,0.0,0.0,0.0,0.0,0.0,0.0,0.0,0.0,3.0889,3.0889,3.0889,3.0889,3.0889,3.0889,3.0889,3.0889,3.0889,3.0889,3.0889,3.0889,3.0889,3.0889,3.0889,3.0889,3.0889,3.0889,3.0889,3.0889,3.0889,3.0889,3.0576,2.9231,2.6977,2.4235,4.3329,4.3329,4.3329,0.0,4.3329,4.282,0.0,0.0,0.0,0.0,3.7322,3.6709,3.6452,3.6358,3.6358,3.6358,3.6358,0.0,0.0,0.0,0.0,3.6358,3.6358,3.6534,3.6803,3.6803,0.0,4.0534,0.0,4.1962,4.4141,4.3538,4.2809,4.2058,4.128,4.0413,3.9697,3.9697,3.9697,3.9697,3.9697,3.9697,0.0,0.0,3.9697,3.9697,3.9697,3.9478,3.8908,3.7477,3.6918,3.6595,3.4736,3.3631,3.3077,3.2644,3.1767,3.1005,3.1325,3.1218,3.0995,3.1325,3.1228,3.0889,0.0,0.0,0.0,0.0,0.0,0.0,0.0,0.0,0.0,2.9785,3.049,3.1199,3.174,0.0,0.0,3.2028,0.0,0.0,0.0,0.0,0.0,0.0,0.0,0.0,0.0,0.0,0.0,3.0889,3.0889,3.0889,3.0889,3.0889,3.0889,3.0889,3.0889,3.0889,3.0889,3.0889,3.0889,3.0889,3.0889,3.0889,3.0889,3.0889,3.0889,3.0889,3.0889,3.0147,2.8801,2.7306,2.6305,2.5194,4.3329,0.0,0.0,4.3329,0.0,0.0,4.1,0.0,0.0,3.7494,3.6803,0.0,3.6358,3.6358,3.6358,3.6358,3.6358,0.0,3.6358,0.0,0.0,3.6358,3.6358,3.6358,3.6358,3.6358,0.0,4.0844,0.0,4.2822,4.5753,4.5128,4.4117,4.2912,4.2021,4.0932,3.9697,3.9697,3.9697,3.9697,3.9697,0.0,0.0,3.9697,3.9697,3.9697,3.9697,3.9245,3.8582,3.7796,3.7465,3.7252,3.5727,3.5178,3.4714,3.3519,3.253,3.1767,3.1112,3.0889,3.0995,3.1652,3.1325,3.1112,3.1652,3.1166,3.0586,0.0,0.0,0.0,0.0,0.0,0.0,2.9082,3.016,3.1157,0.0,0.0,0.0,0.0,3.2652,0.0,0.0,0.0,0.0,0.0,0.0,0.0,0.0,0.0,0.0,3.0889,3.0889,3.0889,3.0889,3.0889,3.0889,3.0889,3.0889,3.0889,3.0889,3.0889,3.0889,3.0889,3.0889,3.0889,3.0889,3.0889,3.0889,3.0889,3.0889,3.0274,2.9285,2.7692,2.6106,2.4556,4.3329,0.0,0.0,0.0,0.0,0.0,0.0,3.8738,0.0,3.6534,0.0,3.6358,3.6358,3.6358,3.6358,3.6358,0.0,3.6358,3.6358,3.6358,3.6358,3.6358,3.6358,3.6358,3.6358,3.6433,0.0,0.0,0.0,4.3478,4.6371,4.5888,4.4918,4.3409,4.2363,4.1032,3.9697,3.9697,3.9697,3.9697,3.9697,3.9697,3.9697,3.9697,3.9697,3.9697,3.9697,3.8908,3.7796,3.7583,3.7571,3.7583,3.6054,3.6487,3.7026,3.4392,3.3519,3.3077,3.1767,3.1334,3.1556,3.2747,3.1988,3.1208,3.2447,3.1459,3.0185,3.0127,2.9824,2.9551,0.0,0.0,0.0,2.835,0.0,0.0,0.0,0.0,0.0,0.0,0.0,0.0,0.0,0.0,0.0,0.0,0.0,0.0,0.0,0.0,0.0,3.0889,3.0889,3.0889,3.0889,0.0,3.0889,3.0889,3.0889,3.0889,3.0889,3.0889,3.0889,3.0889,3.0889,3.0889,3.0889,3.0889,3.0889,3.0889,3.0889,3.0772,3.0392,2.8911,2.6478,2.369,0.0,0.0,0.0,0.0,0.0,3.9798,3.8559,3.8198,3.7678,3.6534,3.6358,3.6358,3.6358,3.6358,3.6358,3.6358,3.6358,0.0,0.0,0.0,0.0,3.6358,3.6358,3.6358,3.6358,3.681,3.8574,0.0,4.2214,4.4148,4.713,4.7061,4.5689,4.3504,4.3313,4.1887,3.9697,3.9697,0.0,3.9697,3.9697,3.9697,3.9697,3.9697,3.9697,3.9697,3.9697,3.9569,3.9129,3.7914,3.8348,3.9025,3.7583,3.7252,3.7358,3.6918,3.5825,3.4847,3.4637,3.3642,3.2747,3.3077,3.1988,3.0907,3.0725,3.0472,3.0098,2.9756,2.9619,2.9453,2.9092,0.0,0.0,0.0,0.0,0.0,0.0,0.0,0.0,0.0,0.0,0.0,0.0,0.0,0.0,0.0,0.0,0.0,0.0,0.0,0.0,0.0,3.0889,0.0,0.0,0.0,3.0889,3.0889,3.0889,3.0889,3.0889,3.0889,3.0889,3.0889,3.0889,3.0889,3.0889,3.0889,3.0889,3.0889,3.0889,3.002,2.8783,2.8536,2.7202,2.5497,0.0,0.0,0.0,0.0,0.0,0.0,0.0,3.7586,0.0,3.6452,3.6358,3.6358,3.6358,3.6358,3.6358,3.6358,3.6358,3.6358,3.6358,3.6358,3.6358,3.6358,3.6358,0.0,3.6784,3.7048,3.8505,4.1314,4.2268,4.3941,4.6344,4.7019,4.5973,4.3409,4.207,4.0844,3.9697,0.0,0.0,3.9697,3.9697,3.9697,3.9697,3.9697,3.9697,3.9697,3.9697,3.9697,3.9581,3.8908,3.9129,3.9581,3.8908,3.8687,3.8465,3.769,3.7037,3.6271,3.5508,3.4736,3.4292,3.4292,3.2899,3.1789,3.2316,3.0924,2.9695,3.0237,2.959,2.8848,2.8633,2.8428,0.0,0.0,0.0,0.0,0.0,0.0,0.0,0.0,0.0,0.0,0.0,0.0,0.0,0.0,0.0,0.0,0.0,0.0,0.0,0.0,0.0,0.0,0.0,0.0,0.0,3.0889,3.0889,3.0889,3.0889,3.0889,3.0889,3.0889,3.0889,3.0889,3.0889,3.0889,3.0889,3.0889,3.0889,3.0401,2.9658,2.9658,2.9166,2.8307,0.0,4.2029,0.0,0.0,3.9332,0.0,3.7756,3.6977,3.6358,3.6358,3.6358,3.6358,3.6358,3.6358,3.6358,3.6358,3.6358,3.6358,3.6358,3.6358,3.6358,3.6358,3.6471,3.6734,3.7174,3.7425,3.8625,0.0,4.1896,4.3501,4.5403,4.6447,4.5689,4.3409,0.0,0.0,0.0,0.0,3.9697,3.9697,3.9697,3.9697,3.9697,3.9697,3.9697,3.9697,3.9697,3.9697,3.9697,3.9697,3.9697,3.9697,3.9697,3.9697,3.9465,3.8348,3.8019,3.769,3.6499,3.6065,3.5704,3.5275,3.3746,3.2643,3.3517,3.1416,2.9627,3.0683,2.9449,2.8291,2.8291,2.8291,0.0,0.0,0.0,0.0,0.0,0.0,0.0,0.0,0.0,0.0,0.0,0.0,0.0,0.0,0.0,0.0,0.0,0.0,0.0,0.0,0.0,3.0742,3.0742,0.0,3.0889,0.0,3.0889,3.0889,3.0889,3.0889,3.0889,3.0889,3.0889,3.0889,3.0889,3.0889,3.0889,3.0889,3.0889,3.0889,3.0889,3.0889,3.0889,3.0518,0.0,0.0,0.0,0.0,0.0,0.0,0.0,3.6452,3.6358,3.6358,3.6358,3.6358,3.6358,3.6358,3.6358,3.6358,3.6358,3.6358,3.6358,3.6358,3.6358,3.6358,3.6835,3.7136,3.7186,3.8191,3.9418,0.0,0.0,4.2972,0.0,4.5494,4.4826,0.0,0.0,0.0,0.0,3.9697,3.9697,3.9697,3.9697,3.9697,3.9697,3.9697,3.9697,3.9697,3.9697,3.9697,3.9697,3.9697,3.9697,3.9697,3.9697,3.9697,3.9697,3.9569,3.9465,3.9465,3.9362,3.836,3.692,3.516,3.3497,3.2154,3.1432,3.1073,3.0693,3.0475,2.9227,2.8291,2.8291,2.8291,2.8698,0.0,0.0,0.0,0.0,0.0,0.0,0.0,0.0,0.0,0.0,0.0,0.0,0.0,0.0,0.0,0.0,0.0,0.0,2.9687,0.0,3.0264,3.0264,3.0684,3.0889,3.0889,3.0889,3.0889,3.0889,3.0889,3.0889,3.0889,3.0889,3.0889,3.0889,3.0889,3.0889,3.0889,3.0889,3.0889,3.0889,3.0889,3.0889,3.0889,0.0,0.0,0.0,0.0,0.0,0.0,0.0,3.6358,3.6358,3.6358,3.6358,3.6358,3.6358,3.6358,3.6358,3.6358,3.6358,3.6358,3.6358,3.6358,3.6358,3.6358,3.6885,3.7337,3.7663,3.8467,3.9323,0.0,0.0,0.0,0.0,0.0,0.0,0.0,0.0,3.9697,3.9697,3.9697,3.9697,3.9697,3.9697,3.9697,3.9697,3.9697,3.9697,3.9697,3.9697,3.9697,3.9697,3.9697,3.9697,3.9697,3.9697,3.9697,3.9697,3.9697,3.9697,3.9697,3.9697,3.9009,3.7941,3.632,3.4934,3.3957,3.348,3.2538,3.1976,3.26,3.103,2.9197,2.8504,2.8291,2.8495,0.0,0.0,0.0,0.0,0.0,0.0,0.0,0.0,0.0,0.0,0.0,0.0,0.0,0.0,0.0,0.0,0.0,0.0,2.9672,0.0,2.9941,3.0195,3.0381,3.0615,3.0889,3.0889,3.0889,3.0889,3.0889,3.0889,3.0889,3.0889,3.0889,3.0889,3.0889,3.0889,3.0889,3.0889,3.0889,3.0889,3.0889,3.0889,3.0889,3.936,0.0,3.7586,0.0,3.6883,3.6358,3.6358,3.6358,3.6358,3.6358,3.6358,3.6358,3.6358,3.6358,3.6358,3.6358,3.6358,3.6358,3.6358,3.6358,3.6358,3.6358,3.7048,0.0,3.8002,3.873,3.9308,3.9697,4.0554,0.0,0.0,0.0,0.0,0.0,4.0262,3.9697,3.9697,3.9697,3.9697,3.9697,3.9697,3.9697,3.9697,3.9697,3.9697,3.9697,3.9697,3.9697,3.9697,3.9697,3.9697,3.9697,3.9697,3.9697,3.9697,3.9697,3.9697,3.9659,3.9496,3.917,3.8465,3.6723,3.5771,3.5075,3.4845,3.3819,3.3055,3.3662,3.1949,2.9911,2.8601,2.8291,2.8398,2.8794,0.0,0.0,0.0,0.0,0.0,0.0,3.0421,3.1235,3.0421,0.0,0.0,0.0,0.0,0.0,0.0,0.0,0.0,0.0,0.0,0.0,0.0,2.9951,3.0244,3.0684,3.0684,3.0762,3.0889,3.0889,3.0889,3.0889,3.0889,3.0889,3.0889,3.0889,3.0889,3.0889,3.0889,3.0889,3.0889,3.0889,3.0889,3.0889,3.8107,3.7243,3.6452,3.6452,3.6452,3.6358,3.6358,3.6358,3.6358,3.6358,3.6358,3.6358,3.6358,3.6358,3.6358,3.6358,3.6358,3.6358,3.6358,3.6358,3.6358,0.0,0.0,3.8002,3.8002,3.9107,3.9685,3.9697,0.0,0.0,4.1604,0.0,4.1604,4.1505,4.0262,3.9697,3.9697,3.9697,3.9697,3.9697,3.9697,3.9697,3.9697,3.9697,3.9697,3.9697,3.9697,3.9697,3.9697,3.9697,3.9697,3.9697,3.9697,3.9697,3.9697,3.9697,3.9697,3.9572,3.9032,3.8881,3.8278,3.5809,3.5222,3.5091,3.4504,3.4385,3.397,3.2644,3.1224,2.9911,2.8601,2.8291,2.8698,3.0016,0.0,0.0,0.0,0.0,0.0,0.0,3.2655,3.3266,3.0514,0.0,0.0,0.0,0.0,0.0,0.0,0.0,0.0,2.831,2.8711,0.0,2.8935,2.9365,2.9785,3.0205,3.0205,3.0449,3.0889,3.0889,3.0889,3.0889,3.0889,3.0889,3.0889,3.0889,3.0889,3.0889,3.0889,3.0889,3.0889,3.0889,3.0889,3.0889,3.6977,3.6628,3.6358,3.6358,3.6358,3.6358,3.6358,3.6358,3.6358,3.6358,3.6358,3.6358,3.6358,3.6358,3.6358,0.0,3.6358,3.6358,0.0,3.6358,3.6358,3.6358,3.7412,3.8002,3.8002,3.912,3.9697,3.9697,0.0,0.0,0.0,4.0262,4.0262,4.0262,3.989,3.9697,3.9697,3.9697,3.9697,3.9697,3.9697,3.9697,3.9697,3.9697,3.9697,3.9697,3.9697,3.9697,3.9697,3.9697,3.9697,3.9697,3.9697,3.9697,3.9697,3.9697,3.9433,3.9094,3.8919,3.8304,3.7528,3.675,3.6282,3.596,3.58,3.5763,3.5367,3.397,3.2644,3.1224,2.9911,2.89,2.8698,3.011,2.9207,0.0,0.0,0.0,0.0,0.0,3.1327,3.1938,0.0,3.1338,0.0,0.0,0.0,0.0,0.0,0.0,0.0,0.0,2.8418,0.0,2.8916,2.9053,2.9346,2.9775,3.0059,3.0439,3.0889,3.0889,3.0889,3.0889,3.0889,3.0889,3.0889,3.0889,3.0889,3.0889,3.0889,3.0889,3.0889,3.0889,3.0889,3.0889,3.6358,3.6358,3.6358,3.6358,3.6358,3.6358,3.6358,3.6358,3.6358,3.6358,3.6358,3.6358,3.6358,3.6358,0.0,3.6358,3.6358,3.6358,3.6358,3.6358,3.6358,3.6358,3.7211,3.7701,3.7701,0.0,0.0,3.9383,3.9597,3.9697,3.9697,3.9697,3.9697,3.9697,3.9697,3.9697,3.9697,3.9697,3.9697,3.9697,3.9697,3.9697,3.9697,3.9697,3.9697,3.9697,3.9697,3.9697,3.9697,3.9697,3.9697,3.9659,3.9446,3.9383,3.9383,3.9383,3.9145,3.8781,3.8354,3.7726,3.7136,3.6923,3.6621,3.6358,3.6358,3.6358,3.6061,3.4678,3.3674,3.2543,3.0618,2.9608,2.9207,2.9503,2.9303,2.9207,2.9513,0.0,0.0,0.0,0.0,0.0,0.0,3.1019,0.0,0.0,0.0,0.0,0.0,0.0,0.0,2.8398,2.8291,0.0,2.8682,2.8682,2.8906,2.9336,2.9922,3.0342,3.0635,3.081,3.0889,3.0889,3.0889,3.0889,3.0889,3.0889,3.0889,3.0889,3.0889,3.0889,3.0889,3.0889,3.0889,3.0889,3.6358,3.6358,0.0,0.0,3.6358,0.0,3.6358,3.6358,3.6358,3.6358,3.6358,3.6358,3.6358,3.6358,3.6358,3.6358,0.0,0.0,0.0,3.6358,3.6358,3.6358,3.6885,3.7186,3.7186,3.8253,3.8831,3.8868,3.9383,3.9647,3.9697,3.9697,3.9697,3.9697,3.9697,3.9697,3.9697,3.9697,3.9697,3.9697,3.9697,3.9697,3.9697,3.9697,3.9697,3.9697,3.9697,3.9697,3.9685,3.9647,3.9634,3.9534,3.8981,3.8806,3.8806,3.8806,3.8781,3.853,3.7475,3.7161,3.6998,3.6483,3.6358,3.6358,3.6358,3.6358,3.6061,3.4775,3.4483,3.3674,3.103,3.0421,2.9911,2.891,2.9513,2.9817,2.8698,0.0,0.0,0.0,0.0,0.0,0.0,3.1531,3.1224,0.0,0.0,0.0,0.0,0.0,3.0916,2.8398,2.8291,2.8291,2.8291,2.8291,2.8506,2.8926,2.9726,3.0137,3.0215,3.0644,3.0859,3.0889,3.0889,3.0889,3.0889,3.0889,3.0889,3.0889,3.0889,3.0889,3.0889,3.0889,3.0889,3.0889,0.0,0.0,3.6358,3.6358,3.6358,3.6358,3.6358,3.6358,3.6358,3.6358,3.6358,3.6358,3.6358,3.6358,3.6358,3.6358,3.6358,3.6358,3.6358,3.6358,3.6358,3.6358,3.6885,3.7186,3.7186,3.7864,3.8429,3.8868,3.9007,3.9283,3.9697,3.9697,3.9697,3.9697,3.9697,3.9697,3.9697,3.9697,3.9697,3.9697,3.9697,3.9697,3.9697,3.9697,3.9697,3.9697,3.9697,3.9697,3.9634,3.9207,3.9069,3.8969,3.8391,3.8216,3.8216,3.8216,3.7914,3.7525,3.7262,3.6872,3.6521,3.6395,3.6358,3.6358,3.6358,3.6358,3.6263,3.5966,3.5078,3.4178,3.3563,3.1735,3.0927,3.2655,3.0628,2.9408,3.1122,2.9807,0.0,0.0,3.0824,3.1724,3.0421,3.1531,3.1622,0.0,0.0,0.0,0.0,2.9911,3.0016,2.8398,2.8291,2.8291,2.8291,2.8291,2.8506,2.8916,2.9121,2.956,3.0205,3.0312,3.0557,3.0889,3.0889,3.0889,3.0889,3.0889,3.0889,3.0889,3.0889,3.0889,3.0889,3.0889,3.0889,3.0889,3.6358,3.6358,3.6358,3.6358,3.6358,3.6358,3.6358,3.6358,3.6358,3.6358,3.6358,3.6358,3.6358,3.6358,3.6358,3.6358,3.6358,3.6358,3.6358,3.6358,3.6358,3.6358,3.6646,3.681,3.681,3.7349,3.7902,3.8479,3.8479,3.863,3.8931,3.9195,3.932,3.9333,3.9584,3.9697,3.9697,3.9697,3.9697,3.9697,3.9697,3.9697,3.9697,3.9697,3.9697,3.9659,3.9408,3.932,3.9233,3.8668,3.8479,3.8379,3.7801,3.7626,3.7575,3.7324,3.7224,3.7123,3.6872,3.6584,3.6358,3.6358,3.6358,3.6358,3.6358,3.6358,3.6358,3.6358,3.5858,3.5174,3.4483,3.2644,3.1735,3.3155,3.1531,3.0411,3.1224,3.0618,0.0,2.8504,3.0721,3.1724,3.0421,3.214,3.2443,3.0421,0.0,0.0,2.8398,2.9006,2.8996,2.8291,2.8291,2.8291,2.8291,2.8291,2.8408,2.8633,2.8828,2.916,2.9629,3.0019,3.0332,3.0586,3.0801,3.0889,3.0889,3.0889,3.0889,3.0889,3.0889,3.0889,3.0889,3.0889,3.0889,3.0889,3.6358,3.6358,3.6358,3.6358,3.6358,3.6358,3.6358,3.6358,3.6358,3.6358,3.6358,3.6358,3.6358,3.6358,3.6358,3.6358,3.6358,3.6358,3.6358,3.6358,3.6358,3.6358,3.6358,3.6358,3.6358,3.6822,3.7324,3.7889,3.7889,3.7927,3.8015,3.8504,3.8743,3.8755,3.9233,3.9433,3.9433,3.9433,3.9433,3.9433,3.9433,3.9433,3.9433,3.9433,3.9433,3.9371,3.8906,3.8743,3.8655,3.8078,3.7889,3.7789,3.7236,3.7061,3.6973,3.6496,3.6684,3.696,3.6483,3.6358,3.6358,3.6358,3.6358,3.6358,3.6358,3.6358,3.6358,3.6358,3.6358,3.6061,3.4884,3.3563,3.2644,3.2944,3.2532,3.1938,3.103,0.0,3.1122,2.89,3.0618,3.1633,3.0721,3.2755,3.3155,3.0824,3.0421,2.9713,0.0,2.8291,2.8291,2.8291,2.8291,2.8291,2.8291,2.8291,2.8291,2.8301,2.8652,2.8857,2.8945,2.9678,3.0078,3.0215,3.0615,3.083,3.0889,3.0889,3.0889,3.0889,3.0889,3.0889,3.0889,3.0889,3.0889,3.0889,3.6358,3.6358,3.6358,3.6358,3.6358,3.6358,3.6358,3.6358,3.6358,3.6358,3.6358,3.6358,3.6358,3.6358,3.6358,3.6358,3.6358,3.6358,3.6358,3.6358,3.6358,3.6358,3.6358,3.6358,3.6358,3.6445,3.6759,3.7312,3.7312,3.755,3.8002,3.8103,3.814,3.814,3.8228,3.8266,3.8266,3.8266,3.8266,3.8266,3.8266,3.8266,3.8266,3.8266,3.8266,3.8253,3.8165,3.814,3.8052,3.75,3.7312,3.7211,3.6659,3.6483,3.6471,3.6383,3.642,3.6471,3.6383,3.6358,3.6358,3.6358,3.6358,3.6358,3.6358,3.6358,3.6358,3.6358,3.6358,3.6358,3.6156,3.4969,3.4471,3.5559,3.3836,3.2644,3.3674,0.0,3.0421,3.0016,3.0317,3.0916,3.1927,3.2331,3.2431,3.2028,3.0916,2.9713,2.8398,2.8291,2.8291,2.8291,2.8291,2.8291,2.8291,2.8291,2.8291,2.8291,2.8359,2.8574,2.8926,2.9062,2.9512,3.0205,3.0273,3.0527,3.0889,3.0889,3.0889,3.0889,3.0889,3.0889,3.0889,3.0889,3.0889,3.0889,3.6358,3.6358,3.6358,3.6358,3.6358,3.6358,3.6358,3.6358,3.6358,3.6358,3.6358,3.6358,3.6358,3.6358,3.6358,3.6358,3.6358,3.6358,3.6358,3.6358,3.6358,3.6358,3.6358,3.6358,3.6358,3.6358,3.6483,3.6734,3.6734,3.6872,3.7123,3.7425,3.7563,3.7575,3.7877,3.8002,3.8002,3.8002,3.8002,3.8002,3.8002,3.8002,3.8002,3.8002,3.8002,3.7965,3.7663,3.7563,3.7475,3.6923,3.6734,3.6697,3.6445,3.6358,3.6358,3.6358,3.6358,3.6358,3.6358,3.6358,3.6358,3.6358,3.6358,3.6358,3.6358,3.6358,3.6358,3.6358,3.6358,3.6358,3.6358,3.5271,3.4872,3.6156,3.4763,0.0,0.0,3.2655,3.1122,3.0421,3.0317,3.0514,3.1122,3.1836,3.2028,3.1327,3.0618,2.9713,2.8398,2.8291,2.8291,2.8291,2.8291,2.8291,2.8291,2.8291,2.8291,2.8291,2.8291,2.8398,2.8584,2.8818,2.9131,2.9531,3.0,3.0322,3.0537,3.0791,3.0889,3.0889,3.0889,3.0889,3.0889,3.0889,3.0889,3.0889,3.6358,3.6358,3.6358,3.6358,3.6358,3.6358,3.6358,3.6358,3.6358,3.6358,3.6358,3.6358,3.6358,3.6358,3.6358,3.6358,3.6358,3.6358,3.6358,3.6358,3.6358,3.6358,3.6358,3.6358,3.6358,3.6358,3.6358,3.6358,3.6358,3.6358,3.637,3.6797,3.6998,3.701,3.7437,3.7626,3.7626,3.7626,3.7626,3.7626,3.7626,3.7626,3.7626,3.7626,3.7626,3.7563,3.7149,3.6998,3.6923,3.6508,3.6358,3.6358,3.6358,3.6358,3.6358,3.6358,3.6358,3.6358,3.6358,3.6358,3.6358,3.6358,3.6358,3.6358,3.6358,3.6358,3.6358,3.6358,3.6358,3.6358,3.6358,3.5571,3.5174,3.6263,0.0,0.0,0.0,3.3662,3.223,3.0927,3.0525,3.0411,3.0721,3.1429,3.1531,3.0824,3.0525,2.9713,2.8398,2.8291,2.8291,2.8291,2.8291,2.8291,2.8291,2.8291,2.8291,2.8291,2.8291,2.8291,2.8301,2.8633,2.8828,2.8955,2.9619,3.001,3.0225,3.0586,3.0791,3.0889,3.0889,3.0889,3.0889,3.0889,3.0889,3.0889,3.6358,3.6358,3.6358,3.6358,3.6358,3.6358,3.6358,3.6358,3.6358,3.6358,3.6358,3.6358,3.6358,3.6358,3.6358,3.6358,3.6358,3.6358,3.6358,3.6358,3.6358,3.6358,3.6358,3.6358,3.6358,3.6358,3.6358,3.6358,3.6358,3.6358,3.6358,3.6408,3.642,3.642,3.6471,3.6483,3.6483,3.6483,3.6483,3.6483,3.6483,3.6483,3.6483,3.6483,3.6483,3.6471,3.6433,3.642,3.642,3.637,3.6358,3.6358,3.6358,3.6358,3.6358,3.6358,3.6358,3.6358,3.6358,3.6358,3.6358,3.6358,3.6358,3.6358,3.6358,3.6358,3.6358,3.6358,3.6358,3.6358,3.6358,3.6358,3.6263,3.6358,0.0,0.0,3.6263,3.5066,3.3761,3.2331,3.1019,3.0824,3.2028,3.1122,3.0916,3.2028,3.1019,2.9713,2.8398,2.8291,2.8291,2.8291,2.8291,2.8291,2.8291,2.8291,2.8291,2.8291,2.8291,2.8291,2.8291,2.833,2.8555,2.8926,2.8984,2.9463,3.0195,3.0234,3.0508,3.0889,3.0889,3.0889,3.0889,3.0889,3.0889,3.0889,3.6358,3.6358,3.6358,3.6358,3.6358,3.6358,3.6358,3.6358,3.6358,3.6358,3.6358,3.6358,3.6358,3.6358,3.6358,3.6358,3.6358,3.6358,3.6358,3.6358,3.6358,3.6358,3.6358,3.6358,3.6358,3.6358,3.6358,3.6358,3.6358,3.6358,3.6358,3.6358,3.6358,3.6358,3.6358,3.6358,3.6358,3.6358,3.6358,3.6358,3.6358,3.6358,3.6358,3.6358,3.6358,3.6358,3.6358,3.6358,3.6358,3.6358,3.6358,3.6358,3.6358,3.6358,3.6358,3.6358,3.6358,3.6358,3.6358,3.6358,3.6358,3.6358,3.6358,3.6358,3.6358,3.6358,3.6358,3.6358,3.6358,3.6358,3.6358,3.6358,3.6358,3.6358,0.0,3.6358,3.6358,3.5271,3.3871,3.2443,3.1122,3.0214,2.9807,3.011,3.0214,2.9807,3.012,2.9713,2.8398,2.8291,2.8291,2.8291,2.8291,2.8291,2.8291,2.8291,2.8291,2.8291,2.8291,2.8291,2.8291,2.8291,2.8379,2.8545,2.8809,2.9258,2.9824,3.0088,3.0469,3.0889,3.0889,3.0889,3.0889,3.0889,3.0889,3.0889,3.6358,3.6358,3.6358,3.6358,3.6358,3.6358,3.6358,3.6358,3.6358,3.6358,3.6358,3.6358,3.6358,3.6358,3.6358,3.6358,3.6358,3.6358,3.6358,3.6358,3.6358,3.6358,3.6358,3.6358,3.6358,3.6358,3.6358,3.6358,3.6358,3.6358,3.6358,3.6358,3.6358,3.6358,3.6358,3.6358,3.6358,3.6358,3.6358,3.6358,3.6358,3.6358,3.6358,3.6358,3.6358,3.6358,3.6358,3.6358,3.6358,3.6358,3.6358,3.6358,3.6358,3.6358,3.6358,3.6358,3.6358,3.6358,3.6358,3.6358,3.6358,3.6358,3.6358,3.6358,3.6358,3.6358,3.6358,3.6358,3.6358,3.6358,3.6358,3.6358,3.6358,3.6358,3.6358,3.6358,3.6358,3.5571,3.4471,3.3155,3.1735,3.0721,3.0224,2.9922,2.9608,2.9503,2.9608,2.9303,2.8398,2.8291,2.8291,2.8291,2.8291,2.8291,2.8291,2.8291,2.8291,2.8291,2.8291,2.8291,2.8291,2.8291,2.8291,2.831,2.8594,2.8965,2.9394,2.9824,3.0264,3.0684,3.083,3.0889,3.0889,3.0889,3.0889,3.0889,3.6358,3.6358,3.6358,3.6358,3.6358,3.6358,3.6358,3.6358,3.6358,3.6358,3.6358,3.6358,3.6358,3.6358,3.6358,3.6358,3.6358,3.6358,3.6358,3.6358,3.6358,3.6358,3.6358,3.6358,3.6358,3.6358,3.6358,3.6358,3.6358,3.6358,3.6358,3.6358,3.6358,3.6358,3.6358,3.6358,3.6358,3.6358,3.6358,3.6358,3.6358,3.6358,3.6358,3.6358,3.6358,3.6358,3.6358,3.6358,3.6358,3.6358,3.6358,3.6358,3.6358,3.6358,3.6358,3.6358,3.6358,3.6358,3.6358,3.6358,3.6358,3.6358,3.6358,3.6358,3.6358,3.6358,3.6358,3.6358,3.6358,3.6358,3.6358,3.6358,3.6358,3.6358,3.6358,3.6358,3.6358,3.6358,3.5858,3.4581,3.3155,3.2844,3.4276,3.0732,2.9408,3.2129,2.9807,2.8291,2.8291,2.8291,2.8291,2.8291,2.8291,2.8291,2.8291,2.8291,2.8291,2.8291,2.8291,2.8291,2.8291,2.8291,2.8291,2.8291,2.8291,2.8535,2.8955,2.9394,2.9814,3.0244,3.0713,3.0889,3.0889,3.0889,3.0889,3.0889,3.6358,3.6358,3.6358,3.6358,3.6358,3.6358,3.6358,3.6358,3.6358,3.6358,3.6358,3.6358,3.6358,3.6358,3.6358,3.6358,3.6358,3.6358,3.6358,3.6358,3.6358,3.6358,3.6358,3.6358,3.6358,3.6358,3.6358,3.6358,3.6358,3.6358,3.6358,3.6358,3.6358,3.6358,3.6358,3.6358,3.6358,3.6358,3.6358,3.6358,3.6358,3.6358,3.6358,3.6358,3.6358,3.6358,3.6358,3.6358,3.6358,3.6358,3.6358,3.6358,3.6358,3.6358,3.6358,3.6358,3.6358,3.6358,3.6358,3.6358,3.6358,3.6358,3.6358,3.6358,3.6358,3.6358,3.6358,3.6358,3.6358,3.6358,3.6358,3.6358,3.6358,3.6358,3.6358,3.6358,3.6358,3.6358,3.5858,3.4581,3.408,3.3563,3.2955,3.1836,3.103,3.0916,2.9303,2.8291,2.8291,2.8291,2.8291,2.8291,2.8291,2.8291,2.8291,2.8291,2.8291,2.8291,2.8291,2.8291,2.8291,2.8291,2.8291,2.8291,2.8291,2.8535,2.8955,2.9394,2.9814,3.0244,3.0713,3.0889,3.0889,3.0889,3.0889,3.0889,3.6358,3.6358,3.6358,3.6358,3.6358,3.6358,3.6358,3.6358,3.6358,3.6358,3.6358,3.6358,3.6358,3.6358,3.6358,3.6358,3.6358,3.6358,3.6358,3.6358,3.6358,3.6358,3.6358,3.6358,3.6358,3.6358,3.6358,3.6358,3.6358,3.6358,3.6358,3.6358,3.6358,3.6358,3.6358,3.6358,3.6358,3.6358,3.6358,3.6358,3.6358,3.6358,3.6358,3.6358,3.6358,3.6358,3.6358,3.6358,3.6358,3.6358,3.6358,3.6358,3.6358,3.6358,3.6358,3.6358,3.6358,3.6358,3.6358,3.6358,3.6358,3.6358,3.6358,3.6358,3.6358,3.6358,3.6358,3.6358,3.6358,3.6358,3.6358,3.6358,3.6358,3.6358,3.6358,3.6358,3.6358,3.6358,3.6061,3.5271,3.4678,3.4276,3.3946,3.2932,3.1724,3.0421,2.9513,2.89,2.8291,2.8291,2.8291,2.8291,2.8291,2.8291,2.8291,2.8291,2.8291,2.8291,2.8291,2.8291,2.8291,2.8291,2.8291,2.8291,2.8291,2.8437,2.8701,2.9131,2.956,2.999,3.0439,3.0732,3.0889,3.0889,3.0889,3.0889,3.6358,3.6358,3.6358,3.6358,3.6358,3.6358,3.6358,3.6358,3.6358,3.6358,3.6358,3.6358,3.6358,3.6358,3.6358,3.6358,3.6358,3.6358,3.6358,3.6358,3.6358,3.6358,3.6358,3.6358,3.6358,3.6358,3.6358,3.6358,3.6358,3.6358,3.6358,3.6358,3.6358,3.6358,3.6358,3.6358,3.6358,3.6358,3.6358,3.6358,3.6358,3.6358,3.6358,3.6358,3.6358,3.6358,3.6358,3.6358,3.6358,3.6358,3.6358,3.6358,3.6358,3.6358,3.6358,3.6358,3.6358,3.6358,3.6358,3.6358,3.6358,3.6358,3.6358,3.6358,3.6358,3.6358,3.6358,3.6358,3.6358,3.6358,3.6358,3.6358,3.6358,3.6358,3.6358,3.6358,3.6358,3.6358,3.6358,3.6358,3.5271,3.5078,3.6263,3.4044,3.1836,3.0421,3.0421,2.9807,2.8398,2.8388,2.8388,2.8291,2.8291,2.8291,2.8291,2.8291,2.8291,2.8291,2.8291,2.8291,2.8291,2.8291,2.8291,2.8291,2.8291,2.8291,2.833,2.875,2.918,2.9609,3.0029,3.0478,3.0889,3.0889,3.0889,3.0889,3.6358,3.6358,3.6358,3.6358,3.6358,3.6358,3.6358,3.6358,3.6358,3.6358,3.6358,3.6358,3.6358,3.6358,3.6358,3.6358,3.6358,3.6358,3.6358,3.6358,3.6358,3.6358,3.6358,3.6358,3.6358,3.6358,3.6358,3.6358,3.6358,3.6358,3.6358,3.6358,3.6358,3.6358,3.6358,3.6358,3.6358,3.6358,3.6358,3.6358,3.6358,3.6358,3.6358,3.6358,3.6358,3.6358,3.6358,3.6358,3.6358,3.6358,3.6358,3.6358,3.6358,3.6358,3.6358,3.6358,3.6358,3.6358,3.6358,3.6358,3.6358,3.6358,3.6358,3.6358,3.6358,3.6358,3.6358,3.6358,3.6358,3.6358,3.6358,3.6358,3.6358,3.6358,3.6358,3.6358,3.6358,3.6358,3.6358,3.6358,3.6156,3.6061,3.6358,3.486,3.2955,3.0514,3.1224,3.0813,2.8398,2.9303,2.9408,2.8291,2.8291,2.8291,2.8291,2.8291,2.8291,2.8291,2.8291,2.8291,2.8291,2.8291,2.8291,2.8291,2.8291,2.8291,2.833,2.875,2.918,2.9609,3.0029,3.0478,3.0889,3.0889,3.0889,3.0889,3.6358,3.6358,3.6358,3.6358,3.6358,3.6358,3.6358,3.6358,3.6358,3.6358,3.6358,3.6358,3.6358,3.6358,3.6358,3.6358,3.6358,3.6358,3.6358,3.6358,3.6358,3.6358,3.6358,3.6358,3.6358,3.6358,3.6358,3.6358,3.6358,3.6358,3.6358,3.6358,3.6358,3.6358,3.6358,3.6358,3.6358,3.6358,3.6358,3.6358,3.6358,3.6358,3.6358,3.6358,3.6358,3.6358,3.6358,3.6358,3.6358,3.6358,3.6358,3.6358,3.6358,3.6358,3.6358,3.6358,3.6358,3.6358,3.6358,3.6358,3.6358,3.6358,3.6358,3.6358,3.6358,3.6358,3.6358,3.6358,3.6358,3.6358,3.6358,3.6358,3.6358,3.6358,3.6358,3.6358,3.6358,3.6358,3.6358,3.6358,3.6358,3.6358,3.6358,3.5775,3.4459,3.2443,3.2955,3.214,2.9408,2.9911,2.9713,2.8291,2.8291,2.8291,2.8291,2.8291,2.8291,2.8291,2.8291,2.8291,2.8291,2.8291,2.8291,2.8291,2.8291,2.8291,2.831,2.8535,2.8877,2.9307,2.9726,3.0166,3.0586,3.081,3.0889,3.0889,3.6358,3.6358,3.6358,3.6358,3.6358,3.6358,3.6358,3.6358,3.6358,3.6358,3.6358,3.6358,3.6358,3.6358,3.6358,3.6358,3.6358,3.6358,3.6358,3.6358,3.6358,3.6358,3.6358,3.6358,3.6358,3.6358,3.6358,3.6358,3.6358,3.6358,3.6358,3.6358,3.6358,3.6358,3.6358,3.6358,3.6358,3.6358,3.6358,3.6358,3.6358,3.6358,3.6358,3.6358,3.6358,3.6358,3.6358,3.6358,3.6358,3.6358,3.6358,3.6358,3.6358,3.6358,3.6358,3.6358,3.6358,3.6358,3.6358,3.6358,3.6358,3.6358,3.6358,3.6358,3.6358,3.6358,3.6358,3.6358,3.6358,3.6358,3.6358,3.6358,3.6358,3.6358,3.6358,3.6358,3.6358,3.6358,3.6358,3.6358,3.6358,3.6358,3.6358,3.6358,3.5858,3.4483,3.4581,3.3563,3.0824,3.0824,3.0421,2.9006,2.8804,2.8591,2.8591,2.8388,2.8291,2.8291,2.8291,2.8291,2.8291,2.8291,2.8291,2.8291,2.8291,2.8291,2.8291,2.8291,2.8535,2.8965,2.9404,2.9824,3.0254,3.0723,3.0889,3.0889,3.6358,3.6358,3.6358,3.6358,3.6358,3.6358,3.6358,3.6358,3.6358,3.6358,3.6358,3.6358,3.6358,3.6358,3.6358,3.6358,3.6358,3.6358,3.6358,3.6358,3.6358,3.6358,3.6358,3.6358,3.6358,3.6358,3.6358,3.6358,3.6358,3.6358,3.6358,3.6358,3.6358,3.6358,3.6358,3.6358,3.6358,3.6358,3.6358,3.6358,3.6358,3.6358,3.6358,3.6358,3.6358,3.6358,3.6358,3.6358,3.6358,3.6358,3.6358,3.6358,3.6358,3.6358,3.6358,3.6358,3.6358,3.6358,3.6358,3.6358,3.6358,3.6358,3.6358,3.6358,3.6358,3.6358,3.6358,3.6358,3.6358,3.6358,3.6358,3.6358,3.6358,3.6358,3.6358,3.6358,3.6358,3.6358,3.6358,3.6358,3.6358,3.6358,3.6358,3.6358,3.5858,3.4483,3.5463,3.4945,3.2129,3.3155,3.3155,3.1825,3.0618,3.0016,3.0016,2.89,2.8291,2.8291,2.8291,2.8291,2.8291,2.8291,2.8291,2.8291,2.8291,2.8291,2.8291,2.8291,2.8535,2.8965,2.9404,2.9824,3.0254,3.0723,3.0889,3.0889,3.6358,3.6358,3.6358,3.6358,3.6358,3.6358,3.6358,3.6358,3.6358,3.6358,3.6358,3.6358,3.6358,3.6358,3.6358,3.6358,3.6358,3.6358,3.6358,3.6358,3.6358,3.6358,3.6358,3.6358,3.6358,3.6358,3.6358,3.6358,3.6358,3.6358,3.6358,3.6358,3.6358,3.6358,3.6358,3.6358,3.6358,3.6358,3.6358,3.6358,3.6358,3.6358,3.6358,3.6358,3.6358,3.6358,3.6358,3.6358,3.6358,3.6358,3.6358,3.6358,3.6358,3.6358,3.6358,3.6358,3.6358,3.6358,3.6358,3.6358,3.6358,3.6358,3.6358,3.6358,3.6358,3.6358,3.6358,3.6358,3.6358,3.6358,3.6358,3.6358,3.6358,3.6358,3.6358,3.6358,3.6358,3.6358,3.6358,3.6358,3.6358,3.6358,3.6358,3.5763,3.5367,3.5475,3.5367,3.4763,3.3563,3.408,3.3761,3.2331,3.1724,3.1429,3.1429,3.012,2.9408,2.9408,2.8698,2.8291,2.8291,2.8291,2.8291,2.8291,2.8291,2.8291,2.8291,2.8291,2.8398,2.8613,2.9043,2.9609,3.0254,3.0723,3.0889,3.0889]}]]